[[{"header":{"parameterUnit":"m.s-1","parameterCategory":1,"la1":31.0,"la2":29.5877,"lo1":-88.7671,"lo2":-86.6584,"dy":0.0162,"dx":0.0185,"nx":115,"ny":88,"refTime":"2023-09-24T12:00:00:Z","depth":0,"parameterNumber":2,"parameterNumberName":"U-component_of_WINDS"},"data":[0.0,0.0,0.0,0.0,0.0,0.0,0.0,0.0,0.0,0.0,0.0,0.0,0.0,0.0,0.0,0.0,0.0,0.0,0.0,0.0,0.0,0.0,0.0,0.0,0.0,0.0,0.0,0.0,0.0,0.0,0.0,0.0,0.0,0.0,0.0,0.0,0.0,0.0,0.0,0.0,0.0,0.0,0.0,0.0,0.0,0.0,0.0,0.0,0.0,0.0,0.0,0.0,0.0,0.0,0.0,0.0,0.0,0.0,0.0,0.0,0.0,0.0,0.0,0.0,0.0,0.0,0.0,0.0,0.0,0.0,0.0,0.0,0.0,0.0,0.0,0.0,0.0,0.0,0.0,0.0,0.0,0.0,0.0,0.0,0.0,0.0,0.0,0.0,0.0,0.0,0.0,0.0,0.0,0.0,0.0,0.0,0.0,0.0,0.0,0.0,0.0,0.0,0.0,0.0,0.0,0.0,0.0,0.0,0.0,0.0,0.0,0.0,0.0,0.0,0.0,0.0,0.0,0.0,0.0,0.0,0.0,0.0,0.0,0.0,0.0,0.0,0.0,0.0,0.0,0.0,0.0,0.0,0.0,0.0,0.0,0.0,0.0,0.0,0.0,0.0,0.0,0.0,0.0,0.0,0.0,0.0,0.0,0.0,0.0,0.0,0.0,0.0,0.0,0.0,0.0,0.0,0.0,0.0,0.0,0.0,0.0,0.0,0.0,0.0,0.0,0.0,0.0,0.0,0.0,0.0,0.0,0.0,0.0,0.0,0.0,0.0,0.0,0.0,0.0,0.0,0.0,0.0,0.0,0.0,0.0,0.0,0.0,0.0,0.0,0.0,0.0,0.0,0.0,0.0,0.0,0.0,0.0,0.0,0.0,0.0,0.0,0.0,0.0,0.0,0.0,0.0,0.0,0.0,0.0,0.0,0.0,0.0,0.0,0.0,0.0,0.0,0.0,0.0,0.0,0.0,0.0,0.0,0.0,0.0,0.0,0.0,0.0,0.0,0.0,0.0,0.0,0.0,0.0,0.0,0.0,0.0,0.0,0.0,0.0,0.0,0.0,0.0,0.0,0.0,0.0,0.0,0.0,0.0,0.0,0.0,0.0,0.0,0.0,0.0,0.0,0.0,0.0,0.0,0.0,0.0,0.0,0.0,0.0,0.0,0.0,0.0,0.0,0.0,0.0,0.0,0.0,0.0,0.0,0.0,0.0,0.0,0.0,0.0,0.0,0.0,0.0,0.0,0.0,0.0,0.0,0.0,0.0,0.0,0.0,0.0,0.0,0.0,0.0,0.0,0.0,0.0,0.0,0.0,0.0,0.0,0.0,0.0,0.0,0.0,0.0,0.0,0.0,0.0,0.0,0.0,0.0,0.0,0.0,0.0,0.0,0.0,0.0,0.0,0.0,0.0,0.0,0.0,0.0,0.0,0.0,0.0,0.0,0.0,0.0,0.0,0.0,0.0,0.0,0.0,0.0,0.0,0.0,0.0,0.0,0.0,0.0,0.0,0.0,0.0,0.0,0.0,0.0,0.0,0.0,0.0,0.0,0.0,0.0,0.0,0.0,0.0,0.0,0.0,0.0,0.0,0.0,0.0,0.0,0.0,0.0,0.0,0.0,0.0,0.0,0.0,0.0,0.0,0.0,0.0,0.0,0.0,0.0,0.0,0.0,0.0,0.0,0.0,0.0,0.0,0.0,0.0,0.0,0.0,0.0,0.0,0.0,0.0,0.0,0.0,0.0,0.0,0.0,0.0,0.0,0.0,0.0,0.0,0.0,0.0,0.0,0.0,0.0,0.0,0.0,0.0,0.0,0.0,0.0,0.0,0.0,0.0,0.0,0.0,0.0,0.0,0.0,0.0,0.0,0.0,0.0,0.0,0.0,0.0,0.0,0.0,0.0,0.0,0.0,0.0,0.0,0.0,0.0,0.0,0.0,0.0,0.0,0.0,0.0,0.0,0.0,0.0,0.0,0.0,0.0,0.0,0.0,0.0,0.0,0.0,0.0,0.0,0.0,0.0,0.0,0.0,0.0,0.0,0.0,0.0,0.0,0.0,0.0,0.0,0.0,0.0,0.0,0.0,0.0,0.0,0.0,0.0,0.0,0.0,0.0,0.0,0.0,0.0,0.0,0.0,0.0,0.0,0.0,0.0,0.0,0.0,0.0,0.0,0.0,0.0,0.0,0.0,0.0,0.0,0.0,0.0,0.0,0.0,0.0,0.0,0.0,0.0,0.0,0.0,0.0,0.0,0.0,0.0,0.0,0.0,0.0,0.0,0.0,0.0,0.0,0.0,0.0,0.0,0.0,0.0,0.0,0.0,0.0,0.0,0.0,0.0,0.0,0.0,0.0,0.0,0.0,0.0,0.0,0.0,0.0,0.0,0.0,0.0,0.0,0.0,0.0,0.0,0.0,0.0,0.0,0.0,0.0,0.0,0.0,0.0,0.0,0.0,0.0,0.0,0.0,0.0,0.0,0.0,0.0,0.0,0.0,0.0,0.0,0.0,0.0,0.0,0.0,0.0,0.0,0.0,0.0,0.0,0.0,0.0,0.0,0.0,0.0,0.0,0.0,0.0,0.0,0.0,0.0,0.0,0.0,0.0,0.0,0.0,0.0,0.0,0.0,0.0,0.0,0.0,0.0,0.0,0.0,0.0,0.0,0.0,0.0,0.0,0.0,0.0,0.0,0.0,0.0,0.0,0.0,0.0,0.0,0.0,0.0,0.0,0.0,0.0,0.0,0.0,0.0,0.0,0.0,0.0,0.0,0.0,0.0,0.0,0.0,0.0,0.0,0.0,0.0,0.0,0.0,0.0,0.0,0.0,0.0,0.0,0.0,0.0,0.0,0.0,0.0,0.0,0.0,0.0,0.0,0.0,0.0,0.0,0.0,0.0,0.0,0.0,0.0,0.0,0.0,0.0,0.0,0.0,0.0,0.0,0.0,0.0,0.0,0.0,0.0,0.0,0.0,0.0,0.0,0.0,0.0,0.0,0.0,0.0,0.0,0.0,0.0,0.0,0.0,0.0,0.0,0.0,0.0,0.0,0.0,0.0,0.0,0.0,0.0,0.0,0.0,0.0,0.0,0.0,0.0,0.0,0.0,0.0,0.0,0.0,0.0,0.0,0.0,0.0,0.0,0.0,0.0,0.0,0.0,0.0,0.0,0.0,0.0,0.0,0.0,0.0,0.0,0.0,0.0,0.0,0.0,0.0,0.0,0.0,0.0,0.0,0.0,0.0,0.0,0.0,0.0,0.0,0.0,0.0,0.0,0.0,0.0,0.0,0.0,0.0,0.0,0.0,0.0,0.0,0.0,0.0,0.0,0.0,0.0,0.0,0.0,0.0,0.0,0.0,0.0,0.0,0.0,0.0,0.0,0.0,0.0,0.0,0.0,0.0,0.0,0.0,0.0,0.0,0.0,0.0,0.0,0.0,0.0,0.0,0.0,0.0,0.0,0.0,0.0,0.0,0.0,0.0,0.0,0.0,0.0,0.0,0.0,0.0,0.0,0.0,0.0,0.0,0.0,0.0,0.0,0.0,0.0,0.0,0.0,0.0,0.0,0.0,0.0,0.0,0.0,0.0,0.0,0.0,0.0,0.0,0.0,0.0,0.0,0.0,0.0,0.0,0.0,0.0,0.0,0.0,0.0,0.0,0.0,0.0,0.0,0.0,0.0,0.0,0.0,0.0,0.0,0.0,0.0,0.0,0.0,0.0,0.0,0.0,0.0,0.0,0.0,0.0,0.0,0.0,0.0,0.0,0.0,0.0,0.0,0.0,0.0,0.0,0.0,0.0,0.0,0.0,0.0,0.0,0.0,0.0,0.0,0.0,0.0,0.0,0.0,0.0,0.0,0.0,0.0,0.0,0.0,0.0,0.0,0.0,0.0,0.0,0.0,0.0,0.0,0.0,0.0,0.0,0.0,0.0,0.0,0.0,0.0,0.0,0.0,0.0,0.0,0.0,0.0,0.0,0.0,0.0,0.0,0.0,0.0,0.0,0.0,0.0,0.0,0.0,0.0,0.0,0.0,0.0,0.0,0.0,0.0,0.0,0.0,0.0,0.0,0.0,0.0,0.0,0.0,0.0,0.0,0.0,0.0,0.0,0.0,0.0,0.0,0.0,0.0,0.0,0.0,0.0,0.0,0.0,0.0,0.0,0.0,0.0,0.0,0.0,0.0,0.0,0.0,0.0,0.0,0.0,0.0,0.0,0.0,0.0,0.0,0.0,0.0,0.0,0.0,0.0,0.0,0.0,0.0,0.0,1.029,0.0,0.0,0.0,0.0,0.0,0.0,0.0,0.0,0.0,0.0,0.0,0.0,0.0,0.0,0.0,0.0,0.0,0.0,0.0,0.0,0.0,0.0,0.0,0.0,0.0,0.0,0.0,0.0,0.0,0.0,0.0,0.0,0.0,0.0,0.0,0.0,0.0,0.0,0.0,0.0,0.0,0.0,0.0,0.0,0.0,0.0,0.0,0.0,0.0,0.0,0.0,0.0,0.0,0.0,0.0,0.0,0.0,0.0,0.0,0.0,0.0,0.0,0.0,0.0,0.0,0.0,0.0,0.0,0.0,0.0,0.0,0.0,0.0,0.0,0.0,0.0,0.0,0.0,0.0,0.0,0.0,0.0,0.0,0.0,0.0,0.0,0.0,0.0,0.0,0.0,0.0,0.0,0.0,0.0,0.0,0.0,0.0,0.0,0.0,0.0,0.0,0.0,0.0,0.0,0.0,0.0,0.0,0.0,0.0,0.0,1.1393,1.1192,1.1023,1.0693,1.0316,0.0,0.0,0.0,0.0,0.0,0.0,0.0,0.0,0.0,0.0,0.0,0.0,0.0,0.0,0.0,0.0,0.0,0.0,0.0,0.0,0.0,0.0,0.0,0.0,0.0,0.0,0.0,0.0,0.0,0.0,0.0,0.0,0.0,0.0,0.0,0.0,0.0,0.0,0.0,0.0,0.0,0.0,0.0,0.0,0.0,0.0,0.0,0.0,0.0,0.0,0.0,0.0,0.0,0.0,0.0,0.0,0.0,0.0,0.0,0.0,0.0,0.0,0.0,0.0,0.0,0.0,0.0,0.0,0.0,0.0,0.0,0.0,0.0,0.0,0.0,0.0,0.0,0.0,0.0,0.0,0.0,0.0,0.0,0.0,0.0,0.0,0.0,0.0,0.0,0.0,0.0,0.0,0.0,0.0,0.0,0.0,0.0,0.0,0.0,0.0,0.0,0.0,0.0,0.0,0.0,0.0,0.0,0.0,0.0,0.0,0.0,0.0,1.0972,1.0616,1.0187,0.0,0.0,0.0,0.0,0.0,0.0,0.0,0.0,0.0,0.0,0.0,0.0,0.0,0.0,0.0,0.0,0.0,0.0,0.0,0.0,0.0,0.0,0.0,0.0,0.0,0.0,0.0,0.0,0.0,0.0,0.0,0.0,0.0,0.0,0.0,0.0,0.0,0.0,0.0,0.0,0.0,0.0,0.0,0.0,0.0,0.0,0.0,0.0,0.0,0.0,0.0,0.0,0.0,0.0,0.0,0.0,0.0,0.0,0.0,0.0,0.0,0.0,0.0,0.0,0.0,0.0,0.0,0.0,0.0,0.0,0.0,0.0,0.0,0.0,0.0,0.0,0.0,0.0,0.0,0.0,0.0,0.0,0.0,0.0,0.0,0.0,0.0,0.0,0.0,0.0,0.0,0.0,0.0,0.0,0.0,0.0,0.0,0.0,0.0,0.0,0.0,0.0,0.0,0.0,0.0,0.0,0.0,0.0,0.0,0.0,1.1242,1.1124,1.0744,0.0,0.9877,0.0,0.0,0.0,0.0,0.0,0.0,0.0,0.0,0.0,0.0,0.0,0.0,0.0,0.0,0.0,0.0,0.0,0.0,0.0,0.0,0.0,0.0,0.0,0.0,0.0,0.0,0.0,0.0,0.0,0.0,0.0,0.0,0.0,0.0,0.0,0.0,0.0,0.0,0.0,0.0,0.0,0.0,0.0,0.0,0.0,0.0,0.0,0.0,0.0,0.0,0.0,0.0,0.0,0.0,0.0,0.0,0.0,0.0,0.0,0.0,0.0,0.0,0.0,0.0,0.0,0.0,0.0,0.0,0.0,0.0,0.0,0.0,0.0,0.0,0.0,0.0,0.0,0.0,0.0,0.0,0.0,0.0,0.0,0.0,0.0,0.0,0.0,0.0,0.0,0.0,0.0,0.0,0.0,0.0,0.0,0.0,0.0,0.0,0.0,0.0,0.0,0.0,0.0,0.0,0.0,0.0,0.0,0.0,0.0,0.0,1.1116,1.0972,1.0488,1.0051,0.0,0.0,0.0,0.0,0.0,0.0,0.0,0.0,0.0,0.0,0.0,0.0,0.0,0.0,0.0,0.0,0.0,0.0,0.0,0.0,0.0,0.0,0.0,0.0,0.0,0.0,0.0,0.0,0.0,0.0,0.0,0.0,0.0,0.0,0.0,0.0,0.0,0.0,0.0,0.0,0.0,0.0,0.0,0.0,0.0,0.0,0.0,0.0,0.0,0.0,0.0,0.0,0.0,0.0,0.0,0.0,0.0,0.0,0.0,0.0,0.0,0.0,0.0,0.0,0.0,0.0,0.0,0.0,0.0,0.0,0.0,0.0,0.0,0.0,0.0,0.0,0.0,0.0,0.0,0.0,0.0,0.0,0.0,0.0,0.0,0.0,0.0,0.0,0.0,0.0,0.0,0.0,0.0,0.0,0.0,0.0,0.0,0.0,0.0,0.0,0.0,0.0,0.0,0.0,0.0,0.0,0.0,0.0,0.0,0.0,1.1267,1.0913,1.0641,1.0205,0.9895,0.974,0.0,0.0,0.0,0.0,0.0,0.0,0.0,0.0,0.0,0.0,0.0,0.0,0.0,0.0,0.0,0.0,0.0,0.0,0.0,0.0,0.0,0.0,0.0,0.0,0.0,0.0,0.0,0.0,0.0,0.0,0.0,0.0,0.0,0.0,0.0,0.0,0.0,0.0,0.0,0.0,0.0,0.0,0.0,0.0,0.0,0.0,0.0,0.0,0.0,0.0,0.0,0.0,0.0,0.0,0.0,0.0,0.0,0.0,0.0,0.0,0.0,0.0,0.0,0.0,0.0,0.0,0.0,0.0,0.0,0.0,0.0,0.0,0.0,0.0,0.0,0.0,0.0,0.0,0.0,0.0,0.0,0.0,0.0,0.0,0.0,0.0,0.0,0.0,0.0,0.0,0.0,0.0,0.0,0.0,0.0,0.0,0.0,0.0,0.0,0.0,0.0,0.0,0.0,0.0,0.0,0.0,0.0,0.0,1.1669,1.1175,1.0641,1.0084,0.9895,0.974,0.0,0.0,0.0,0.0,0.0,0.0,0.0,0.0,0.0,0.0,0.0,0.0,0.0,0.0,0.0,0.0,0.0,0.0,0.0,0.0,0.0,0.0,0.0,0.0,0.0,0.0,0.0,0.0,0.0,0.0,0.0,0.0,0.0,0.0,0.0,0.0,0.0,0.0,0.0,0.0,0.0,0.0,0.0,0.0,0.0,0.0,0.0,0.0,0.0,0.0,0.0,0.0,0.0,0.0,0.0,0.0,0.0,0.0,0.0,0.0,0.0,0.0,0.0,0.0,0.0,0.0,0.0,0.0,0.0,0.0,0.0,0.0,0.0,0.0,0.0,0.0,0.0,0.0,0.0,0.0,0.0,0.0,0.0,0.0,0.0,0.0,0.0,0.0,0.0,0.0,0.0,0.0,0.0,0.0,0.0,0.0,0.0,0.0,0.0,0.0,0.0,0.0,0.0,0.0,0.0,0.0,0.0,0.0,0.0,1.1452,1.0922,1.0437,1.0017,0.97,0.9487,0.0,0.0,0.0,0.0,0.0,0.0,0.0,0.0,0.0,0.0,0.0,0.0,0.0,0.0,0.0,0.0,0.0,0.0,0.0,0.0,0.0,0.0,0.0,0.0,0.0,0.0,0.0,0.0,0.0,0.0,0.0,0.0,0.0,0.0,0.0,0.0,0.0,0.0,0.0,0.0,0.0,0.0,0.0,0.0,0.0,0.0,0.0,0.0,0.0,0.0,0.0,0.0,0.0,0.0,0.0,0.0,0.0,0.0,0.0,0.0,0.0,0.0,0.0,0.0,0.0,0.0,0.0,0.0,0.0,0.0,0.0,0.0,0.0,0.0,0.0,0.0,0.0,0.0,0.0,0.0,0.0,0.0,0.0,0.0,0.0,0.0,0.0,0.0,0.0,0.0,0.0,0.0,0.0,0.0,0.0,0.0,0.0,0.0,0.0,0.0,0.0,0.0,0.0,0.0,0.0,0.0,0.0,0.0,0.0,1.0839,0.0,1.029,0.994,0.9537,0.9291,0.0,0.0,0.0,0.0,0.0,0.0,0.0,0.0,0.0,0.0,0.0,0.0,0.0,0.0,0.0,0.0,0.0,0.0,0.0,0.0,0.0,0.0,0.0,0.0,0.0,0.0,0.0,0.0,0.0,0.0,0.0,0.0,0.0,0.0,0.0,0.0,0.0,0.0,0.0,0.0,0.0,0.0,0.0,0.0,0.0,0.0,0.0,0.0,0.0,0.0,0.0,0.0,0.0,0.0,0.0,0.0,0.0,0.0,0.0,0.0,0.0,0.0,0.0,0.0,0.0,0.0,0.0,0.0,0.0,0.0,0.0,0.0,0.0,0.0,0.0,0.0,0.0,0.0,0.0,0.0,0.0,0.0,0.0,0.0,0.0,0.0,0.0,0.0,0.0,0.0,0.0,0.0,0.0,0.0,0.0,0.0,0.0,0.0,0.0,0.0,0.0,0.0,0.0,0.0,0.0,0.0,0.0,0.0,1.0447,0.9962,1.0185,1.0159,0.9825,0.9434,0.9207,0.0,0.0,0.0,0.0,0.0,0.0,0.0,0.0,0.0,0.0,0.0,0.0,0.0,0.0,0.0,0.0,0.0,0.0,0.0,0.0,0.0,0.0,0.0,0.0,0.0,0.0,0.0,0.0,0.0,0.0,0.0,0.0,0.0,0.0,0.0,0.0,0.0,0.0,0.0,0.0,0.0,0.0,0.0,0.0,0.0,0.0,0.0,0.0,0.0,0.0,0.0,0.0,0.0,0.0,0.0,0.0,0.0,0.0,0.0,0.0,0.0,0.0,0.0,0.0,0.0,0.0,0.0,0.0,0.0,0.0,0.0,0.0,0.0,0.0,0.0,0.0,0.0,0.0,0.0,0.0,0.0,0.0,0.0,0.0,0.0,0.0,0.0,0.0,0.0,0.0,0.0,0.0,0.0,0.0,0.0,0.0,0.0,0.0,0.0,0.0,0.0,0.0,0.0,0.0,0.0,0.0,0.0,0.0,0.0,1.0444,1.0348,1.0249,1.0126,0.9703,0.938,0.0,0.0,0.0,0.0,0.0,0.0,0.0,0.0,0.0,0.0,0.0,0.0,0.0,0.0,0.0,0.0,0.0,0.0,0.0,0.0,0.0,0.0,0.0,0.0,0.0,0.0,0.0,0.0,0.0,0.0,0.0,0.0,0.0,0.0,0.0,0.0,0.0,0.0,0.0,0.0,0.0,0.0,0.0,0.0,0.0,0.0,0.0,0.0,0.0,0.0,0.0,0.0,0.0,0.0,0.0,0.0,0.0,0.0,0.0,0.0,0.0,0.0,0.0,0.0,0.0,0.0,0.0,0.0,0.0,0.0,0.0,0.0,0.0,0.0,0.0,0.0,0.0,0.0,0.0,0.0,0.0,0.0,0.0,0.0,0.0,0.0,0.0,0.0,0.0,0.0,0.0,0.0,0.0,0.0,0.0,0.0,0.0,0.0,0.0,0.0,0.0,0.0,0.0,0.0,0.0,0.0,0.0,0.0,0.0,1.0814,1.0731,1.0654,1.0598,1.0085,0.9658,0.9343,0.0,0.0,0.0,0.0,0.0,0.0,0.0,0.0,0.0,0.0,0.0,0.0,0.0,0.0,0.0,0.0,0.0,0.0,0.0,0.0,0.0,0.0,0.0,0.0,0.0,0.0,0.0,0.0,0.0,0.0,0.0,0.0,0.0,0.0,0.0,0.0,0.0,0.0,0.0,0.0,0.0,0.0,0.0,0.0,0.0,0.0,0.0,0.0,0.0,0.0,0.0,0.0,0.0,0.0,0.0,0.0,0.0,0.0,0.0,0.0,0.0,0.0,0.0,0.0,0.0,0.0,0.0,0.0,0.0,0.0,0.0,0.0,0.0,0.0,0.0,0.0,0.0,0.0,0.0,0.0,0.0,0.0,0.0,0.0,0.0,0.0,0.0,0.0,0.0,0.0,0.0,0.0,0.0,0.0,0.0,0.0,0.0,0.0,0.0,0.0,0.0,0.0,0.0,0.0,0.0,0.0,0.0,0.0,1.118,1.1323,1.1316,1.1144,1.0499,1.0002,0.0,0.0,0.0,0.0,0.0,0.0,0.0,0.0,0.0,0.0,0.0,0.0,0.0,0.0,0.0,0.0,0.0,0.0,0.0,0.0,0.0,0.0,0.0,0.0,0.0,0.0,0.0,0.0,0.0,0.0,0.0,0.0,0.0,0.0,0.0,0.0,0.0,0.0,0.0,0.0,0.0,0.0,0.0,0.0,0.0,0.0,0.0,0.0,0.0,0.0,0.0,0.0,0.0,0.0,0.0,0.0,0.0,0.0,0.0,0.0,0.0,0.0,0.0,0.0,0.0,0.0,0.0,0.0,0.0,0.0,0.0,0.0,0.0,0.0,0.0,0.0,0.0,0.0,0.0,0.0,0.0,0.0,0.0,0.0,0.0,0.0,0.0,0.0,0.0,0.0,0.0,0.0,0.0,0.0,0.0,0.0,0.0,0.0,0.0,0.0,0.0,0.0,0.0,0.0,0.0,0.0,0.0,0.0,0.0,1.2102,1.2413,1.2303,1.1794,1.1158,1.0696,0.0,0.0,0.0,0.0,0.0,0.0,0.0,0.0,0.0,0.0,0.0,0.0,0.0,0.0,0.0,0.0,0.0,0.0,0.0,0.0,0.0,0.0,0.0,0.0,0.0,0.0,0.0,0.0,0.0,0.0,0.0,0.0,0.0,0.0,0.0,0.0,0.0,0.0,0.0,0.0,0.0,0.0,0.0,0.0,0.0,0.0,0.0,0.0,0.0,0.0,0.0,0.0,0.0,0.0,0.0,0.0,0.0,0.0,0.0,0.0,0.0,0.0,0.0,0.0,0.0,0.0,0.0,0.0,0.0,0.0,0.0,0.0,0.0,0.0,0.0,0.0,0.0,0.0,0.0,0.0,0.0,0.0,0.0,0.0,0.0,0.0,0.0,0.0,0.0,0.0,0.0,0.0,0.0,0.0,0.0,0.0,0.0,0.0,0.0,0.0,0.0,0.0,0.0,0.0,0.0,0.0,0.0,0.0,1.1809,1.2477,1.3033,1.3128,1.2862,1.1963,1.126,0.0,0.0,0.0,0.0,0.0,0.0,0.0,0.0,0.0,0.0,0.0,0.0,0.0,0.0,0.0,0.0,0.0,0.0,0.0,0.0,0.0,0.0,0.0,0.0,0.0,0.0,0.0,0.0,0.0,0.0,0.0,0.0,0.0,0.0,0.0,0.0,0.0,0.0,0.0,0.0,0.0,0.0,0.0,0.0,0.0,0.0,0.0,0.0,0.0,0.0,0.0,0.0,0.0,0.0,0.0,0.0,0.0,0.0,0.0,0.0,0.0,0.0,0.0,0.0,0.0,0.0,0.0,0.0,0.0,0.0,0.0,0.0,0.0,0.0,0.0,0.0,0.0,0.0,0.0,0.0,0.0,0.0,0.0,0.0,0.0,0.0,0.0,0.0,0.0,0.0,0.0,0.0,0.0,0.0,0.0,0.0,0.0,0.0,0.0,0.0,0.0,0.0,0.0,0.0,0.0,0.0,0.0,0.0,1.2174,1.2604,1.3302,1.3762,1.3921,1.2698,1.1748,0.0,0.0,0.0,0.0,0.0,0.0,0.0,0.0,0.0,0.0,0.0,0.0,0.0,0.0,0.0,0.0,0.0,0.0,0.0,0.0,0.0,0.0,0.0,0.0,0.0,0.0,0.0,0.0,0.0,0.0,0.0,0.0,0.0,0.0,0.0,0.0,0.0,0.0,0.0,0.0,0.0,0.0,0.0,0.0,0.0,0.0,0.0,0.0,0.0,0.0,0.0,0.0,0.0,0.0,0.0,0.0,0.0,0.0,0.0,0.0,0.0,0.0,0.0,0.0,0.0,0.0,0.0,0.0,0.0,0.0,0.0,0.0,0.0,0.0,0.0,0.0,0.0,0.0,0.0,0.0,0.0,0.0,0.0,0.0,0.0,0.0,0.0,0.0,0.0,0.0,0.0,0.0,0.0,0.0,0.0,0.0,0.0,0.0,0.0,0.0,0.0,0.0,0.0,0.0,0.0,0.0,0.0,0.0,1.2291,1.3336,1.3363,1.355,1.3829,1.2735,1.1952,0.0,0.0,0.0,0.0,0.0,0.0,0.0,0.0,0.0,0.0,0.0,0.0,0.0,0.0,0.0,0.0,0.0,0.0,0.0,0.0,0.0,0.0,0.0,0.0,0.0,0.0,0.0,0.0,0.0,0.0,0.0,0.0,0.0,0.0,0.0,0.0,0.0,0.0,0.0,0.0,0.0,0.0,0.0,0.0,0.0,0.0,0.0,0.0,0.9022,0.0,0.0,0.0,0.0,0.0,0.0,0.0,0.0,0.0,0.0,0.0,0.0,0.0,0.0,0.0,0.0,0.0,0.0,0.0,0.0,0.0,0.0,0.0,0.0,0.0,0.0,0.0,0.0,0.0,0.0,0.0,0.0,0.0,0.0,0.0,0.0,0.0,0.0,0.0,0.0,0.0,0.0,0.0,0.0,0.0,0.0,0.0,0.0,0.0,0.0,0.0,0.0,0.0,0.0,0.0,0.0,0.0,0.0,0.0,1.2579,1.3433,1.3557,1.3609,1.3586,1.2956,1.2199,0.0,0.0,0.0,0.0,0.0,0.0,0.0,0.0,0.0,0.0,0.0,0.0,0.0,0.0,0.0,0.0,0.0,0.0,0.0,0.0,0.0,0.0,0.0,0.0,0.0,0.0,0.0,0.0,0.0,0.0,0.0,0.0,0.0,0.0,0.0,0.0,0.0,0.0,0.0,0.0,0.0,0.0,0.0,0.0,0.0,0.0,0.0,0.0,0.0,0.0,0.0,0.0,0.0,0.0,0.0,0.0,0.0,0.0,0.0,0.0,0.0,0.0,0.0,0.0,0.0,0.0,0.0,0.0,0.0,0.0,0.0,0.0,0.0,0.0,0.0,0.0,0.0,0.0,0.0,0.0,0.0,0.0,0.0,0.0,0.0,0.0,0.0,0.0,0.0,0.0,0.0,0.0,0.0,0.0,0.0,0.0,0.0,0.0,0.0,0.0,0.0,0.0,0.0,0.0,0.0,0.0,0.0,1.2132,1.2825,1.3328,1.3705,1.3725,1.3376,1.303,1.2291,1.1066,0.0,0.0,0.0,0.0,0.0,0.0,0.0,0.0,0.0,0.0,0.0,0.0,0.0,0.0,0.0,0.0,0.0,0.0,0.0,0.0,0.0,0.0,0.0,0.0,0.0,0.0,0.0,0.0,0.0,0.0,0.0,0.0,0.0,0.0,0.0,0.0,0.0,0.0,0.916,0.8945,0.0,0.0,0.0,0.0,0.0,0.0,0.0,0.0,0.7645,0.0,0.0,0.0,0.0,0.0,0.0,0.0,0.0,0.0,0.0,0.0,0.0,0.0,0.0,0.0,0.0,0.0,0.0,0.0,0.0,0.0,0.0,0.0,0.0,0.0,0.0,0.0,0.0,0.0,0.0,0.0,0.0,0.0,0.0,0.0,0.0,0.0,0.0,0.0,0.0,0.0,0.0,0.0,0.0,0.0,0.0,0.0,0.0,0.0,0.0,0.0,0.0,0.0,0.0,0.0,0.0,1.1264,1.1894,1.2602,1.3439,1.3378,1.3312,1.3198,1.2563,1.1697,1.0769,0.0,0.0,0.0,0.0,0.0,0.0,0.0,0.0,0.0,0.0,0.0,0.0,0.0,0.0,0.0,0.0,0.0,0.0,0.0,0.0,0.0,0.0,0.0,0.0,0.0,0.0,0.0,0.0,0.0,0.0,0.0,0.0,0.0,0.0,0.0,0.0,0.0,0.0,0.0,0.882,0.8703,0.0,0.0,0.0,0.0,0.0,0.0,0.0,0.0,0.7309,0.0,0.0,0.0,0.0,0.0,0.0,0.0,0.0,0.0,0.0,0.0,0.0,0.0,0.0,0.0,0.0,0.0,0.0,0.0,0.0,0.0,0.0,0.0,0.0,0.0,0.0,0.0,0.0,0.0,0.0,0.0,0.0,0.0,0.0,0.0,0.0,0.0,0.0,0.0,0.0,0.0,0.0,0.0,0.0,0.0,0.0,0.0,0.0,0.0,0.0,0.0,0.0,0.0,0.0,0.0,1.0798,1.1352,1.1752,1.1985,1.2035,1.1874,1.1504,1.1357,1.0824,0.0,0.0,0.0,0.0,0.0,0.0,0.0,0.0,0.0,0.0,0.0,0.0,0.0,0.0,0.0,0.0,0.0,0.0,0.0,0.0,0.0,0.0,0.0,0.0,0.0,0.0,0.0,0.0,0.0,0.0,0.0,0.0,0.0,0.0,0.0,0.0,0.0,0.0,0.0,0.0,0.8534,0.8396,0.803,0.0,0.0,0.0,0.0,0.0,0.0,0.7113,0.6987,0.0,0.0,0.0,0.0,0.0,0.0,0.0,0.0,0.0,0.0,0.0,0.0,0.0,0.0,0.0,0.0,0.0,0.0,0.0,0.0,0.0,0.0,0.0,0.0,0.0,0.0,0.0,0.0,0.0,0.0,0.0,0.0,0.0,0.0,0.0,0.0,0.0,0.0,0.0,0.0,0.0,0.0,0.0,0.0,0.0,0.0,0.0,0.0,0.0,0.0,0.0,0.0,0.0,0.0,0.0,1.0128,1.0713,1.0841,1.0565,1.0808,1.063,1.0024,1.026,0.9993,0.0,0.0,0.0,0.0,0.0,0.0,0.0,0.0,0.0,0.0,0.0,0.0,0.0,0.0,0.0,0.0,0.0,0.0,0.0,0.0,0.0,0.0,0.0,0.0,0.0,0.0,0.0,0.0,0.0,0.0,0.0,0.0,0.0,0.0,0.0,0.0,0.0,0.0,0.0,0.0,0.0,0.822,0.7872,0.7561,0.0,0.0,0.0,0.0,0.7232,0.707,0.0,0.0,0.0,0.0,0.0,0.0,0.0,0.0,0.0,0.0,0.0,0.0,0.0,0.0,0.0,0.0,0.0,0.0,0.0,0.0,0.0,0.0,0.0,0.0,0.0,0.0,0.0,0.0,0.0,0.0,0.0,0.0,0.0,0.0,0.0,0.0,0.0,0.0,0.0,0.0,0.0,0.0,0.0,0.0,0.0,0.0,0.0,0.0,0.0,0.0,0.0,0.0,0.0,0.0,0.0,0.0,0.9432,1.0019,1.0317,1.0327,1.0565,1.0509,1.0246,0.9883,0.946,0.0,0.0,0.0,0.0,0.0,0.0,0.0,0.0,0.0,0.0,0.0,0.0,0.0,0.0,0.0,0.0,0.0,0.0,0.0,0.0,0.0,0.0,0.0,0.0,0.0,0.0,0.0,0.0,0.0,0.0,0.0,0.0,0.0,0.0,0.0,0.0,0.0,0.0,0.0,0.0,0.0,0.852,0.835,0.7985,0.7681,0.0,0.0,0.7563,0.749,0.7592,0.0,0.0,0.0,0.0,0.0,0.0,0.0,0.0,0.0,0.0,0.0,0.0,0.0,0.0,0.0,0.0,0.0,0.0,0.0,0.0,0.0,0.0,0.0,0.0,0.0,0.0,0.0,0.0,0.0,0.0,0.0,0.0,0.0,0.0,0.0,0.0,0.0,0.0,0.0,0.0,0.0,0.0,0.0,0.0,0.0,0.0,0.0,0.0,0.0,0.0,0.0,0.0,0.0,0.0,0.0,0.8949,0.8865,0.9238,0.9323,0.9182,0.9123,0.9057,0.8892,0.857,0.829,0.0,0.0,0.0,0.0,0.0,0.0,0.0,0.0,0.0,0.0,0.0,0.0,0.0,0.0,0.0,0.0,0.0,0.0,0.0,0.0,0.0,0.0,0.0,0.0,0.0,0.0,0.0,0.0,0.0,0.0,0.0,0.0,0.0,0.0,0.0,0.0,0.0,0.0,0.0,0.0,0.0,0.0,0.8371,0.8039,0.0,0.0,0.0,0.7905,0.7967,0.0,0.0,0.0,0.0,0.0,0.0,0.0,0.0,0.0,0.0,0.0,0.0,0.0,0.0,0.0,0.0,0.0,0.0,0.0,0.0,0.0,0.0,0.0,0.0,0.0,0.0,0.0,0.0,0.0,0.0,0.0,0.0,0.0,0.0,0.0,0.0,0.0,0.0,0.0,0.0,0.0,0.0,0.0,0.0,0.0,0.0,0.0,0.0,0.0,0.0,0.0,0.0,0.0,0.0,0.0,0.0,0.0,0.8349,0.8527,0.8429,0.8118,0.804,0.791,0.7731,0.7587,0.0,0.0,0.0,0.0,0.0,0.0,0.0,0.0,0.0,0.0,0.0,0.0,0.0,0.0,0.0,0.0,0.0,0.0,0.0,0.0,0.0,0.0,0.0,0.0,0.0,0.0,0.0,0.7983,0.0,0.0,0.0,0.0,0.0,0.0,0.0,0.0,0.0,0.0,0.0,0.0,0.0,0.0,0.8386,0.852,0.8177,0.8061,0.0,0.0,0.8203,0.8337,0.8276,0.8048,0.0,0.0,0.0,0.0,0.0,0.0,0.0,0.0,0.0,0.0,0.0,0.0,0.0,0.0,0.0,0.0,0.0,0.0,0.0,0.0,0.0,0.0,0.0,0.0,0.0,0.0,0.0,0.0,0.0,0.0,0.0,0.0,0.0,0.0,0.0,0.0,0.0,0.0,0.0,0.0,0.0,0.0,0.0,0.0,0.0,0.0,0.0,0.0,0.0,0.0,0.0,0.0,0.0,0.0,0.7843,0.7942,0.8013,0.789,0.7565,0.7845,0.7849,0.7551,0.7493,0.7313,0.0,0.0,0.0,0.0,0.0,0.0,0.0,0.0,0.0,0.0,0.0,0.0,0.0,0.0,0.0,0.0,0.0,0.0,0.0,0.0,0.0,0.0,0.0,0.0,0.0,0.0,0.0,0.0,0.0,0.0,0.0,0.0,0.0,0.0,0.0,0.0,0.0,0.0,0.0,0.0,0.0,0.8643,0.9062,0.8636,0.8381,0.0,0.8641,0.8536,0.8592,0.867,0.8475,0.7622,0.0,0.0,0.0,0.0,0.0,0.0,0.0,0.0,0.0,0.0,0.0,0.0,0.0,0.0,0.0,0.0,0.0,0.0,0.0,0.0,0.0,0.0,0.0,0.0,0.0,0.0,0.0,0.0,0.0,0.0,0.0,0.0,0.0,0.0,0.0,0.0,0.0,0.0,0.0,0.0,0.0,0.0,0.0,0.0,0.0,0.0,0.0,0.0,0.0,0.0,0.0,0.0,0.0,0.7626,0.7901,0.7969,0.8,0.8029,0.8113,0.8065,0.7817,0.761,0.7314,0.0,0.0,0.0,0.0,0.0,0.0,0.0,0.0,0.0,0.0,0.0,0.0,0.0,0.0,0.0,0.0,0.0,0.0,0.0,0.0,0.0,0.0,0.0,0.0,0.0,0.0,0.0,0.0,0.7496,0.741,0.7125,0.0,0.0,0.0,0.0,0.0,0.0,0.0,0.0,0.0,0.0,0.838,0.8699,0.8508,0.0,0.0,0.8405,0.8439,0.8518,0.8463,0.8289,0.7858,0.7665,0.0,0.0,0.0,0.0,0.0,0.0,0.0,0.0,0.0,0.0,0.0,0.0,0.0,0.0,0.0,0.0,0.0,0.0,0.0,0.0,0.0,0.0,0.0,0.0,0.0,0.0,0.0,0.0,0.0,0.0,0.0,0.0,0.0,0.0,0.0,0.0,0.0,0.0,0.0,0.0,0.0,0.0,0.0,0.0,0.0,0.0,0.0,0.0,0.0,0.0,0.0,0.0,0.7405,0.7775,0.7851,0.7928,0.8046,0.8062,0.7964,0.7739,0.7577,0.7276,0.0,0.0,0.0,0.0,0.0,0.0,0.0,0.0,0.0,0.0,0.0,0.0,0.0,0.0,0.0,0.0,0.0,0.0,0.0,0.0,0.0,0.0,0.0,0.0,0.0,0.0,0.0,0.0,0.7232,0.7201,0.6735,0.0,0.0,0.0,0.0,0.0,0.0,0.0,0.0,0.0,0.0,0.8127,0.8388,0.8321,0.8247,0.8184,0.8229,0.826,0.8324,0.8193,0.8025,0.7753,0.0,0.0,0.0,0.0,0.0,0.0,0.0,0.0,0.0,0.0,0.0,0.0,0.0,0.0,0.0,0.0,0.0,0.0,0.0,0.0,0.0,0.0,0.0,0.0,0.0,0.0,0.0,1.0779,0.0,0.0,1.0077,0.0,0.0,0.0,0.0,0.0,0.0,0.0,0.0,0.0,0.0,0.0,0.0,0.0,0.0,0.0,0.0,0.0,0.0,0.0,0.0,0.0,0.0,0.711,0.7495,0.7619,0.762,0.7444,0.7568,0.7495,0.7188,0.7322,0.7157,0.6642,0.0,0.0,0.0,0.0,0.0,0.0,0.0,0.0,0.0,0.0,0.0,0.0,0.0,0.0,0.0,0.0,0.0,0.0,0.0,0.0,0.0,0.0,0.0,0.0,0.0,0.0,0.6886,0.6952,0.6914,0.0,0.0,0.0,0.0,0.0,0.0,0.0,0.0,0.0,0.7417,0.7661,0.7924,0.8137,0.8136,0.8173,0.8353,0.8206,0.8053,0.7938,0.79,0.7731,0.0,0.0,0.0,0.0,0.0,0.0,0.0,0.0,0.0,0.0,0.0,0.0,0.0,0.0,0.0,0.0,0.0,0.0,0.0,0.0,0.0,0.0,0.0,0.0,0.0,0.0,0.0,1.1202,1.1055,0.0,0.0,0.0,0.0,0.0,0.0,0.0,0.0,0.0,0.0,0.0,0.8598,0.8424,0.0,0.0,0.0,0.0,0.0,0.0,0.0,0.0,0.0,0.0,0.0,0.0,0.6878,0.7212,0.7406,0.7514,0.753,0.7698,0.7662,0.7446,0.7424,0.7081,0.6431,0.0,0.0,0.0,0.0,0.0,0.0,0.0,0.0,0.0,0.0,0.0,0.0,0.0,0.0,0.0,0.0,0.0,0.0,0.0,0.0,0.0,0.0,0.0,0.0,0.0,0.6482,0.0,0.0,0.0,0.0,0.0,0.0,0.0,0.0,0.0,0.0,0.7006,0.7167,0.7335,0.7489,0.7654,0.7852,0.7791,0.7738,0.0,0.0,0.0,0.0,0.0,0.0,0.0,0.0,0.0,0.0,0.0,0.0,0.0,0.0,0.366,0.413,0.3969,0.3817,0.3933,0.0,0.0,0.0,0.0,0.0,0.0,0.0,0.0,0.0,0.0,0.0,0.0,0.0,0.0,1.1639,1.1322,1.0969,0.0,0.0,0.0,0.0,0.0,0.0,0.0,0.0,0.8222,0.811,0.7996,0.7807,0.7702,0.7698,0.7442,0.7276,0.0,0.0,0.0,0.0,0.0,0.0,0.0,0.0,0.6701,0.7061,0.723,0.7401,0.7555,0.7621,0.7508,0.735,0.7273,0.6998,0.6611,0.655,0.64,0.0,0.0,0.0,0.0,0.0,0.0,0.0,0.0,0.0,0.0,0.0,0.0,0.0,0.0,0.0,0.0,0.0,0.0,0.0,0.0,0.0,0.0,0.0,0.5768,0.0,0.0,0.0,0.0,0.0,0.0,0.0,0.0,0.0,0.6753,0.6925,0.7076,0.7143,0.7296,0.7402,0.7496,0.0,0.0,0.0,0.0,0.0,0.0,0.0,0.6127,0.5953,0.5697,0.5308,0.455,0.37,0.3054,0.2853,0.0,0.0,0.3286,0.3164,0.3002,0.3003,0.2932,0.2758,0.2273,0.1969,0.1649,0.0,0.0,0.0,0.0,1.197,0.0,0.0,0.0,1.2311,1.2136,0.0,1.1227,0.0,0.0,0.0,0.0,0.8313,0.8319,0.0,0.0,0.7309,0.7188,0.7316,0.7152,0.7148,0.7301,0.6995,0.682,0.682,0.6793,0.0,0.0,0.0,0.0,0.0,0.0,0.6522,0.6995,0.7153,0.731,0.7473,0.7245,0.7038,0.6929,0.6815,0.6816,0.7031,0.6809,0.669,0.6679,0.6057,0.0,0.0,0.0,0.0,0.0,0.0,0.0,0.0,0.0,0.0,0.0,0.0,0.0,0.0,0.0,0.0,0.0,0.0,0.0,0.0,0.4514,0.0,0.0,0.0,0.0,0.0,0.0,0.0,0.0,0.0,0.586,0.6337,0.6815,0.71,0.6893,0.0,0.0,0.0,0.0,0.702,0.6805,0.658,0.6272,0.5976,0.5264,0.4795,0.475,0.0,0.0,0.3559,0.3007,0.2587,0.2499,0.2093,0.1937,0.2529,0.2601,0.2509,0.2289,0.2231,0.2066,0.1675,0.1418,0.1155,1.3147,0.0,0.0,0.0,0.0,1.2851,1.3175,1.3433,1.3186,1.2969,1.2837,1.2005,0.0,0.0,0.0,0.0,0.0,0.0,0.8015,0.7749,0.7572,0.7548,0.7596,0.7376,0.7288,0.7372,0.7132,0.6979,0.6877,0.6868,0.6647,0.6279,0.0,0.0,0.0,0.0,0.6695,0.7108,0.7152,0.7248,0.7561,0.7409,0.7183,0.6893,0.6241,0.5856,0.5803,0.5271,0.489,0.4731,0.4675,0.0,0.0,0.0,0.0,0.0,0.0,0.0,0.0,0.0,0.0,0.0,0.0,0.0,0.0,0.0,0.0,0.0,0.0,0.0,0.514,0.4713,0.4529,0.0,0.0,0.0,0.0,0.0,0.0,0.0,0.0,0.0,0.4998,0.5674,0.6198,0.0,0.0,0.6163,0.6346,0.661,0.6805,0.6762,0.6379,0.0,0.5744,0.4886,0.4115,0.379,0.3235,0.2795,0.2651,0.2089,0.1616,0.1576,0.1282,0.1131,0.1319,0.148,0.1455,0.122,0.119,0.1108,0.0816,0.0681,0.0593,1.4093,1.3491,1.3423,1.3239,1.3014,1.3308,1.3307,1.3124,1.2935,1.2554,1.1985,1.1156,1.0356,0.9488,0.9014,0.0,0.0,0.0,0.7858,0.7636,0.76,0.7626,0.7639,0.7554,0.7508,0.7458,0.737,0.7244,0.7102,0.6997,0.6836,0.6528,0.0,0.6446,0.6648,0.6643,0.6864,0.7347,0.7323,0.7441,0.7675,0.7478,0.7075,0.6409,0.5826,0.5288,0.4838,0.4413,0.4109,0.4046,0.3977,0.3958,0.0,0.0,0.0,0.0,0.0,0.0,0.0,0.0,0.0,0.0,0.0,0.4401,0.4403,0.0,0.0,0.0,0.4059,0.4304,0.415,0.3924,0.0,0.0,0.0,0.0,0.0,0.0,0.0,0.4194,0.3956,0.3746,0.3723,0.4058,0.4692,0.5811,0.5492,0.5338,0.5885,0.0,0.5737,0.5647,0.5324,0.4937,0.4563,0.3781,0.2994,0.2387,0.1969,0.1736,0.1687,0.1354,0.106,0.101,0.0909,0.0758,0.0657,0.0743,0.0781,0.0635,0.0595,0.0551,0.0298,0.0252,0.0205,1.4994,1.4602,1.3982,1.3574,1.3427,1.3748,1.3136,1.1869,1.2164,1.1409,1.0012,0.9495,0.9098,0.8849,0.8406,0.0,0.7713,0.7793,0.7687,0.7424,0.7424,0.7499,0.7631,0.7638,0.7634,0.7638,0.7634,0.7553,0.745,0.7265,0.7078,0.6933,0.6702,0.6661,0.6736,0.6846,0.718,0.7604,0.7614,0.7631,0.7659,0.7359,0.6687,0.5602,0.5406,0.487,0.4086,0.3911,0.3946,0.4055,0.366,0.3491,0.3637,0.0,0.0,0.0,0.0,0.0,0.0,0.0,0.0,0.0,0.0,0.0,0.0,0.0,0.0,0.3049,0.2628,0.0,0.2324,0.2647,0.0,0.0,0.0,0.3411,0.3336,0.327,0.3227,0.3177,0.0,0.0,0.2574,0.23,0.2907,0.5095,0.4677,0.446,0.538,0.4813,0.4222,0.4034,0.3771,0.3442,0.3074,0.2335,0.1683,0.1061,0.081,0.0859,0.0862,0.0811,0.076,0.076,0.076,0.0659,0.0405,0.0405,0.0355,0.0355,0.0359,0.0309,0.0,0.0,0.0,1.5569,1.5171,1.4026,1.3837,1.4292,1.4657,1.4119,1.3046,1.2729,1.2028,1.1071,1.0207,0.934,0.8483,0.7875,0.7601,0.7625,0.7724,0.7828,0.7826,0.7882,0.7853,0.7936,0.7884,0.7884,0.7887,0.7887,0.7855,0.7709,0.7672,0.758,0.7444,0.7366,0.7231,0.7004,0.7187,0.7428,0.776,0.7763,0.7392,0.6591,0.5716,0.5077,0.4626,0.3919,0.3389,0.3158,0.2446,0.2051,0.2104,0.1996,0.2045,0.2355,0.2495,0.0,0.0,0.0,0.0,0.0,0.0,0.0,0.0,0.0,0.3175,0.2972,0.0,0.2378,0.0,0.1859,0.2085,0.3087,0.2659,0.0,0.0,0.2734,0.2813,0.2575,0.2301,0.2084,0.2096,0.1722,0.1457,0.1472,0.143,0.1748,0.2773,0.2785,0.2839,0.3202,0.3392,0.3409,0.3277,0.2971,0.2681,0.2432,0.1698,0.1013,0.0839,0.0772,0.0816,0.0786,0.0625,0.0516,0.0465,0.0313,0.0157,0.0,0.0104,0.0,0.0105,0.0103,0.0102,0.0,0.0,0.0,1.3891,1.3676,1.2978,1.2883,1.3284,1.3352,1.2791,1.1845,1.1536,1.0893,1.004,0.9378,0.8781,0.8195,0.7816,0.7716,0.7797,0.7879,0.7861,0.7842,0.7842,0.7743,0.7637,0.764,0.764,0.7637,0.764,0.7598,0.7521,0.7459,0.7392,0.7318,0.7318,0.7237,0.7085,0.7386,0.7682,0.7909,0.7419,0.6628,0.5588,0.4961,0.4321,0.3788,0.3202,0.2652,0.2182,0.1658,0.1352,0.1353,0.1353,0.1424,0.1642,0.1933,0.2159,0.0,0.0,0.0,0.0,0.0,0.0,0.0,0.0,0.0,0.0,0.0,0.1878,0.1751,0.1453,0.1597,0.2484,0.2095,0.1781,0.1824,0.1915,0.1874,0.1654,0.1424,0.1321,0.1294,0.097,0.078,0.081,0.0673,0.0763,0.1121,0.121,0.1484,0.2179,0.2217,0.2068,0.2092,0.1856,0.1648,0.1509,0.0902,0.0453,0.0465,0.0461,0.0458,0.0415,0.031,0.0205,0.0205,0.0103,0.0,0.0,0.0,0.0,0.0,0.0,0.0,0.0,0.0,0.0,1.1704,1.1709,1.1521,1.146,1.1432,1.1011,1.0462,0.9861,0.9811,0.9258,0.8289,0.8106,0.7985,0.7965,0.7969,0.7909,0.7889,0.7892,0.7793,0.7543,0.7543,0.7441,0.7185,0.7185,0.7185,0.7185,0.7185,0.7185,0.7185,0.7076,0.7021,0.7021,0.7024,0.6973,0.6824,0.7304,0.7557,0.7686,0.6484,0.5429,0.4572,0.4257,0.3708,0.2913,0.2723,0.2204,0.1267,0.1222,0.1222,0.1222,0.1222,0.1223,0.1225,0.1539,0.1663,0.0,0.1939,0.0,0.0,0.0,0.0,0.0,0.0,0.0,0.0,0.1775,0.1552,0.1571,0.1239,0.1124,0.129,0.1343,0.1257,0.1082,0.1082,0.0988,0.0753,0.0742,0.0728,0.0714,0.0468,0.0367,0.036,0.0135,0.0,0.0,0.0,0.0542,0.1514,0.1212,0.0754,0.0712,0.0678,0.0693,0.0504,0.02,0.0,0.0,0.0,0.0,0.0,0.0,0.0,0.0,0.0,0.0,0.0,0.0,0.0,0.0,0.0,0.0,0.0,0.0,0.0,1.2241,1.2178,1.111,1.0682,1.0612,0.9511,0.939,1.0039,1.0039,0.9473,0.8438,0.8154,0.7972,0.7916,0.7607,0.7446,0.7341,0.7338,0.7338,0.7288,0.7288,0.7235,0.7185,0.7185,0.7185,0.7185,0.7185,0.7185,0.7185,0.7161,0.7152,0.7152,0.7152,0.6749,0.5897,0.0,0.0,0.0,0.4171,0.3169,0.3119,0.2059,0.1566,0.1576,0.1336,0.0,0.0846,0.08,0.08,0.08,0.08,0.0,0.0,0.0,0.0,0.0,0.0,0.0,0.0,0.0,0.0,0.0,0.1257,0.1212,0.1352,0.1043,0.085,0.0872,0.0796,0.0812,0.0926,0.0892,0.0901,0.0853,0.0842,0.0738,0.0543,0.0485,0.0381,0.0187,0.0,0.0,0.0,0.0,0.0,0.0,0.0,0.0,0.0,0.0,0.0,0.0,0.0,0.0,0.0103,0.0,0.0,0.0,0.0,0.0,0.0,0.0,0.0,0.0,0.0,0.0,0.0,0.0,0.0,0.0,0.0,0.0,0.0,0.0,0.0,1.068,1.0617,0.9825,0.9515,0.0,0.8625,0.8538,0.9065,0.9147,0.8758,0.8056,0.7759,0.7597,0.7645,0.7423,0.7291,0.7285,0.7219,0.7138,0.6992,0.6992,0.6939,0.6836,0.6786,0.6786,0.6836,0.6836,0.6836,0.6786,0.6786,0.6786,0.6786,0.6836,0.6534,0.5979,0.4926,0.4273,0.4019,0.2968,0.2216,0.1814,0.115,0.0828,0.0973,0.0824,0.0,0.0,0.0,0.0,0.0,0.0,0.0,0.0,0.0712,0.0,0.078,0.0801,0.0844,0.0879,0.0795,0.0802,0.0955,0.0788,0.0738,0.093,0.0688,0.0519,0.0524,0.0433,0.039,0.0397,0.0402,0.0402,0.0399,0.0395,0.0343,0.0242,0.019,0.014,0.0,0.0,0.0,0.0,0.0,0.0,0.0,0.0,0.0,0.0,0.0,0.0,0.0,0.0,0.0,0.0,0.0,0.0,0.0,0.0,0.0,0.0,0.0,0.0,0.0,0.0,0.0,0.0,0.0,0.0,0.0,-0.0105,-0.0212,-0.0162,-0.0108,-0.0054,0.8826,0.8823,0.8543,0.8429,0.8374,0.81,0.7989,0.7928,0.815,0.0,0.0,0.7373,0.7313,0.7367,0.7205,0.7143,0.7193,0.7086,0.6939,0.6742,0.6745,0.6592,0.6387,0.6387,0.6387,0.6387,0.6387,0.6387,0.6387,0.6387,0.6387,0.6387,0.6237,0.5932,0.5429,0.3624,0.2417,0.2015,0.1964,0.1563,0.0757,0.0694,0.0676,0.0651,0.0593,0.0532,0.0512,0.0511,0.051,0.0508,0.051,0.0511,0.0511,0.047,0.0477,0.0488,0.0482,0.0533,0.0561,0.0371,0.0326,0.0577,0.044,0.0389,0.0565,0.0436,0.0345,0.0345,0.0148,0.0,0.0,0.0,0.0,0.0,0.0,0.0,0.0,0.0,0.0,0.0,0.0,0.0,0.0,0.0,0.0,0.0,0.0,-0.009,-0.009,0.0,0.0,0.0,0.0,0.0,0.0,0.0,0.0,0.0,0.0,0.0,0.0,0.0,0.0,0.0,0.0,0.0,0.0,0.0,-0.0099,-0.0153,-0.0309,-0.0466,-0.0476,-0.0268,-0.0218,0.854,0.854,0.8211,0.81,0.81,0.8042,0.7881,0.766,0.7916,0.8005,0.7932,0.7679,0.7439,0.7191,0.6967,0.6749,0.6564,0.6492,0.6487,0.6489,0.6439,0.6437,0.6387,0.6387,0.6387,0.6387,0.6387,0.6387,0.6387,0.6387,0.6387,0.6287,0.5486,0.4128,0.2318,0.1059,0.0404,0.0353,0.0353,0.0404,0.0454,0.0248,0.0194,0.0428,0.0233,0.0091,0.0089,0.0,0.0088,0.0087,0.0088,0.0089,0.0,0.0,0.0093,0.0096,0.0,0.0097,0.0,0.0,0.005,0.01,0.01,0.005,0.01,0.005,0.005,0.0,0.0,0.0,0.0,0.0,0.0,0.0,0.0,0.0,0.0,0.0,0.0,0.0,0.0,0.0,0.0,0.0,-0.0135,-0.0269,-0.0314,-0.0404,-0.0449,-0.0225,0.0,0.0,0.0,0.0,0.0,0.0,0.0,0.0,0.0,0.0,0.0,0.0,0.0,0.0,-0.023,-0.0325,-0.0327,-0.0521,-0.053,-0.0592,-0.0693,-0.0751,-0.0722,-0.0678,-0.0684,0.8211,0.8211,0.7934,0.7771,0.7771,0.7654,0.749,0.7382,0.7487,0.7468,0.7339,0.7113,0.6962,0.6856,0.6684,0.653,0.6532,0.6416,0.6387,0.6387,0.6387,0.6387,0.6387,0.6387,0.6387,0.6387,0.6387,0.6387,0.6387,0.6387,0.6087,0.5486,0.4479,0.3137,0.1687,0.1115,0.0609,0.0,0.0,0.005,0.0151,0.0049,0.0048,0.0194,0.0047,0.0,0.0,0.0,0.0,0.0,0.0,0.0,0.0,0.0,0.0,0.0,0.0,0.0,0.0,0.0,-0.0252,-0.0807,-0.0303,-0.0505,-0.1663,-0.0656,0.0,0.0,0.0,0.0,0.0,0.0,0.0,0.0,0.0,0.0,-0.0182,-0.009,-0.009,-0.0314,-0.0269,-0.0269,-0.0359,-0.0404,-0.0404,-0.0538,-0.0583,-0.0628,-0.0673,-0.0538,-0.0359,0.0,0.0,0.0,-0.0364,-0.0366,-0.0369,-0.0369,-0.0366,-0.0364,-0.0364,-0.0361,-0.0359,-0.0359,-0.0498,-0.0545,-0.0546,-0.0648,-0.0705,-0.0758,-0.0865,-0.0926,-0.0989,-0.11,-0.1175,0.7934,0.7881,0.7604,0.7496,0.7493,0.7268,0.721,0.721,0.721,0.7076,0.6809,0.6728,0.6687,0.6649,0.6484,0.6465,0.6508,0.643,0.6403,0.6475,0.6427,0.6441,0.6462,0.6443,0.6427,0.6472,0.64,0.6284,0.6084,0.6034,0.5384,0.4128,0.3224,0.2284,0.1236,0.1219,0.0813,0.0,0.0,0.0,0.0,0.0,0.0,0.0,0.0,0.0,0.0,0.0,0.0,0.0,0.0,0.0,0.0,0.0,0.0,0.0,0.0,-0.0098,-0.0352,-0.0353,-0.0808,-0.1865,-0.1211,-0.1462,-0.287,-0.1814,-0.0757,-0.0755,0.0,0.0,0.0,0.0,0.0,0.0,-0.0782,-0.1002,-0.1078,-0.0941,-0.0807,-0.1031,-0.0852,-0.0807,-0.0718,-0.0718,-0.0718,-0.0762,-0.0807,-0.0852,-0.0852,-0.0852,-0.0852,-0.0807,-0.0762,-0.0673,-0.0718,-0.0674,-0.0674,-0.0718,-0.0673,-0.0674,-0.0674,-0.0673,-0.0673,-0.0673,-0.0763,-0.0764,-0.0809,-0.0863,-0.0874,-0.0928,-0.108,-0.1187,-0.1197,-0.1362,-0.1541,0.7662,0.7604,0.7324,0.7213,0.7268,0.721,0.721,0.721,0.721,0.7076,0.6831,0.6904,0.6883,0.6777,0.6654,0.6556,0.6425,0.6392,0.6499,0.6594,0.6603,0.666,0.6733,0.6597,0.6603,0.653,0.6335,0.5734,0.4933,0.4885,0.3927,0.2116,0.1765,0.1212,0.0304,0.0152,0.0101,0.0,0.0,0.0,0.0,0.0,0.0,0.0,0.0,0.0,0.0,0.0,0.0,0.0,0.0,0.0,0.0,0.0,0.0,0.0,0.0,-0.0403,-0.1311,-0.1462,-0.1915,-0.2922,-0.2922,-0.3071,-0.3621,-0.342,-0.3171,-0.2961,-0.2819,-0.2595,-0.2735,-0.2746,-0.2731,-0.2669,-0.2901,-0.3264,-0.3172,-0.3303,-0.2948,-0.2059,-0.197,-0.1657,-0.1121,-0.0986,-0.0986,-0.1345,-0.1524,-0.1524,-0.1435,-0.1435,-0.1345,-0.1256,-0.0987,-0.0762,-0.0762,-0.0718,-0.0762,-0.0762,-0.0718,-0.0762,-0.0762,-0.0762,-0.0718,-0.0852,-0.0942,-0.1031,-0.1076,-0.117,-0.1314,-0.1284,-0.1343,-0.1445,-0.1473,-0.1496,-0.1573,0.7379,0.7324,0.7268,0.721,0.721,0.721,0.721,0.721,0.721,0.7152,0.7016,0.6994,0.6877,0.67,0.6714,0.67,0.6654,0.6654,0.6679,0.6725,0.6728,0.6717,0.6635,0.5967,0.5607,0.5447,0.4694,0.4074,0.3574,0.2819,0.1964,0.1159,0.0504,-0.005,-0.0455,-0.0455,-0.0455,-0.0455,-0.0455,-0.0455,-0.0403,-0.0149,0.0,0.0,0.0,0.0,0.0,0.0,0.0,0.0,0.0,-0.005,-0.025,-0.0854,-0.126,-0.1411,-0.2013,-0.2565,-0.2966,-0.3016,-0.3469,-0.4574,-0.4021,-0.4219,-0.5527,-0.5175,-0.4955,-0.525,-0.4322,-0.3556,-0.351,-0.3515,-0.3531,-0.349,-0.3544,-0.3659,-0.3749,-0.3703,-0.3482,-0.3396,-0.3261,-0.3129,-0.2906,-0.2818,-0.2862,-0.2996,-0.3041,-0.2908,-0.2419,-0.2286,-0.2017,-0.1524,-0.1211,-0.1122,-0.1121,-0.1122,-0.1121,-0.1076,-0.1121,-0.1122,-0.1076,-0.1122,-0.1122,-0.1076,-0.1166,-0.1256,-0.1256,-0.1301,-0.1396,-0.1455,-0.1454,-0.1459,-0.1425,-0.1497,-0.1519,0.721,0.721,0.721,0.721,0.721,0.721,0.721,0.721,0.721,0.7191,0.7158,0.7106,0.6918,0.6747,0.6782,0.6804,0.6804,0.6804,0.6804,0.6748,0.6537,0.6295,0.5979,0.4979,0.4336,0.4058,0.3195,0.2567,0.2166,0.1008,0.0353,0.0252,-0.0404,-0.0808,-0.0808,-0.0808,-0.0808,-0.0808,-0.0808,-0.0808,-0.0756,-0.0448,-0.0199,-0.0201,-0.0248,-0.0248,-0.0202,-0.0202,-0.0353,0.0,-0.0656,-0.0857,-0.1411,-0.2114,-0.2614,-0.2867,-0.3566,-0.4117,-0.4416,-0.4468,-0.492,-0.5824,-0.527,-0.5522,-0.6778,-0.655,-0.6446,-0.6915,-0.5838,-0.4951,-0.4575,-0.4623,-0.4583,-0.4516,-0.4505,-0.4639,-0.4821,-0.4639,-0.4641,-0.4645,-0.451,-0.4376,-0.4378,-0.4289,-0.4245,-0.4378,-0.4421,-0.4334,-0.3667,-0.3491,-0.3221,-0.2506,-0.2418,-0.2105,-0.1614,-0.1346,-0.1391,-0.1391,-0.1391,-0.1346,-0.1391,-0.1391,-0.1391,-0.1256,-0.1346,-0.1391,-0.1346,-0.1391,-0.1391,-0.1391,-0.1391,-0.1392,-0.1398,-0.1463,-0.1487,0.721,0.721,0.721,0.721,0.721,0.721,0.721,0.721,0.721,0.7152,0.7029,0.7039,0.7076,0.6894,0.6685,0.6751,0.6756,0.6714,0.6664,0.6502,0.5691,0.5089,0.4716,0.3629,0.2888,0.2669,0.2312,0.1712,0.0857,-0.0151,-0.0707,-0.0757,-0.0808,-0.0808,-0.0859,-0.0859,-0.0808,-0.0859,-0.0859,-0.0808,-0.0808,-0.0807,-0.0755,-0.0857,-0.0744,-0.0744,-0.0806,-0.0758,-0.1211,-0.2266,-0.2266,-0.2716,-0.3667,-0.3865,-0.3966,-0.4016,-0.4067,-0.4518,-0.5422,-0.5572,-0.5974,-0.6883,-0.6933,-0.7138,-0.7487,-0.7331,-0.7346,-0.7711,-0.7343,-0.6932,-0.6428,-0.6283,-0.6427,-0.6485,-0.6697,-0.6738,-0.6827,-0.6602,-0.6473,-0.5897,-0.5672,-0.5492,-0.4825,-0.4603,-0.4914,-0.509,-0.5043,-0.4999,-0.491,-0.4865,-0.4732,-0.4643,-0.4421,-0.4063,-0.206,-0.1972,-0.1837,-0.1882,-0.2194,-0.1659,-0.148,-0.1391,-0.148,-0.1436,-0.1436,-0.1436,-0.1391,-0.1391,-0.1391,-0.1391,-0.1391,-0.1391,-0.1391,-0.146,-0.148,0.721,0.721,0.721,0.721,0.721,0.721,0.721,0.721,0.721,0.7188,0.6979,0.6399,0.6032,0.594,0.4923,0.5,0.587,0.5877,0.5381,0.4496,0.4072,0.3684,0.3199,0.2208,0.1613,0.131,0.0512,-0.0202,-0.0707,-0.1162,-0.1313,-0.1313,-0.1313,-0.1313,-0.1313,-0.1313,-0.1313,-0.1313,-0.1313,-0.1313,-0.1312,-0.1298,-0.1645,-0.2216,-0.1304,-0.1153,-0.1814,-0.1813,-0.2316,-0.3367,-0.3417,-0.3667,-0.4268,-0.5072,-0.5877,-0.6476,-0.6575,-0.6728,-0.7083,-0.7129,-0.7285,-0.7637,-0.769,-0.7739,-0.7816,-0.7756,-0.7681,-0.7628,-0.7539,-0.7295,-0.705,-0.7078,-0.7117,-0.703,-0.7054,-0.7139,-0.7095,-0.7095,-0.701,-0.6925,-0.6962,-0.6962,-0.6694,-0.6694,-0.6738,-0.6827,-0.6827,-0.6555,-0.6062,-0.5883,-0.5753,-0.5176,-0.4999,-0.4732,-0.4063,-0.3753,-0.3753,-0.3753,-0.3753,-0.3444,-0.3178,-0.2685,-0.264,-0.224,-0.2017,-0.1793,-0.1883,-0.1793,-0.1704,-0.157,-0.1525,-0.1614,-0.1391,-0.1542,-0.1556,0.721,0.721,0.721,0.721,0.721,0.721,0.721,0.7154,0.6821,0.6634,0.6368,0.5259,0.4675,0.4536,0.3577,0.3331,0.401,0.4342,0.3947,0.2998,0.264,0.2251,0.1707,0.078,0.0155,-0.0104,-0.0925,-0.1475,-0.1567,-0.1566,-0.1566,-0.1566,-0.1566,-0.1566,-0.1566,-0.1566,-0.1566,-0.1566,-0.1566,-0.1717,-0.2066,-0.2094,-0.2637,-0.3366,-0.262,-0.2417,-0.3169,-0.3169,-0.367,-0.462,-0.477,-0.502,-0.5575,-0.6431,-0.7238,-0.7889,-0.7988,-0.7988,-0.7988,-0.7988,-0.7988,-0.7988,-0.7988,-0.7988,-0.7978,-0.7903,-0.7801,-0.7681,-0.764,-0.7517,-0.7416,-0.7458,-0.7479,-0.7296,-0.7231,-0.7275,-0.7319,-0.7363,-0.7455,-0.7544,-0.7676,-0.7852,-0.7984,-0.794,-0.7988,-0.812,-0.812,-0.7801,-0.7265,-0.7085,-0.6953,-0.6331,-0.6331,-0.6375,-0.6154,-0.611,-0.5132,-0.4952,-0.4863,-0.4734,-0.4559,-0.4065,-0.3619,-0.3176,-0.2776,-0.2508,-0.233,-0.2195,-0.2062,-0.1928,-0.1973,-0.2106,-0.1928,-0.1705,-0.1765,0.721,0.721,0.721,0.721,0.721,0.721,0.721,0.6874,0.5929,0.5435,0.5144,0.3813,0.3178,0.3085,0.2589,0.2067,0.1486,0.2177,0.2482,0.2194,0.1404,0.078,0.0365,-0.0562,-0.113,-0.1424,-0.1618,-0.1644,-0.1568,-0.1566,-0.1566,-0.1566,-0.1566,-0.1566,-0.1566,-0.1566,-0.1617,-0.1717,-0.1818,-0.222,-0.3073,-0.3267,-0.3815,-0.4724,-0.4724,-0.4772,-0.4872,-0.4824,-0.5227,-0.6184,-0.6334,-0.6886,-0.7537,-0.7839,-0.7939,-0.7988,-0.7988,-0.7988,-0.8038,-0.8038,-0.8088,-0.8088,-0.8038,-0.8088,-0.81,-0.8021,-0.7936,-0.7934,-0.7887,-0.786,-0.786,-0.7871,-0.7782,-0.7551,-0.7503,-0.7591,-0.7768,-0.79,-0.79,-0.79,-0.794,-0.8032,-0.816,-0.8204,-0.8296,-0.8432,-0.8524,-0.8476,-0.8296,-0.8208,-0.8432,-0.8388,-0.7984,-0.7672,-0.812,-0.8392,-0.7,-0.5885,-0.5708,-0.5575,-0.5489,-0.5129,-0.4863,-0.4465,-0.4109,-0.3842,-0.3489,-0.3355,-0.3089,-0.291,-0.2867,-0.2643,-0.2376,-0.2153,-0.2199,0.721,0.721,0.721,0.721,0.721,0.721,0.6652,0.5646,0.52,0.4486,0.3433,0.2153,0.1644,0.1409,0.0567,-0.0154,-0.0462,-0.0257,-0.0155,-0.0105,-0.0365,-0.0678,-0.0995,-0.1332,-0.1524,-0.1641,-0.1635,-0.1626,-0.1619,-0.1566,-0.1566,-0.1566,-0.1617,-0.1566,-0.1667,-0.1617,-0.1919,-0.2622,-0.2871,-0.3522,-0.4475,-0.4776,-0.5375,-0.6321,-0.647,-0.6772,-0.7425,-0.6478,-0.6484,-0.7437,-0.749,-0.7686,-0.7939,-0.7988,-0.7988,-0.8038,-0.8187,-0.8287,-0.8287,-0.8432,-0.8531,-0.8528,-0.8528,-0.8581,-0.8548,-0.8343,-0.8211,-0.8174,-0.8005,-0.79,-0.79,-0.79,-0.7852,-0.7768,-0.7768,-0.7812,-0.7944,-0.8028,-0.8113,-0.8113,-0.8248,-0.8384,-0.8476,-0.852,-0.8564,-0.8656,-0.8656,-0.8656,-0.8656,-0.87,-0.8616,-0.8616,-0.8616,-0.8744,-0.8832,-0.8872,-0.8157,-0.7265,-0.6953,-0.6643,-0.6508,-0.6375,-0.6062,-0.5841,-0.5484,-0.5174,-0.4779,-0.4467,-0.4247,-0.3714,-0.3403,-0.309,-0.2777,-0.2689,-0.269,0.721,0.721,0.721,0.6848,0.6426,0.6368,0.5516,0.4171,0.3621,0.2933,0.1924,0.0688,0.0156,-0.0051,-0.0913,-0.1314,-0.1364,-0.1516,-0.1534,-0.1405,-0.1396,-0.1449,-0.1615,-0.1585,-0.1566,-0.1566,-0.1566,-0.1566,-0.1566,-0.1566,-0.1566,-0.1617,-0.1969,-0.2221,-0.227,-0.2723,-0.3325,-0.3925,-0.4223,-0.4872,-0.5727,-0.6124,-0.6722,-0.7621,-0.7773,-0.8124,-0.8673,-0.7779,-0.7584,-0.8184,-0.8283,-0.8283,-0.8283,-0.8283,-0.8287,-0.8336,-0.8432,-0.8577,-0.8577,-0.8676,-0.8775,-0.8775,-0.8775,-0.8742,-0.8721,-0.8567,-0.8564,-0.84,-0.8333,-0.8209,-0.8253,-0.8191,-0.8168,-0.8164,-0.8076,-0.8072,-0.812,-0.8252,-0.8468,-0.86,-0.878,-0.8911,-0.9087,-0.913,-0.913,-0.9135,-0.913,-0.913,-0.913,-0.913,-0.9087,-0.9091,-0.9218,-0.9262,-0.9174,-0.913,-0.9087,-0.8692,-0.838,-0.8025,-0.7713,-0.758,-0.7356,-0.7221,-0.6953,-0.6684,-0.6334,-0.5933,-0.5578,-0.487,-0.4204,-0.3983,-0.3849,-0.3315,-0.3183,0.7154,0.7154,0.7099,0.6203,0.5079,0.4912,0.4003,0.261,0.1597,0.1056,0.052,-0.052,-0.1133,-0.1217,-0.1415,-0.1566,-0.1566,-0.1566,-0.1568,-0.1572,-0.157,-0.1574,-0.1574,-0.1569,-0.1566,-0.1566,-0.1566,-0.1667,-0.1869,-0.1869,-0.1717,-0.217,-0.2975,-0.3324,-0.3574,-0.4578,-0.5079,-0.5277,-0.5575,-0.6224,-0.7223,-0.7372,-0.7773,-0.8772,-0.8772,-0.8825,-0.8874,-0.8775,-0.8726,-0.8825,-0.873,-0.8726,-0.8775,-0.8775,-0.8726,-0.8726,-0.8775,-0.8829,-0.8829,-0.8928,-0.8924,-0.8924,-0.892,-0.8818,-0.8807,-0.8935,-0.8934,-0.8808,-0.8808,-0.8869,-0.8829,-0.8853,-0.881,-0.8677,-0.8444,-0.8384,-0.8608,-0.8656,-0.8867,-0.9213,-0.9349,-0.948,-0.982,-0.9864,-0.9864,-0.9864,-0.9864,-0.982,-0.982,-0.9777,-0.9951,-0.9907,-0.9738,-0.9694,-0.9563,-0.9563,-0.9519,-0.9393,-0.913,-0.8823,-0.8516,-0.834,-0.8252,-0.8208,-0.8116,-0.7937,-0.7625,-0.7088,-0.6691,-0.6204,-0.5672,-0.5319,-0.4743,-0.4208,-0.3808,0.6932,0.6485,0.5813,0.5038,0.4259,0.3598,0.248,0.1169,0.0796,0.0,-0.0884,-0.1402,-0.1541,-0.1517,-0.1566,-0.1566,-0.1566,-0.1566,-0.1566,-0.1566,-0.1566,-0.1566,-0.1566,-0.1617,-0.1617,-0.1667,-0.1818,-0.2019,-0.2722,-0.2772,-0.3274,-0.4228,-0.4427,-0.4776,-0.5074,-0.5375,-0.5924,-0.6573,-0.6918,-0.7571,-0.8478,-0.8829,-0.9076,-0.9324,-0.9377,-0.9377,-0.9373,-0.9373,-0.9175,-0.8825,-0.8775,-0.8775,-0.8825,-0.8825,-0.8825,-0.8874,-0.9031,-0.9084,-0.913,-0.9278,-0.9377,-0.9377,-0.9377,-0.9357,-0.9367,-0.9336,-0.9296,-0.9254,-0.9452,-0.9518,-0.9464,-0.9749,-0.9958,-0.9786,-0.9076,-0.8692,-0.9003,-0.913,-0.9305,-0.9694,-0.983,-0.9926,-1.0038,-1.0081,-1.0081,-1.0081,-1.0081,-1.0081,-1.0168,-1.0168,-1.0212,-1.0081,-0.9951,-0.9951,-0.9951,-0.9951,-0.9951,-0.9864,-0.965,-0.9349,-0.8955,-0.856,-0.852,-0.8524,-0.8388,-0.8252,-0.8116,-0.776,-0.7536,-0.7228,-0.665,-0.603,-0.55,-0.4968,-0.461,0.6035,0.559,0.4472,0.3419,0.2592,0.1995,0.0958,-0.0209,-0.0416,-0.0829,-0.1543,-0.1643,-0.1633,-0.1618,-0.1566,-0.1566,-0.1566,-0.1566,-0.1566,-0.1667,-0.207,-0.2019,-0.1818,-0.1969,-0.2271,-0.2371,-0.2722,-0.3272,-0.3825,-0.3976,-0.4528,-0.5129,-0.5777,-0.6124,-0.6271,-0.6921,-0.7375,-0.7978,-0.8322,-0.8772,-0.9331,-0.9529,-0.9579,-0.9624,-0.9624,-0.9624,-0.9624,-0.9624,-0.9426,-0.9225,-0.9126,-0.9126,-0.913,-0.9126,-0.9126,-0.9126,-0.9278,-0.9381,-0.9381,-0.9529,-0.9677,-0.9871,-0.992,-1.0021,-1.0108,-1.014,-1.0132,-1.0105,-1.0245,-1.023,-1.0168,-1.0393,-1.0431,-1.0199,-0.9637,-0.931,-0.9568,-0.9689,-0.9895,-1.0178,-1.0372,-1.0479,-1.0541,-1.0521,-1.0516,-1.0564,-1.0651,-1.0608,-1.0608,-1.0564,-1.0521,-1.0434,-1.0434,-1.0521,-1.0564,-1.0564,-1.0381,-1.0299,-1.0086,-0.9825,-0.9519,-0.9043,-0.8915,-0.8876,-0.8744,-0.8568,-0.8432,-0.8296,-0.8164,-0.7764,-0.7228,-0.6827,-0.6343,-0.5855,-0.5455,0.4752,0.4472,0.3069,0.1697,0.0586,0.0318,-0.0365,-0.1371,-0.147,-0.152,-0.162,-0.1567,-0.162,-0.1566,-0.1566,-0.1566,-0.1617,-0.1818,-0.2019,-0.2371,-0.2873,-0.2973,-0.2472,-0.3024,-0.3324,-0.3473,-0.4373,-0.4774,-0.5024,-0.5229,-0.5532,-0.6129,-0.7027,-0.7372,-0.767,-0.8524,-0.9133,-0.913,-0.9225,-0.9373,-0.9525,-0.9579,-0.9628,-0.9624,-0.9624,-0.9624,-0.9624,-0.9624,-0.9575,-0.9624,-0.9624,-0.9579,-0.9579,-0.9575,-0.9575,-0.9579,-0.9579,-0.9579,-0.9677,-0.9776,-0.9969,-1.0364,-1.0458,-1.0587,-1.083,-1.0935,-1.0953,-1.077,-1.0958,-1.1129,-1.1303,-1.092,-1.0935,-1.1005,-1.0691,-1.0231,-1.0294,-1.0312,-1.0416,-1.0668,-1.0947,-1.1087,-1.1217,-1.1311,-1.1267,-1.0959,-1.1003,-1.1003,-1.0959,-1.0959,-1.1003,-1.1046,-1.1089,-1.1181,-1.1224,-1.1181,-1.0954,-1.0776,-1.0521,-1.0304,-1.0173,-0.9825,-0.9524,-0.9305,-0.9262,-0.9047,-0.8784,-0.8652,-0.8608,-0.8344,-0.7852,-0.7625,-0.7356,-0.6782,-0.6337,0.397,0.2403,0.1378,0.0542,-0.0266,-0.0944,-0.1341,-0.1567,-0.1566,-0.1566,-0.1566,-0.1566,-0.1617,-0.1617,-0.1717,-0.1566,-0.1868,-0.2521,-0.3274,-0.4124,-0.4273,-0.4373,-0.4124,-0.4475,-0.4475,-0.4574,-0.4674,-0.5375,-0.6126,-0.6528,-0.708,-0.818,-0.828,-0.8832,-0.9076,-0.9225,-0.9529,-0.9529,-0.9575,-0.9624,-0.9624,-0.9624,-0.9624,-0.9624,-0.9624,-0.9624,-0.9624,-0.9624,-0.9624,-0.9624,-0.9673,-0.9772,-0.9673,-0.9673,-0.9673,-0.9727,-0.9673,-0.9821,-1.0117,-1.0265,-1.0458,-1.0949,-1.1047,-1.1028,-1.1098,-1.1297,-1.1272,-1.1225,-1.1516,-1.2261,-1.2879,-1.2283,-1.2396,-1.2837,-1.2215,-1.1632,-1.2042,-1.1331,-1.0885,-1.1201,-1.1286,-1.1234,-1.1321,-1.1311,-1.1311,-1.1311,-1.1311,-1.1311,-1.1354,-1.1397,-1.1602,-1.1774,-1.1983,-1.2063,-1.1897,-1.1817,-1.1472,-1.1208,-1.0997,-1.0786,-1.0656,-1.0434,-1.0086,-0.9912,-0.982,-0.9519,-0.9174,-0.9043,-0.8999,-0.8736,-0.8476,-0.8116,-0.776,-0.7401,-0.7044,0.22,0.1092,-0.0054,-0.0695,-0.1052,-0.1512,-0.1645,-0.162,-0.1566,-0.1566,-0.1566,-0.1566,-0.1869,-0.232,-0.2371,-0.2572,-0.3123,-0.3674,-0.4526,-0.5329,-0.5579,-0.5927,-0.6476,-0.6426,-0.6326,-0.5974,-0.6473,-0.7123,-0.7624,-0.7879,-0.8333,-0.9133,-0.9335,-0.9381,-0.9579,-0.9624,-0.9628,-0.9579,-0.9624,-0.9624,-0.9624,-0.9624,-0.9624,-0.9624,-0.9624,-0.9624,-0.9624,-0.9624,-0.9624,-0.9772,-1.0207,-1.0355,-1.0015,-0.9969,-1.0068,-1.0314,-1.0364,-1.0458,-1.0703,-1.0806,-1.0998,-1.1536,-1.1585,-1.1975,-1.2262,-1.2457,-1.2694,-1.2985,-1.3366,-1.38,-1.431,-1.3901,-1.3994,-1.4142,-1.3674,-1.3093,-1.2987,-1.1982,-1.1229,-1.1606,-1.1557,-1.1521,-1.1494,-1.1618,-1.1693,-1.1823,-1.1823,-1.1823,-1.1946,-1.2032,-1.24,-1.265,-1.2942,-1.2984,-1.2693,-1.2406,-1.1983,-1.1725,-1.1424,-1.1219,-1.1046,-1.0824,-1.0603,-1.0429,-1.0212,-0.9951,-0.965,-0.9519,-0.9345,-0.9087,-0.8784,-0.8472,-0.8204,-0.8065,-0.7665,0.0377,0.0053,-0.1167,-0.1684,-0.1715,-0.1657,-0.164,-0.1619,-0.1566,-0.1566,-0.1667,-0.1718,-0.2421,-0.3024,-0.3374,-0.4024,-0.4776,-0.5077,-0.5629,-0.6534,-0.6734,-0.7232,-0.7882,-0.8081,-0.7928,-0.7332,-0.7975,-0.8574,-0.8779,-0.9084,-0.9034,-0.9282,-0.9484,-0.9579,-0.9628,-0.9624,-0.9624,-0.9624,-0.9624,-0.9624,-0.9624,-0.9624,-0.9624,-0.9624,-1.0015,-1.0113,-1.0207,-1.0306,-1.0404,-1.0256,-1.1272,-1.1468,-1.1184,-1.0748,-1.0846,-1.134,-1.1194,-1.1385,-1.177,-1.1727,-1.178,-1.2219,-1.2506,-1.2845,-1.357,-1.3859,-1.419,-1.4573,-1.486,-1.4908,-1.5181,-1.4895,-1.4953,-1.5173,-1.4949,-1.4398,-1.3849,-1.2923,-1.2447,-1.1721,-1.1806,-1.1799,-1.1991,-1.2198,-1.224,-1.2332,-1.2332,-1.2418,-1.2625,-1.2875,-1.3281,-1.3487,-1.374,-1.3824,-1.3571,-1.3408,-1.2948,-1.24,-1.2063,-1.1768,-1.1521,-1.1132,-1.0911,-1.0776,-1.0559,-1.0299,-1.0125,-0.9951,-0.9738,-0.9437,-0.9205,-0.8973,-0.8846,-0.8723,-0.8261,-0.0213,-0.1382,-0.1626,-0.1718,-0.171,-0.1635,-0.1623,-0.1618,-0.1566,-0.1617,-0.1768,-0.2522,-0.2973,-0.3473,-0.4223,-0.5125,-0.5932,-0.6182,-0.6684,-0.7537,-0.7786,-0.8233,-0.8432,-0.8783,-0.8882,-0.8832,-0.8928,-0.8977,-0.9084,-0.9187,-0.9335,-0.948,-0.9579,-0.9628,-0.9624,-0.9624,-0.9624,-0.9673,-0.9723,-0.9772,-0.9772,-0.9871,-0.9969,-1.0064,-1.0788,-1.1175,-1.1512,-1.2231,-1.2861,-1.2861,-1.3049,-1.3295,-1.321,-1.2533,-1.2247,-1.2155,-1.1873,-1.2209,-1.3216,-1.3119,-1.3125,-1.3565,-1.3998,-1.4094,-1.4244,-1.4532,-1.5051,-1.5242,-1.5384,-1.5432,-1.5954,-1.596,-1.639,-1.6779,-1.6607,-1.6116,-1.6243,-1.5421,-1.3893,-1.2798,-1.2458,-1.2322,-1.2778,-1.316,-1.333,-1.3584,-1.3753,-1.3795,-1.3915,-1.4126,-1.4413,-1.449,-1.449,-1.4531,-1.4448,-1.4364,-1.407,-1.3353,-1.2893,-1.24,-1.2063,-1.1478,-1.1176,-1.1214,-1.1079,-1.0862,-1.0646,-1.0381,-1.0164,-0.9864,-0.971,-0.9548,-0.9234,-0.8931,-0.8695,-0.1045,-0.1658,-0.1644,-0.1639,-0.1637,-0.1624,-0.1566,-0.1566,-0.1617,-0.1919,-0.2421,-0.3022,-0.3877,-0.4728,-0.5329,-0.6232,-0.6986,-0.7238,-0.7633,-0.8184,-0.8333,-0.8581,-0.8783,-0.9088,-0.9282,-0.9331,-0.9278,-0.9278,-0.9381,-0.9381,-0.948,-0.9579,-0.9624,-0.9624,-0.9624,-0.9624,-0.9624,-0.9723,-1.0109,-1.0449,-1.0502,-1.0841,-1.1179,-1.157,-1.1955,-1.2387,-1.2668,-1.3049,-1.3482,-1.3578,-1.4106,-1.4351,-1.4358,-1.4358,-1.4124,-1.374,-1.336,-1.3511,-1.4513,-1.4322,-1.428,-1.4478,-1.4962,-1.5153,-1.5146,-1.548,-1.5954,-1.6426,-1.6662,-1.6904,-1.7512,-1.7358,-1.7746,-1.8149,-1.785,-1.7583,-1.7371,-1.69,-1.5711,-1.4286,-1.4024,-1.4005,-1.4026,-1.4336,-1.4538,-1.4789,-1.5047,-1.5171,-1.5206,-1.5413,-1.5621,-1.5696,-1.5696,-1.5827,-1.5703,-1.5448,-1.5157,-1.4441,-1.3895,-1.3402,-1.2863,-1.24,-1.2069,-1.194,-1.1725,-1.1343,-1.1041,-1.0733,-1.0516,-1.0318,-0.9971,-0.9681,-0.9389,-0.9128,-0.8886,-0.1639,-0.1566,-0.1566,-0.1566,-0.1566,-0.1566,-0.1768,-0.1869,-0.1969,-0.2572,-0.3473,-0.3875,-0.488,-0.6084,-0.6686,-0.7188,-0.7988,-0.7939,-0.8084,-0.8333,-0.8482,-0.873,-0.9088,-0.9286,-0.9381,-0.9529,-0.9579,-0.9624,-0.9579,-0.9579,-0.9579,-0.9624,-0.9624,-0.9772,-0.9916,-1.0109,-0.9965,-1.0453,-1.0984,-1.1463,-1.1755,-1.2339,-1.292,-1.3264,-1.3403,-1.3686,-1.3866,-1.4393,-1.4536,-1.4781,-1.5162,-1.5548,-1.5229,-1.5852,-1.6096,-1.5622,-1.5289,-1.5242,-1.5527,-1.5337,-1.5242,-1.5337,-1.5486,-1.5859,-1.6237,-1.6608,-1.7178,-1.7986,-1.8179,-1.8226,-1.8496,-1.8819,-1.8874,-1.8958,-1.8988,-1.8862,-1.8419,-1.8032,-1.7822,-1.6792,-1.6011,-1.5643,-1.5648,-1.5455,-1.5662,-1.6124,-1.6419,-1.6378,-1.6453,-1.6665,-1.6829,-1.6952,-1.7033,-1.7212,-1.7041,-1.6583,-1.6157,-1.5523,-1.5108,-1.4692,-1.407,-1.3493,-1.3118,-1.2656,-1.2069,-1.1682,-1.1386,-1.1084,-1.0911,-1.0628,-1.0179,-0.9882,-0.9665,-0.9423,-0.917,-0.162,-0.1566,-0.1566,-0.1566,-0.1566,-0.1566,-0.217,-0.2923,-0.2923,-0.3623,-0.4676,-0.5532,-0.6034,-0.6587,-0.7388,-0.7839,-0.7988,-0.8038,-0.8184,-0.8432,-0.868,-0.8931,-0.9236,-0.948,-0.9529,-0.9624,-0.9624,-0.9624,-0.9723,-0.9723,-0.9677,-0.9727,-0.9887,-1.0072,-1.1025,-1.1075,-1.1468,-1.2155,-1.2446,-1.2678,-1.2926,-1.3167,-1.3355,-1.3824,-1.4495,-1.5121,-1.5305,-1.588,-1.6466,-1.6608,-1.6803,-1.699,-1.699,-1.7037,-1.7138,-1.6662,-1.6096,-1.5669,-1.652,-1.6379,-1.6048,-1.619,-1.652,-1.685,-1.7084,-1.7738,-1.8311,-1.8589,-1.8735,-1.8827,-1.9012,-1.9279,-1.9417,-1.96,-1.9737,-1.9866,-1.9686,-1.9044,-1.8881,-1.8769,-1.7877,-1.7469,-1.7276,-1.6935,-1.6788,-1.7294,-1.7676,-1.7563,-1.7497,-1.7538,-1.7578,-1.7578,-1.757,-1.7708,-1.7749,-1.7375,-1.7074,-1.6486,-1.6239,-1.5902,-1.5323,-1.4664,-1.3776,-1.3275,-1.2693,-1.2069,-1.1645,-1.1386,-1.1257,-1.1005,-1.0656,-1.033,-1.0039,-0.9765,-0.9452,-0.1566,-0.1566,-0.1566,-0.1566,-0.1566,-0.1566,-0.2221,-0.3074,-0.3225,-0.4176,-0.5529,-0.6132,-0.6689,-0.7285,-0.7839,-0.7988,-0.8038,-0.8137,-0.8382,-0.863,-0.8882,-0.9179,-0.9381,-0.9529,-0.9624,-0.9673,-0.9723,-1.0113,-1.0109,-1.001,-0.9821,-1.0516,-1.0703,-1.1319,-1.2146,-1.233,-1.2537,-1.2948,-1.3408,-1.4046,-1.4621,-1.486,-1.5003,-1.5425,-1.6001,-1.6278,-1.656,-1.6889,-1.7286,-1.7286,-1.7286,-1.7286,-1.7286,-1.7286,-1.7286,-1.7232,-1.6763,-1.6709,-1.7138,-1.6951,-1.681,-1.685,-1.7138,-1.7326,-1.7645,-1.8303,-1.9012,-1.9234,-1.9234,-1.9325,-1.9563,-1.9828,-1.9928,-2.0065,-2.0155,-2.0201,-2.0275,-2.0198,-1.9855,-1.9853,-1.9708,-1.9043,-1.8516,-1.8293,-1.792,-1.7953,-1.8167,-1.8075,-1.7916,-1.7829,-1.787,-1.791,-1.791,-1.7951,-1.7951,-1.7789,-1.77,-1.7326,-1.7367,-1.6952,-1.6501,-1.5835,-1.4949,-1.4238,-1.3747,-1.3039,-1.2198,-1.1645,-1.1392,-1.1257,-1.1149,-1.0789,-1.0398,-1.0035,-0.971,-0.1566,-0.1566,-0.1566,-0.1566,-0.1617,-0.1869,-0.2622,-0.3574,-0.3976,-0.5081,-0.6384,-0.6839,-0.7288,-0.7839,-0.7988,-0.8038,-0.8137,-0.8333,-0.8581,-0.8882,-0.9133,-0.9331,-0.9624,-0.9772,-1.006,-1.001,-1.0596,-1.0935,-1.113,-1.1033,-1.0984,-1.1565,-1.1678,-1.241,-1.3183,-1.345,-1.3575,-1.4047,-1.4557,-1.5261,-1.5974,-1.6265,-1.6548,-1.6878,-1.7106,-1.7153,-1.7286,-1.7286,-1.7286,-1.7286,-1.7286,-1.7286,-1.7286,-1.7286,-1.7286,-1.7286,-1.7091,-1.7138,-1.7286,-1.7239,-1.7286,-1.7372,-1.7652,-1.7939,-1.8265,-1.8773,-1.9279,-1.9737,-1.9783,-1.9965,-2.0201,-2.0246,-2.0246,-2.0201,-2.0292,-2.0292,-2.0283,-2.0232,-2.0206,-2.0121,-2.0009,-1.9958,-1.9542,-1.9493,-1.923,-1.8811,-1.8656,-1.8578,-1.8398,-1.82,-1.8097,-1.8106,-1.804,-1.804,-1.8031,-1.7991,-1.7991,-1.7991,-1.7991,-1.787,-1.7253,-1.6796,-1.6165,-1.5504,-1.4845,-1.4168,-1.3402,-1.2443,-1.1516,-1.1353,-1.1176,-1.1052,-1.0772,-1.0388,-1.0029,-0.1566,-0.1566,-0.1617,-0.1667,-0.1717,-0.2671,-0.3674,-0.4776,-0.5682,-0.6637,-0.764,-0.7839,-0.7789,-0.7988,-0.8038,-0.8187,-0.8333,-0.8382,-0.8733,-0.9034,-0.9236,-0.9476,-0.9916,-1.0498,-1.1028,-1.1224,-1.1614,-1.215,-1.2538,-1.2441,-1.2436,-1.2597,-1.2791,-1.338,-1.399,-1.4412,-1.4703,-1.5166,-1.5662,-1.5981,-1.6501,-1.6737,-1.7019,-1.72,-1.7286,-1.7286,-1.7286,-1.7286,-1.7286,-1.7286,-1.7286,-1.7286,-1.7286,-1.7286,-1.7286,-1.7286,-1.7286,-1.7286,-1.7286,-1.7286,-1.7326,-1.7559,-1.8032,-1.8542,-1.8781,-1.9646,-2.0155,-2.0155,-2.011,-2.0155,-2.0292,-2.0292,-2.0292,-2.0292,-2.0292,-2.0292,-2.0292,-2.0283,-2.0266,-2.0283,-2.0277,-2.0228,-2.0247,-2.0119,-1.9781,-1.9359,-1.9168,-1.908,-1.8837,-1.8629,-1.8348,-1.823,-1.8097,-1.804,-1.804,-1.804,-1.7991,-1.7991,-1.7991,-1.7991,-1.7829,-1.7408,-1.6992,-1.6501,-1.5801,-1.5206,-1.4573,-1.3578,-1.2601,-1.167,-1.1177,-1.1091,-1.1015,-1.0704,-1.0388,-0.1566,-0.1667,-0.2321,-0.2572,-0.2622,-0.3022,-0.4176,-0.5679,-0.6234,-0.6989,-0.7988,-0.7988,-0.7988,-0.8038,-0.8187,-0.8283,-0.8432,-0.8783,-0.9034,-0.9183,-0.9381,-0.9867,-1.0498,-1.1077,-1.1463,-1.2096,-1.2635,-1.3173,-1.3661,-1.3655,-1.4184,-1.431,-1.4068,-1.4668,-1.5179,-1.5351,-1.5684,-1.5858,-1.6177,-1.6414,-1.6784,-1.6932,-1.7113,-1.7286,-1.7286,-1.7286,-1.7286,-1.7286,-1.7286,-1.7286,-1.7286,-1.7286,-1.7286,-1.7286,-1.7286,-1.7286,-1.7286,-1.7286,-1.7286,-1.7333,-1.7419,-1.7893,-1.8404,-1.8912,-1.9196,-1.992,-2.0246,-2.0292,-2.0292,-2.0292,-2.0292,-2.0292,-2.0292,-2.0292,-2.0292,-2.0292,-2.0292,-2.0292,-2.0337,-2.0382,-2.0473,-2.0565,-2.0619,-2.0656,-2.0288,-1.9904,-1.973,-1.957,-1.9351,-1.9088,-1.8854,-1.858,-1.8447,-1.8227,-1.821,-1.8121,-1.8031,-1.7991,-1.7991,-1.7991,-1.7991,-1.7951,-1.7538,-1.7123,-1.6796,-1.6247,-1.5538,-1.4671,-1.3691,-1.2614,-1.1792,-1.1214,-1.1085,-1.103,-1.0752,-0.1566,-0.1717,-0.2772,-0.3225,-0.3274,-0.3877,-0.4979,-0.6287,-0.6786,-0.7238,-0.7988,-0.7988,-0.7988,-0.8088,-0.8283,-0.8432,-0.863,-0.8981,-0.9426,-0.9772,-1.0158,-1.0743,-1.1419,-1.2096,-1.2678,-1.3119,-1.3601,-1.419,-1.4723,-1.4729,-1.5057,-1.5306,-1.5332,-1.559,-1.5809,-1.6229,-1.6231,-1.6225,-1.6414,-1.6555,-1.6979,-1.7066,-1.716,-1.7286,-1.7286,-1.7286,-1.7286,-1.7286,-1.7286,-1.7286,-1.7286,-1.7286,-1.7286,-1.7286,-1.7286,-1.7286,-1.7286,-1.7286,-1.7286,-1.7333,-1.7567,-1.7986,-1.8504,-1.9004,-1.9554,-2.0011,-2.0292,-2.0292,-2.0292,-2.0292,-2.0292,-2.0292,-2.0292,-2.0292,-2.0292,-2.0292,-2.0292,-2.0292,-2.0382,-2.0473,-2.0609,-2.0699,-2.0871,-2.0916,-2.0801,-2.0448,-2.0323,-2.0128,-1.9952,-1.9711,-1.9442,-1.9165,-1.8883,-1.8635,-1.8428,-1.829,-1.8193,-1.7991,-1.7991,-1.7991,-1.7991,-1.7991,-1.7991,-1.7627,-1.7335,-1.7082,-1.6583,-1.5835,-1.4706,-1.3529,-1.2668,-1.1772,-1.1536,-1.1499,-1.1175,-0.1566,-0.1717,-0.2822,-0.3274,-0.3524,-0.5432,-0.6337,-0.6686,-0.7437,-0.7889,-0.7988,-0.7988,-0.7988,-0.8091,-0.8333,-0.8531,-0.8775,-0.913,-0.9768,-1.0641,-1.0837,-1.1663,-1.2635,-1.3366,-1.38,-1.4436,-1.4819,-1.5248,-1.5642,-1.5493,-1.573,-1.573,-1.5695,-1.5708,-1.5852,-1.6089,-1.6184,-1.6272,-1.6697,-1.6932,-1.7073,-1.7153,-1.7239,-1.7286,-1.7286,-1.7286,-1.7286,-1.7286,-1.7286,-1.7286,-1.7286,-1.7286,-1.7286,-1.7286,-1.7286,-1.7286,-1.7286,-1.7286,-1.7286,-1.7286,-1.7613,-1.8125,-1.8643,-1.905,-1.9554,-2.0019,-2.0292,-2.0292,-2.0292,-2.0292,-2.0292,-2.0292,-2.0292,-2.0292,-2.0292,-2.0292,-2.0292,-2.0292,-2.0382,-2.0555,-2.0654,-2.0789,-2.1006,-2.1141,-2.1195,-2.1025,-2.0871,-2.0718,-2.0542,-2.0316,-2.006,-1.9662,-1.9365,-1.8949,-1.8691,-1.85,-1.8313,-1.8112,-1.8031,-1.8072,-1.808,-1.804,-1.8,-1.7919,-1.7789,-1.7538,-1.7326,-1.7033,-1.5869,-1.4664,-1.3288,-1.2437,-1.2229,-1.1878,-1.1569,-0.1566,-0.1768,-0.3524,-0.4275,-0.4475,-0.5782,-0.6786,-0.7437,-0.7839,-0.7988,-0.7988,-0.7988,-0.7988,-0.8137,-0.8432,-0.8726,-0.8874,-0.9324,-1.0109,-1.1121,-1.1268,-1.2393,-1.342,-1.4196,-1.4675,-1.5207,-1.573,-1.5825,-1.5778,-1.5825,-1.5825,-1.5825,-1.5832,-1.5825,-1.5879,-1.6076,-1.6272,-1.6501,-1.6784,-1.7073,-1.72,-1.7286,-1.7286,-1.7286,-1.7286,-1.7286,-1.7286,-1.7286,-1.7286,-1.7286,-1.7286,-1.7286,-1.7286,-1.7286,-1.7286,-1.7286,-1.7286,-1.7286,-1.7286,-1.738,-1.7699,-1.8265,-1.8689,-1.9188,-1.9928,-2.0155,-2.0292,-2.0292,-2.0292,-2.0292,-2.0292,-2.0292,-2.0292,-2.0292,-2.0292,-2.0292,-2.0292,-2.0292,-2.0382,-2.06,-2.0781,-2.1105,-2.132,-2.1365,-2.1419,-2.1419,-2.129,-2.1316,-2.1218,-2.0918,-2.0659,-2.0192,-1.9801,-1.9326,-1.8972,-1.8825,-1.8615,-1.8451,-1.8322,-1.8282,-1.8241,-1.8121,-1.804,-1.8,-1.8,-1.7991,-1.7708,-1.7375,-1.6845,-1.5801,-1.4587,-1.3542,-1.3203,-1.2614,-1.1902,-0.1818,-0.2321,-0.4074,-0.5024,-0.5477,-0.6484,-0.7388,-0.7939,-0.7988,-0.7988,-0.7988,-0.7988,-0.7988,-0.8137,-0.8531,-0.8775,-0.8874,-0.9377,-1.0596,-1.1512,-1.1755,-1.3065,-1.4238,-1.4825,-1.5201,-1.5683,-1.5825,-1.5825,-1.5825,-1.5825,-1.5825,-1.5825,-1.5879,-1.5974,-1.6021,-1.6218,-1.6508,-1.6737,-1.7019,-1.7153,-1.7239,-1.7286,-1.7286,-1.7286,-1.7286,-1.7286,-1.7286,-1.7286,-1.7286,-1.7286,-1.7286,-1.7286,-1.7286,-1.7286,-1.7286,-1.7286,-1.7286,-1.7286,-1.7286,-1.7286,-1.7707,-1.8365,-1.8635,-1.9288,-2.0065,-2.0246,-2.0292,-2.0292,-2.0292,-2.0292,-2.0292,-2.0292,-2.0292,-2.0292,-2.0292,-2.0292,-2.0292,-2.0292,-2.0428,-2.0654,-2.0916,-2.1275,-2.1553,-2.1597,-2.1597,-2.1642,-2.1678,-2.1687,-2.1687,-2.1403,-2.1117,-2.0647,-2.0285,-1.9869,-1.9466,-1.9187,-1.8999,-1.8727,-1.862,-1.8523,-1.8451,-1.8371,-1.8241,-1.808,-1.804,-1.8,-1.7959,-1.7627,-1.7261,-1.6804,-1.6098,-1.5179,-1.4342,-1.3467,-1.257,-0.227,-0.3274,-0.4423,-0.5477,-0.6434,-0.7437,-0.7939,-0.7988,-0.7988,-0.7988,-0.7988,-0.7988,-0.8038,-0.8137,-0.8581,-0.8829,-0.9072,-0.9525,-1.0886,-1.2198,-1.2635,-1.4088,-1.5051,-1.5635,-1.5635,-1.573,-1.5825,-1.5825,-1.5825,-1.5825,-1.5825,-1.5879,-1.6028,-1.617,-1.6312,-1.6501,-1.6744,-1.6925,-1.7153,-1.7239,-1.7286,-1.7286,-1.7286,-1.7286,-1.7286,-1.7286,-1.7286,-1.7286,-1.7286,-1.7286,-1.7286,-1.7286,-1.7286,-1.7286,-1.7286,-1.7286,-1.7286,-1.7286,-1.7286,-1.7286,-1.7613,-1.8179,-1.8496,-1.9288,-1.9882,-2.0147,-2.0192,-2.0246,-2.0292,-2.0292,-2.0292,-2.0292,-2.0292,-2.0292,-2.0292,-2.0292,-2.0292,-2.0337,-2.0473,-2.0654,-2.0916,-2.123,-2.1508,-2.1651,-2.1687,-2.1687,-2.1687,-2.1687,-2.1687,-2.1687,-2.1392,-2.1044,-2.0674,-2.0422,-2.0038,-1.9494,-1.9218,-1.894,-1.882,-1.8692,-1.8652,-1.8531,-1.8411,-1.8241,-1.8121,-1.804,-1.7959,-1.7919,-1.7797,-1.7343,-1.6968,-1.6386,-1.5462,-1.4322,-1.346,-0.2923,-0.3374,-0.5179,-0.6132,-0.6537,-0.7537,-0.7988,-0.7988,-0.7988,-0.7988,-0.7988,-0.7988,-0.8141,-0.8336,-0.8627,-0.8878,-0.9472,-1.0252,-1.1419,-1.249,-1.3414,-1.4573,-1.535,-1.5825,-1.5825,-1.5825,-1.5825,-1.5825,-1.5825,-1.5825,-1.5927,-1.6076,-1.6177,-1.6414,-1.6697,-1.6885,-1.7026,-1.716,-1.738,-1.7372,-1.7372,-1.7326,-1.7372,-1.7419,-1.7333,-1.7333,-1.7286,-1.7286,-1.7286,-1.7286,-1.7286,-1.7286,-1.7286,-1.7286,-1.7286,-1.7286,-1.7286,-1.7286,-1.7286,-1.7286,-1.752,-1.79,-1.8218,-1.8819,-1.9463,-1.9874,-1.9965,-2.0102,-2.0246,-2.0292,-2.0292,-2.0292,-2.0292,-2.0292,-2.0292,-2.0292,-2.0292,-2.0337,-2.0428,-2.0699,-2.0961,-2.1195,-2.1472,-2.1651,-2.1687,-2.1687,-2.1687,-2.1687,-2.1687,-2.1687,-2.1604,-2.1257,-2.0891,-2.0592,-2.0131,-1.9574,-1.9383,-1.917,-1.9011,-1.8891,-1.8843,-1.8763,-1.8563,-1.8362,-1.8161,-1.808,-1.7991,-1.7959,-1.7919,-1.7959,-1.7587,-1.7172,-1.6553,-1.5421,-1.454,-0.3473,-0.4026,-0.5682,-0.6637,-0.7138,-0.7736,-0.7988,-0.7988,-0.7988,-0.7988,-0.8038,-0.8137,-0.8237,-0.8432,-0.8829,-0.9324,-0.9961,-1.0739,-1.1907,-1.3366,-1.4004,-1.4819,-1.5493,-1.5825,-1.5825,-1.5825,-1.5825,-1.5825,-1.5825,-1.5825,-1.5927,-1.6177,-1.6272,-1.6871,-1.738,-1.7753,-1.8025,-1.7978,-1.7839,-1.7645,-1.7645,-1.7598,-1.7559,-1.7785,-1.7652,-1.7419,-1.7333,-1.7333,-1.7333,-1.7333,-1.7286,-1.7286,-1.7286,-1.7286,-1.7286,-1.7286,-1.7286,-1.7286,-1.7286,-1.7286,-1.752,-1.7707,-1.7846,-1.8357,-1.9004,-1.9509,-1.9691,-1.992,-2.0155,-2.0292,-2.0292,-2.0292,-2.0292,-2.0292,-2.0292,-2.0292,-2.0292,-2.0292,-2.0473,-2.0699,-2.097,-2.1195,-2.1419,-2.1597,-2.1687,-2.1687,-2.1687,-2.1687,-2.1687,-2.1687,-2.165,-2.1467,-2.1089,-2.0671,-2.02,-1.9769,-1.9509,-1.9323,-1.9192,-1.9112,-1.9073,-1.8922,-1.874,-1.8451,-1.8161,-1.8121,-1.8072,-1.8031,-1.7991,-1.7991,-1.7991,-1.7668,-1.7187,-1.6501,-1.5755,-0.3924,-0.4874,-0.6032,-0.7089,-0.7889,-0.7988,-0.7988,-0.7988,-0.7988,-0.7988,-0.8041,-0.8237,-0.8333,-0.8531,-0.8882,-0.9571,-1.035,-1.1126,-1.2296,-1.4196,-1.4538,-1.5112,-1.5588,-1.5825,-1.5825,-1.5825,-1.5825,-1.5825,-1.5825,-1.592,-1.6069,-1.6312,-1.673,-1.7466,-1.8473,-1.875,-1.9063,-1.9285,-1.8696,-1.8234,-1.8511,-1.8288,-1.7924,-1.8557,-1.8241,-1.7645,-1.7512,-1.7419,-1.738,-1.7333,-1.7286,-1.7286,-1.7286,-1.7286,-1.7286,-1.7286,-1.7286,-1.7426,-1.7473,-1.752,-1.7559,-1.7559,-1.7466,-1.8032,-1.8681,-1.9004,-1.9188,-1.9828,-2.0102,-2.0201,-2.0246,-2.0292,-2.0292,-2.0292,-2.0292,-2.0292,-2.0292,-2.0292,-2.0382,-2.0654,-2.0871,-2.1105,-2.1284,-2.1463,-2.1687,-2.1687,-2.1687,-2.1687,-2.1687,-2.1687,-2.1659,-2.1595,-2.1245,-2.0824,-2.0448,-2.0035,-1.9687,-1.9463,-1.9344,-1.9381,-1.9401,-1.9177,-1.8927,-1.8669,-1.8442,-1.8201,-1.8121,-1.8121,-1.808,-1.7991,-1.7991,-1.7991,-1.7645,-1.7165,-1.6745,-0.4574,-0.4974,-0.6833,-0.7789,-0.7988,-0.7988,-0.7988,-0.7988,-0.7988,-0.7988,-0.7988,-0.8088,-0.8336,-0.868,-0.8882,-0.9472,-1.0256,-1.1614,-1.2538,-1.38,-1.4627,-1.5302,-1.573,-1.5825,-1.5825,-1.5825,-1.5825,-1.5872,-1.5927,-1.6116,-1.6622,-1.7444,-1.7684,-1.8241,-1.965,-1.9832,-1.9914,-2.0458,-2.0096,-1.9596,-1.9832,-1.9832,-1.9695,-1.9786,-1.9413,-1.8872,-1.865,-1.838,-1.7924,-1.7505,-1.7333,-1.7286,-1.7286,-1.7286,-1.7286,-1.7286,-1.7333,-1.7567,-1.7753,-1.79,-1.8032,-1.8265,-1.8357,-1.8319,-1.8411,-1.845,-1.8812,-1.9546,-2.0011,-2.0102,-2.0201,-2.0246,-2.0292,-2.0292,-2.0292,-2.0292,-2.0292,-2.0337,-2.0337,-2.0555,-2.0781,-2.1006,-2.1186,-2.1365,-2.1597,-2.1687,-2.1687,-2.1687,-2.1687,-2.1687,-2.1687,-2.1586,-2.1328,-2.0943,-2.0622,-2.0301,-1.9952,-1.965,-1.9445,-1.9536,-1.9674,-1.9394,-1.9057,-1.8927,-1.8732,-1.8526,-1.8374,-1.8331,-1.829,-1.8129,-1.7991,-1.7991,-1.7991,-1.7637,-1.7301,-0.4774,-0.5074,-0.7083,-0.7988,-0.7988,-0.7988,-0.7988,-0.7988,-0.7988,-0.7988,-0.8038,-0.8137,-0.8382,-0.8829,-0.8928,-0.9858,-1.0792,-1.2101,-1.3409,-1.4376,-1.4908,-1.5534,-1.5825,-1.5825,-1.5825,-1.5825,-1.5927,-1.6021,-1.6116,-1.6353,-1.6951,-1.7956,-1.8241,-1.888,-2.0376,-2.0602,-2.0737,-2.1507,-2.1364,-2.1364,-2.1186,-2.0827,-2.0647,-2.0602,-2.0376,-1.9832,-1.9155,-1.875,-1.8195,-1.7598,-1.7333,-1.7286,-1.7286,-1.7286,-1.7286,-1.738,-1.752,-1.7807,-1.8087,-1.8319,-1.855,-1.8781,-1.8827,-1.8643,-1.8912,-1.8958,-1.8689,-1.9325,-1.9683,-1.982,-2.0147,-2.0292,-2.0292,-2.0292,-2.0292,-2.0292,-2.0292,-2.0292,-2.0337,-2.0382,-2.0645,-2.0952,-2.1186,-2.1463,-2.1642,-2.1687,-2.1687,-2.1687,-2.1687,-2.1687,-2.1687,-2.1623,-2.1383,-2.1154,-2.0906,-2.0576,-2.0186,-1.9884,-1.9641,-1.9664,-1.9774,-1.9475,-1.9236,-1.9223,-1.9124,-1.8851,-1.8721,-1.8663,-1.8455,-1.8316,-1.8129,-1.7991,-1.7991,-1.7991,-1.7734,-0.4974,-0.5477,-0.7235,-0.7988,-0.7988,-0.7988,-0.7988,-0.7988,-0.7988,-0.7988,-0.8038,-0.8237,-0.8531,-0.8779,-0.913,-1.0739,-1.1907,-1.2393,-1.3794,-1.4908,-1.5588,-1.5778,-1.5825,-1.5825,-1.5832,-1.5927,-1.6076,-1.6312,-1.6494,-1.6683,-1.7145,-1.8064,-1.8573,-1.8934,-2.0746,-2.132,-2.1409,-2.2369,-2.2687,-2.2872,-2.2315,-2.1543,-2.1507,-2.1329,-2.1006,-2.0096,-1.9513,-1.888,-1.8465,-1.7831,-1.7419,-1.7286,-1.7286,-1.7333,-1.7426,-1.752,-1.78,-1.8079,-1.8404,-1.8773,-1.892,-1.9066,-1.8966,-1.9104,-1.9371,-1.9279,-1.9012,-1.9104,-1.9455,-1.9729,-2.0102,-2.0292,-2.0292,-2.0292,-2.0292,-2.0292,-2.0292,-2.0292,-2.0292,-2.0292,-2.06,-2.0907,-2.1177,-2.1463,-2.1597,-2.1687,-2.1687,-2.1687,-2.1687,-2.1687,-2.1687,-2.1641,-2.1476,-2.1266,-2.1108,-2.0888,-2.0506,-2.0195,-1.9989,-1.9921,-1.993,-1.993,-1.9866,-1.9734,-1.9565,-1.9343,-1.9154,-1.9037,-1.8809,-1.8481,-1.8299,-1.8152,-1.7991,-1.7991,-1.7991,-0.5827,-0.7434,-0.7889,-0.7988,-0.7988,-0.7985,-0.7988,-0.7988,-0.7985,-0.7988,-0.7982,-0.8084,-0.8333,-0.8775,-0.8829,-1.0051,-1.1809,-1.2441,-1.3318,-1.4436,-1.5493,-1.573,-1.5825,-1.5879,-1.5981,-1.6123,-1.6218,-1.6359,-1.6817,-1.7012,-1.7839,-1.9338,-1.965,-2.0512,-2.2236,-2.2501,-2.2413,-2.3047,-2.3101,-2.3101,-2.3101,-2.2687,-2.2731,-2.2677,-2.2633,-2.1961,-2.1239,-2.0331,-1.9467,-1.8611,-1.7792,-1.7426,-1.738,-1.7426,-1.7613,-1.7939,-1.8172,-1.8589,-1.895,-1.9279,-1.9471,-1.9791,-1.9745,-1.9691,-1.9783,-1.96,-1.9463,-1.9463,-1.9737,-1.9874,-2.0155,-2.0246,-2.0292,-2.0292,-2.0292,-2.0292,-2.0292,-2.0292,-2.0292,-2.0419,-2.0645,-2.0862,-2.1042,-2.132,-2.1651,-2.1696,-2.1687,-2.1687,-2.1687,-2.1687,-2.1687,-2.1632,-2.1568,-2.1401,-2.1181,-2.1181,-2.0924,-2.0585,-2.037,-2.0398,-2.049,-2.0649,-2.0555,-2.0322,-2.0203,-2.0029,-1.9787,-1.9388,-1.9043,-1.8704,-1.8486,-1.8322,-1.8112,-1.8031,-1.8072]},{"header":{"parameterUnit":"m.s-1","parameterCategory":1,"la1":31.0,"la2":29.5877,"lo1":-88.7671,"lo2":-86.6584,"dy":0.0162,"dx":0.0185,"nx":115,"ny":88,"refTime":"2023-09-24T12:00:00:Z","depth":0,"parameterNumber":3,"parameterNumberName":"V-component_of_WINDS"},"data":[0.0,0.0,0.0,0.0,0.0,0.0,0.0,0.0,0.0,0.0,0.0,0.0,0.0,0.0,0.0,0.0,0.0,0.0,0.0,0.0,0.0,0.0,0.0,0.0,0.0,0.0,0.0,0.0,0.0,0.0,0.0,0.0,0.0,0.0,0.0,0.0,0.0,0.0,0.0,0.0,0.0,0.0,0.0,0.0,0.0,0.0,0.0,0.0,0.0,0.0,0.0,0.0,0.0,0.0,0.0,0.0,0.0,0.0,0.0,0.0,0.0,0.0,0.0,0.0,0.0,0.0,0.0,0.0,0.0,0.0,0.0,0.0,0.0,0.0,0.0,0.0,0.0,0.0,0.0,0.0,0.0,0.0,0.0,0.0,0.0,0.0,0.0,0.0,0.0,0.0,0.0,0.0,0.0,0.0,0.0,0.0,0.0,0.0,0.0,0.0,0.0,0.0,0.0,0.0,0.0,0.0,0.0,0.0,0.0,0.0,0.0,0.0,0.0,0.0,0.0,0.0,0.0,0.0,0.0,0.0,0.0,0.0,0.0,0.0,0.0,0.0,0.0,0.0,0.0,0.0,0.0,0.0,0.0,0.0,0.0,0.0,0.0,0.0,0.0,0.0,0.0,0.0,0.0,0.0,0.0,0.0,0.0,0.0,0.0,0.0,0.0,0.0,0.0,0.0,0.0,0.0,0.0,0.0,0.0,0.0,0.0,0.0,0.0,0.0,0.0,0.0,0.0,0.0,0.0,0.0,0.0,0.0,0.0,0.0,0.0,0.0,0.0,0.0,0.0,0.0,0.0,0.0,0.0,0.0,0.0,0.0,0.0,0.0,0.0,0.0,0.0,0.0,0.0,0.0,0.0,0.0,0.0,0.0,0.0,0.0,0.0,0.0,0.0,0.0,0.0,0.0,0.0,0.0,0.0,0.0,0.0,0.0,0.0,0.0,0.0,0.0,0.0,0.0,0.0,0.0,0.0,0.0,0.0,0.0,0.0,0.0,0.0,0.0,0.0,0.0,0.0,0.0,0.0,0.0,0.0,0.0,0.0,0.0,0.0,0.0,0.0,0.0,0.0,0.0,0.0,0.0,0.0,0.0,0.0,0.0,0.0,0.0,0.0,0.0,0.0,0.0,0.0,0.0,0.0,0.0,0.0,0.0,0.0,0.0,0.0,0.0,0.0,0.0,0.0,0.0,0.0,0.0,0.0,0.0,0.0,0.0,0.0,0.0,0.0,0.0,0.0,0.0,0.0,0.0,0.0,0.0,0.0,0.0,0.0,0.0,0.0,0.0,0.0,0.0,0.0,0.0,0.0,0.0,0.0,0.0,0.0,0.0,0.0,0.0,0.0,0.0,0.0,0.0,0.0,0.0,0.0,0.0,0.0,0.0,0.0,0.0,0.0,0.0,0.0,0.0,0.0,0.0,0.0,0.0,0.0,0.0,0.0,0.0,0.0,0.0,0.0,0.0,0.0,0.0,0.0,0.0,0.0,0.0,0.0,0.0,0.0,0.0,0.0,0.0,0.0,0.0,0.0,0.0,0.0,0.0,0.0,0.0,0.0,0.0,0.0,0.0,0.0,0.0,0.0,0.0,0.0,0.0,0.0,0.0,0.0,0.0,0.0,0.0,0.0,0.0,0.0,0.0,0.0,0.0,0.0,0.0,0.0,0.0,0.0,0.0,0.0,0.0,0.0,0.0,0.0,0.0,0.0,0.0,0.0,0.0,0.0,0.0,0.0,0.0,0.0,0.0,0.0,0.0,0.0,0.0,0.0,0.0,0.0,0.0,0.0,0.0,0.0,0.0,0.0,0.0,0.0,0.0,0.0,0.0,0.0,0.0,0.0,0.0,0.0,0.0,0.0,0.0,0.0,0.0,0.0,0.0,0.0,0.0,0.0,0.0,0.0,0.0,0.0,0.0,0.0,0.0,0.0,0.0,0.0,0.0,0.0,0.0,0.0,0.0,0.0,0.0,0.0,0.0,0.0,0.0,0.0,0.0,0.0,0.0,0.0,0.0,0.0,0.0,0.0,0.0,0.0,0.0,0.0,0.0,0.0,0.0,0.0,0.0,0.0,0.0,0.0,0.0,0.0,0.0,0.0,0.0,0.0,0.0,0.0,0.0,0.0,0.0,0.0,0.0,0.0,0.0,0.0,0.0,0.0,0.0,0.0,0.0,0.0,0.0,0.0,0.0,0.0,0.0,0.0,0.0,0.0,0.0,0.0,0.0,0.0,0.0,0.0,0.0,0.0,0.0,0.0,0.0,0.0,0.0,0.0,0.0,0.0,0.0,0.0,0.0,0.0,0.0,0.0,0.0,0.0,0.0,0.0,0.0,0.0,0.0,0.0,0.0,0.0,0.0,0.0,0.0,0.0,0.0,0.0,0.0,0.0,0.0,0.0,0.0,0.0,0.0,0.0,0.0,0.0,0.0,0.0,0.0,0.0,0.0,0.0,0.0,0.0,0.0,0.0,0.0,0.0,0.0,0.0,0.0,0.0,0.0,0.0,0.0,0.0,0.0,0.0,0.0,0.0,0.0,0.0,0.0,0.0,0.0,0.0,0.0,0.0,0.0,0.0,0.0,0.0,0.0,0.0,0.0,0.0,0.0,0.0,0.0,0.0,0.0,0.0,0.0,0.0,0.0,0.0,0.0,0.0,0.0,0.0,0.0,0.0,0.0,0.0,0.0,0.0,0.0,0.0,0.0,0.0,0.0,0.0,0.0,0.0,0.0,0.0,0.0,0.0,0.0,0.0,0.0,0.0,0.0,0.0,0.0,0.0,0.0,0.0,0.0,0.0,0.0,0.0,0.0,0.0,0.0,0.0,0.0,0.0,0.0,0.0,0.0,0.0,0.0,0.0,0.0,0.0,0.0,0.0,0.0,0.0,0.0,0.0,0.0,0.0,0.0,0.0,0.0,0.0,0.0,0.0,0.0,0.0,0.0,0.0,0.0,0.0,0.0,0.0,0.0,0.0,0.0,0.0,0.0,0.0,0.0,0.0,0.0,0.0,0.0,0.0,0.0,0.0,0.0,0.0,0.0,0.0,0.0,0.0,0.0,0.0,0.0,0.0,0.0,0.0,0.0,0.0,0.0,0.0,0.0,0.0,0.0,0.0,0.0,0.0,0.0,0.0,0.0,0.0,0.0,0.0,0.0,0.0,0.0,0.0,0.0,0.0,0.0,0.0,0.0,0.0,0.0,0.0,0.0,0.0,0.0,0.0,0.0,0.0,0.0,0.0,0.0,0.0,0.0,0.0,0.0,0.0,0.0,0.0,0.0,0.0,0.0,0.0,0.0,0.0,0.0,0.0,0.0,0.0,0.0,0.0,0.0,0.0,0.0,0.0,0.0,0.0,0.0,0.0,0.0,0.0,0.0,0.0,0.0,0.0,0.0,0.0,0.0,0.0,0.0,0.0,0.0,0.0,0.0,0.0,0.0,0.0,0.0,0.0,0.0,0.0,0.0,0.0,0.0,0.0,0.0,0.0,0.0,0.0,0.0,0.0,0.0,0.0,0.0,0.0,0.0,0.0,0.0,0.0,0.0,0.0,0.0,0.0,0.0,0.0,0.0,0.0,0.0,0.0,0.0,0.0,0.0,0.0,0.0,0.0,0.0,0.0,0.0,0.0,0.0,0.0,0.0,0.0,0.0,0.0,0.0,0.0,0.0,0.0,0.0,0.0,0.0,0.0,0.0,0.0,0.0,0.0,0.0,0.0,0.0,0.0,0.0,0.0,0.0,0.0,0.0,0.0,0.0,0.0,0.0,0.0,0.0,0.0,0.0,0.0,0.0,0.0,0.0,0.0,0.0,0.0,0.0,0.0,0.0,0.0,0.0,0.0,0.0,0.0,0.0,0.0,0.0,0.0,0.0,0.0,0.0,0.0,0.0,0.0,0.0,0.0,0.0,0.0,0.0,0.0,0.0,0.0,0.0,0.0,0.0,0.0,0.0,0.0,0.0,0.0,0.0,0.0,0.0,0.0,0.0,0.0,0.0,0.0,0.0,0.0,0.0,0.0,0.0,0.0,0.0,0.0,0.0,0.0,0.0,0.0,0.0,0.0,0.0,0.0,0.0,0.0,0.0,0.0,0.0,0.0,0.0,0.0,0.0,0.0,0.0,0.0,0.0,0.0,0.0,0.0,0.0,0.0,0.0,0.0,0.0,0.0,0.0,0.0,0.0,0.0,0.0,0.0,0.0,0.0,0.0,0.0,0.0,0.0,0.0,0.0,0.0,0.0,0.0,0.0,0.0,0.0,0.0,0.0,0.0,2.3596,0.0,0.0,0.0,0.0,0.0,0.0,0.0,0.0,0.0,0.0,0.0,0.0,0.0,0.0,0.0,0.0,0.0,0.0,0.0,0.0,0.0,0.0,0.0,0.0,0.0,0.0,0.0,0.0,0.0,0.0,0.0,0.0,0.0,0.0,0.0,0.0,0.0,0.0,0.0,0.0,0.0,0.0,0.0,0.0,0.0,0.0,0.0,0.0,0.0,0.0,0.0,0.0,0.0,0.0,0.0,0.0,0.0,0.0,0.0,0.0,0.0,0.0,0.0,0.0,0.0,0.0,0.0,0.0,0.0,0.0,0.0,0.0,0.0,0.0,0.0,0.0,0.0,0.0,0.0,0.0,0.0,0.0,0.0,0.0,0.0,0.0,0.0,0.0,0.0,0.0,0.0,0.0,0.0,0.0,0.0,0.0,0.0,0.0,0.0,0.0,0.0,0.0,0.0,0.0,0.0,0.0,0.0,0.0,0.0,0.0,2.304,2.3139,2.3241,2.3395,2.3585,0.0,0.0,0.0,0.0,0.0,0.0,0.0,0.0,0.0,0.0,0.0,0.0,0.0,0.0,0.0,0.0,0.0,0.0,0.0,0.0,0.0,0.0,0.0,0.0,0.0,0.0,0.0,0.0,0.0,0.0,0.0,0.0,0.0,0.0,0.0,0.0,0.0,0.0,0.0,0.0,0.0,0.0,0.0,0.0,0.0,0.0,0.0,0.0,0.0,0.0,0.0,0.0,0.0,0.0,0.0,0.0,0.0,0.0,0.0,0.0,0.0,0.0,0.0,0.0,0.0,0.0,0.0,0.0,0.0,0.0,0.0,0.0,0.0,0.0,0.0,0.0,0.0,0.0,0.0,0.0,0.0,0.0,0.0,0.0,0.0,0.0,0.0,0.0,0.0,0.0,0.0,0.0,0.0,0.0,0.0,0.0,0.0,0.0,0.0,0.0,0.0,0.0,0.0,0.0,0.0,0.0,0.0,0.0,0.0,0.0,0.0,0.0,2.3265,2.343,2.3641,0.0,0.0,0.0,0.0,0.0,0.0,0.0,0.0,0.0,0.0,0.0,0.0,0.0,0.0,0.0,0.0,0.0,0.0,0.0,0.0,0.0,0.0,0.0,0.0,0.0,0.0,0.0,0.0,0.0,0.0,0.0,0.0,0.0,0.0,0.0,0.0,0.0,0.0,0.0,0.0,0.0,0.0,0.0,0.0,0.0,0.0,0.0,0.0,0.0,0.0,0.0,0.0,0.0,0.0,0.0,0.0,0.0,0.0,0.0,0.0,0.0,0.0,0.0,0.0,0.0,0.0,0.0,0.0,0.0,0.0,0.0,0.0,0.0,0.0,0.0,0.0,0.0,0.0,0.0,0.0,0.0,0.0,0.0,0.0,0.0,0.0,0.0,0.0,0.0,0.0,0.0,0.0,0.0,0.0,0.0,0.0,0.0,0.0,0.0,0.0,0.0,0.0,0.0,0.0,0.0,0.0,0.0,0.0,0.0,0.0,2.3114,2.3193,2.3372,0.0,2.3772,0.0,0.0,0.0,0.0,0.0,0.0,0.0,0.0,0.0,0.0,0.0,0.0,0.0,0.0,0.0,0.0,0.0,0.0,0.0,0.0,0.0,0.0,0.0,0.0,0.0,0.0,0.0,0.0,0.0,0.0,0.0,0.0,0.0,0.0,0.0,0.0,0.0,0.0,0.0,0.0,0.0,0.0,0.0,0.0,0.0,0.0,0.0,0.0,0.0,0.0,0.0,0.0,0.0,0.0,0.0,0.0,0.0,0.0,0.0,0.0,0.0,0.0,0.0,0.0,0.0,0.0,0.0,0.0,0.0,0.0,0.0,0.0,0.0,0.0,0.0,0.0,0.0,0.0,0.0,0.0,0.0,0.0,0.0,0.0,0.0,0.0,0.0,0.0,0.0,0.0,0.0,0.0,0.0,0.0,0.0,0.0,0.0,0.0,0.0,0.0,0.0,0.0,0.0,0.0,0.0,0.0,0.0,0.0,0.0,0.0,2.3175,2.3265,2.3487,2.3678,0.0,0.0,0.0,0.0,0.0,0.0,0.0,0.0,0.0,0.0,0.0,0.0,0.0,0.0,0.0,0.0,0.0,0.0,0.0,0.0,0.0,0.0,0.0,0.0,0.0,0.0,0.0,0.0,0.0,0.0,0.0,0.0,0.0,0.0,0.0,0.0,0.0,0.0,0.0,0.0,0.0,0.0,0.0,0.0,0.0,0.0,0.0,0.0,0.0,0.0,0.0,0.0,0.0,0.0,0.0,0.0,0.0,0.0,0.0,0.0,0.0,0.0,0.0,0.0,0.0,0.0,0.0,0.0,0.0,0.0,0.0,0.0,0.0,0.0,0.0,0.0,0.0,0.0,0.0,0.0,0.0,0.0,0.0,0.0,0.0,0.0,0.0,0.0,0.0,0.0,0.0,0.0,0.0,0.0,0.0,0.0,0.0,0.0,0.0,0.0,0.0,0.0,0.0,0.0,0.0,0.0,0.0,0.0,0.0,0.0,2.3102,2.3271,2.3418,2.3611,2.3743,2.3807,0.0,0.0,0.0,0.0,0.0,0.0,0.0,0.0,0.0,0.0,0.0,0.0,0.0,0.0,0.0,0.0,0.0,0.0,0.0,0.0,0.0,0.0,0.0,0.0,0.0,0.0,0.0,0.0,0.0,0.0,0.0,0.0,0.0,0.0,0.0,0.0,0.0,0.0,0.0,0.0,0.0,0.0,0.0,0.0,0.0,0.0,0.0,0.0,0.0,0.0,0.0,0.0,0.0,0.0,0.0,0.0,0.0,0.0,0.0,0.0,0.0,0.0,0.0,0.0,0.0,0.0,0.0,0.0,0.0,0.0,0.0,0.0,0.0,0.0,0.0,0.0,0.0,0.0,0.0,0.0,0.0,0.0,0.0,0.0,0.0,0.0,0.0,0.0,0.0,0.0,0.0,0.0,0.0,0.0,0.0,0.0,0.0,0.0,0.0,0.0,0.0,0.0,0.0,0.0,0.0,0.0,0.0,0.0,2.2902,2.3168,2.3418,2.3685,2.3743,2.3807,0.0,0.0,0.0,0.0,0.0,0.0,0.0,0.0,0.0,0.0,0.0,0.0,0.0,0.0,0.0,0.0,0.0,0.0,0.0,0.0,0.0,0.0,0.0,0.0,0.0,0.0,0.0,0.0,0.0,0.0,0.0,0.0,0.0,0.0,0.0,0.0,0.0,0.0,0.0,0.0,0.0,0.0,0.0,0.0,0.0,0.0,0.0,0.0,0.0,0.0,0.0,0.0,0.0,0.0,0.0,0.0,0.0,0.0,0.0,0.0,0.0,0.0,0.0,0.0,0.0,0.0,0.0,0.0,0.0,0.0,0.0,0.0,0.0,0.0,0.0,0.0,0.0,0.0,0.0,0.0,0.0,0.0,0.0,0.0,0.0,0.0,0.0,0.0,0.0,0.0,0.0,0.0,0.0,0.0,0.0,0.0,0.0,0.0,0.0,0.0,0.0,0.0,0.0,0.0,0.0,0.0,0.0,0.0,0.0,2.3033,2.3289,2.351,2.3671,2.3274,2.3046,0.0,0.0,0.0,0.0,0.0,0.0,0.0,0.0,0.0,0.0,0.0,0.0,0.0,0.0,0.0,0.0,0.0,0.0,0.0,0.0,0.0,0.0,0.0,0.0,0.0,0.0,0.0,0.0,0.0,0.0,0.0,0.0,0.0,0.0,0.0,0.0,0.0,0.0,0.0,0.0,0.0,0.0,0.0,0.0,0.0,0.0,0.0,0.0,0.0,0.0,0.0,0.0,0.0,0.0,0.0,0.0,0.0,0.0,0.0,0.0,0.0,0.0,0.0,0.0,0.0,0.0,0.0,0.0,0.0,0.0,0.0,0.0,0.0,0.0,0.0,0.0,0.0,0.0,0.0,0.0,0.0,0.0,0.0,0.0,0.0,0.0,0.0,0.0,0.0,0.0,0.0,0.0,0.0,0.0,0.0,0.0,0.0,0.0,0.0,0.0,0.0,0.0,0.0,0.0,0.0,0.0,0.0,0.0,0.0,2.2853,0.0,2.3596,2.3703,2.3025,2.264,0.0,0.0,0.0,0.0,0.0,0.0,0.0,0.0,0.0,0.0,0.0,0.0,0.0,0.0,0.0,0.0,0.0,0.0,0.0,0.0,0.0,0.0,0.0,0.0,0.0,0.0,0.0,0.0,0.0,0.0,0.0,0.0,0.0,0.0,0.0,0.0,0.0,0.0,0.0,0.0,0.0,0.0,0.0,0.0,0.0,0.0,0.0,0.0,0.0,0.0,0.0,0.0,0.0,0.0,0.0,0.0,0.0,0.0,0.0,0.0,0.0,0.0,0.0,0.0,0.0,0.0,0.0,0.0,0.0,0.0,0.0,0.0,0.0,0.0,0.0,0.0,0.0,0.0,0.0,0.0,0.0,0.0,0.0,0.0,0.0,0.0,0.0,0.0,0.0,0.0,0.0,0.0,0.0,0.0,0.0,0.0,0.0,0.0,0.0,0.0,0.0,0.0,0.0,0.0,0.0,0.0,0.0,0.0,2.2088,2.2375,2.3216,2.3717,2.3793,2.3131,2.2717,0.0,0.0,0.0,0.0,0.0,0.0,0.0,0.0,0.0,0.0,0.0,0.0,0.0,0.0,0.0,0.0,0.0,0.0,0.0,0.0,0.0,0.0,0.0,0.0,0.0,0.0,0.0,0.0,0.0,0.0,0.0,0.0,0.0,0.0,0.0,0.0,0.0,0.0,0.0,0.0,0.0,0.0,0.0,0.0,0.0,0.0,0.0,0.0,0.0,0.0,0.0,0.0,0.0,0.0,0.0,0.0,0.0,0.0,0.0,0.0,0.0,0.0,0.0,0.0,0.0,0.0,0.0,0.0,0.0,0.0,0.0,0.0,0.0,0.0,0.0,0.0,0.0,0.0,0.0,0.0,0.0,0.0,0.0,0.0,0.0,0.0,0.0,0.0,0.0,0.0,0.0,0.0,0.0,0.0,0.0,0.0,0.0,0.0,0.0,0.0,0.0,0.0,0.0,0.0,0.0,0.0,0.0,0.0,0.0,2.4019,2.4379,2.459,2.4599,2.3865,2.3216,0.0,0.0,0.0,0.0,0.0,0.0,0.0,0.0,0.0,0.0,0.0,0.0,0.0,0.0,0.0,0.0,0.0,0.0,0.0,0.0,0.0,0.0,0.0,0.0,0.0,0.0,0.0,0.0,0.0,0.0,0.0,0.0,0.0,0.0,0.0,0.0,0.0,0.0,0.0,0.0,0.0,0.0,0.0,0.0,0.0,0.0,0.0,0.0,0.0,0.0,0.0,0.0,0.0,0.0,0.0,0.0,0.0,0.0,0.0,0.0,0.0,0.0,0.0,0.0,0.0,0.0,0.0,0.0,0.0,0.0,0.0,0.0,0.0,0.0,0.0,0.0,0.0,0.0,0.0,0.0,0.0,0.0,0.0,0.0,0.0,0.0,0.0,0.0,0.0,0.0,0.0,0.0,0.0,0.0,0.0,0.0,0.0,0.0,0.0,0.0,0.0,0.0,0.0,0.0,0.0,0.0,0.0,0.0,0.0,2.5709,2.5828,2.5881,2.5904,2.4806,2.3904,2.3125,0.0,0.0,0.0,0.0,0.0,0.0,0.0,0.0,0.0,0.0,0.0,0.0,0.0,0.0,0.0,0.0,0.0,0.0,0.0,0.0,0.0,0.0,0.0,0.0,0.0,0.0,0.0,0.0,0.0,0.0,0.0,0.0,0.0,0.0,0.0,0.0,0.0,0.0,0.0,0.0,0.0,0.0,0.0,0.0,0.0,0.0,0.0,0.0,0.0,0.0,0.0,0.0,0.0,0.0,0.0,0.0,0.0,0.0,0.0,0.0,0.0,0.0,0.0,0.0,0.0,0.0,0.0,0.0,0.0,0.0,0.0,0.0,0.0,0.0,0.0,0.0,0.0,0.0,0.0,0.0,0.0,0.0,0.0,0.0,0.0,0.0,0.0,0.0,0.0,0.0,0.0,0.0,0.0,0.0,0.0,0.0,0.0,0.0,0.0,0.0,0.0,0.0,0.0,0.0,0.0,0.0,0.0,0.0,2.7586,2.7591,2.7573,2.7495,2.5986,2.4755,0.0,0.0,0.0,0.0,0.0,0.0,0.0,0.0,0.0,0.0,0.0,0.0,0.0,0.0,0.0,0.0,0.0,0.0,0.0,0.0,0.0,0.0,0.0,0.0,0.0,0.0,0.0,0.0,0.0,0.0,0.0,0.0,0.0,0.0,0.0,0.0,0.0,0.0,0.0,0.0,0.0,0.0,0.0,0.0,0.0,0.0,0.0,0.0,0.0,0.0,0.0,0.0,0.0,0.0,0.0,0.0,0.0,0.0,0.0,0.0,0.0,0.0,0.0,0.0,0.0,0.0,0.0,0.0,0.0,0.0,0.0,0.0,0.0,0.0,0.0,0.0,0.0,0.0,0.0,0.0,0.0,0.0,0.0,0.0,0.0,0.0,0.0,0.0,0.0,0.0,0.0,0.0,0.0,0.0,0.0,0.0,0.0,0.0,0.0,0.0,0.0,0.0,0.0,0.0,0.0,0.0,0.0,0.0,0.0,2.9952,3.0627,3.0355,2.9192,2.7616,2.6391,0.0,0.0,0.0,0.0,0.0,0.0,0.0,0.0,0.0,0.0,0.0,0.0,0.0,0.0,0.0,0.0,0.0,0.0,0.0,0.0,0.0,0.0,0.0,0.0,0.0,0.0,0.0,0.0,0.0,0.0,0.0,0.0,0.0,0.0,0.0,0.0,0.0,0.0,0.0,0.0,0.0,0.0,0.0,0.0,0.0,0.0,0.0,0.0,0.0,0.0,0.0,0.0,0.0,0.0,0.0,0.0,0.0,0.0,0.0,0.0,0.0,0.0,0.0,0.0,0.0,0.0,0.0,0.0,0.0,0.0,0.0,0.0,0.0,0.0,0.0,0.0,0.0,0.0,0.0,0.0,0.0,0.0,0.0,0.0,0.0,0.0,0.0,0.0,0.0,0.0,0.0,0.0,0.0,0.0,0.0,0.0,0.0,0.0,0.0,0.0,0.0,0.0,0.0,0.0,0.0,0.0,0.0,0.0,2.9228,3.098,3.2462,3.2802,3.1836,2.9608,2.787,0.0,0.0,0.0,0.0,0.0,0.0,0.0,0.0,0.0,0.0,0.0,0.0,0.0,0.0,0.0,0.0,0.0,0.0,0.0,0.0,0.0,0.0,0.0,0.0,0.0,0.0,0.0,0.0,0.0,0.0,0.0,0.0,0.0,0.0,0.0,0.0,0.0,0.0,0.0,0.0,0.0,0.0,0.0,0.0,0.0,0.0,0.0,0.0,0.0,0.0,0.0,0.0,0.0,0.0,0.0,0.0,0.0,0.0,0.0,0.0,0.0,0.0,0.0,0.0,0.0,0.0,0.0,0.0,0.0,0.0,0.0,0.0,0.0,0.0,0.0,0.0,0.0,0.0,0.0,0.0,0.0,0.0,0.0,0.0,0.0,0.0,0.0,0.0,0.0,0.0,0.0,0.0,0.0,0.0,0.0,0.0,0.0,0.0,0.0,0.0,0.0,0.0,0.0,0.0,0.0,0.0,0.0,0.0,3.0323,3.1392,3.3553,3.4715,3.4673,3.1628,2.9168,0.0,0.0,0.0,0.0,0.0,0.0,0.0,0.0,0.0,0.0,0.0,0.0,0.0,0.0,0.0,0.0,0.0,0.0,0.0,0.0,0.0,0.0,0.0,0.0,0.0,0.0,0.0,0.0,0.0,0.0,0.0,0.0,0.0,0.0,0.0,0.0,0.0,0.0,0.0,0.0,0.0,0.0,0.0,0.0,0.0,0.0,0.0,0.0,0.0,0.0,0.0,0.0,0.0,0.0,0.0,0.0,0.0,0.0,0.0,0.0,0.0,0.0,0.0,0.0,0.0,0.0,0.0,0.0,0.0,0.0,0.0,0.0,0.0,0.0,0.0,0.0,0.0,0.0,0.0,0.0,0.0,0.0,0.0,0.0,0.0,0.0,0.0,0.0,0.0,0.0,0.0,0.0,0.0,0.0,0.0,0.0,0.0,0.0,0.0,0.0,0.0,0.0,0.0,0.0,0.0,0.0,0.0,0.0,3.1202,3.3855,3.4473,3.5071,3.5675,3.2538,3.0054,0.0,0.0,0.0,0.0,0.0,0.0,0.0,0.0,0.0,0.0,0.0,0.0,0.0,0.0,0.0,0.0,0.0,0.0,0.0,0.0,0.0,0.0,0.0,0.0,0.0,0.0,0.0,0.0,0.0,0.0,0.0,0.0,0.0,0.0,0.0,0.0,0.0,0.0,0.0,0.0,0.0,0.0,0.0,0.0,0.0,0.0,0.0,0.0,2.9858,0.0,0.0,0.0,0.0,0.0,0.0,0.0,0.0,0.0,0.0,0.0,0.0,0.0,0.0,0.0,0.0,0.0,0.0,0.0,0.0,0.0,0.0,0.0,0.0,0.0,0.0,0.0,0.0,0.0,0.0,0.0,0.0,0.0,0.0,0.0,0.0,0.0,0.0,0.0,0.0,0.0,0.0,0.0,0.0,0.0,0.0,0.0,0.0,0.0,0.0,0.0,0.0,0.0,0.0,0.0,0.0,0.0,0.0,0.0,3.2242,3.4655,3.5549,3.5802,3.5392,3.3751,3.1573,0.0,0.0,0.0,0.0,0.0,0.0,0.0,0.0,0.0,0.0,0.0,0.0,0.0,0.0,0.0,0.0,0.0,0.0,0.0,0.0,0.0,0.0,0.0,0.0,0.0,0.0,0.0,0.0,0.0,0.0,0.0,0.0,0.0,0.0,0.0,0.0,0.0,0.0,0.0,0.0,0.0,0.0,0.0,0.0,0.0,0.0,0.0,0.0,0.0,0.0,0.0,0.0,0.0,0.0,0.0,0.0,0.0,0.0,0.0,0.0,0.0,0.0,0.0,0.0,0.0,0.0,0.0,0.0,0.0,0.0,0.0,0.0,0.0,0.0,0.0,0.0,0.0,0.0,0.0,0.0,0.0,0.0,0.0,0.0,0.0,0.0,0.0,0.0,0.0,0.0,0.0,0.0,0.0,0.0,0.0,0.0,0.0,0.0,0.0,0.0,0.0,0.0,0.0,0.0,0.0,0.0,0.0,3.1096,3.3194,3.4947,3.6413,3.6467,3.5075,3.4851,3.2875,2.9016,0.0,0.0,0.0,0.0,0.0,0.0,0.0,0.0,0.0,0.0,0.0,0.0,0.0,0.0,0.0,0.0,0.0,0.0,0.0,0.0,0.0,0.0,0.0,0.0,0.0,0.0,0.0,0.0,0.0,0.0,0.0,0.0,0.0,0.0,0.0,0.0,0.0,0.0,2.5867,2.7529,0.0,0.0,0.0,0.0,0.0,0.0,0.0,0.0,3.0663,0.0,0.0,0.0,0.0,0.0,0.0,0.0,0.0,0.0,0.0,0.0,0.0,0.0,0.0,0.0,0.0,0.0,0.0,0.0,0.0,0.0,0.0,0.0,0.0,0.0,0.0,0.0,0.0,0.0,0.0,0.0,0.0,0.0,0.0,0.0,0.0,0.0,0.0,0.0,0.0,0.0,0.0,0.0,0.0,0.0,0.0,0.0,0.0,0.0,0.0,0.0,0.0,0.0,0.0,0.0,0.0,2.8688,3.1188,3.3593,3.5824,3.6263,3.6329,3.6017,3.4752,3.2469,2.919,0.0,0.0,0.0,0.0,0.0,0.0,0.0,0.0,0.0,0.0,0.0,0.0,0.0,0.0,0.0,0.0,0.0,0.0,0.0,0.0,0.0,0.0,0.0,0.0,0.0,0.0,0.0,0.0,0.0,0.0,0.0,0.0,0.0,0.0,0.0,0.0,0.0,0.0,0.0,2.9776,3.0603,0.0,0.0,0.0,0.0,0.0,0.0,0.0,0.0,3.1347,0.0,0.0,0.0,0.0,0.0,0.0,0.0,0.0,0.0,0.0,0.0,0.0,0.0,0.0,0.0,0.0,0.0,0.0,0.0,0.0,0.0,0.0,0.0,0.0,0.0,0.0,0.0,0.0,0.0,0.0,0.0,0.0,0.0,0.0,0.0,0.0,0.0,0.0,0.0,0.0,0.0,0.0,0.0,0.0,0.0,0.0,0.0,0.0,0.0,0.0,0.0,0.0,0.0,0.0,0.0,3.0177,3.2281,3.4375,3.648,3.7039,3.6681,3.5404,3.4569,3.2585,0.0,0.0,0.0,0.0,0.0,0.0,0.0,0.0,0.0,0.0,0.0,0.0,0.0,0.0,0.0,0.0,0.0,0.0,0.0,0.0,0.0,0.0,0.0,0.0,0.0,0.0,0.0,0.0,0.0,0.0,0.0,0.0,0.0,0.0,0.0,0.0,0.0,0.0,0.0,0.0,3.0387,3.1336,3.2358,0.0,0.0,0.0,0.0,0.0,0.0,3.2252,3.168,0.0,0.0,0.0,0.0,0.0,0.0,0.0,0.0,0.0,0.0,0.0,0.0,0.0,0.0,0.0,0.0,0.0,0.0,0.0,0.0,0.0,0.0,0.0,0.0,0.0,0.0,0.0,0.0,0.0,0.0,0.0,0.0,0.0,0.0,0.0,0.0,0.0,0.0,0.0,0.0,0.0,0.0,0.0,0.0,0.0,0.0,0.0,0.0,0.0,0.0,0.0,0.0,0.0,0.0,0.0,3.1169,3.3341,3.5184,3.6693,3.7537,3.6918,3.4816,3.436,3.2686,0.0,0.0,0.0,0.0,0.0,0.0,0.0,0.0,0.0,0.0,0.0,0.0,0.0,0.0,0.0,0.0,0.0,0.0,0.0,0.0,0.0,0.0,0.0,0.0,0.0,0.0,0.0,0.0,0.0,0.0,0.0,0.0,0.0,0.0,0.0,0.0,0.0,0.0,0.0,0.0,0.0,3.1928,3.3762,3.2752,0.0,0.0,0.0,0.0,3.4025,3.3261,0.0,0.0,0.0,0.0,0.0,0.0,0.0,0.0,0.0,0.0,0.0,0.0,0.0,0.0,0.0,0.0,0.0,0.0,0.0,0.0,0.0,0.0,0.0,0.0,0.0,0.0,0.0,0.0,0.0,0.0,0.0,0.0,0.0,0.0,0.0,0.0,0.0,0.0,0.0,0.0,0.0,0.0,0.0,0.0,0.0,0.0,0.0,0.0,0.0,0.0,0.0,0.0,0.0,0.0,0.0,0.0,2.969,3.3556,3.5687,3.5867,3.6693,3.6648,3.5585,3.4186,3.2194,0.0,0.0,0.0,0.0,0.0,0.0,0.0,0.0,0.0,0.0,0.0,0.0,0.0,0.0,0.0,0.0,0.0,0.0,0.0,0.0,0.0,0.0,0.0,0.0,0.0,0.0,0.0,0.0,0.0,0.0,0.0,0.0,0.0,0.0,0.0,0.0,0.0,0.0,0.0,0.0,0.0,3.2798,3.4613,3.4077,3.3606,0.0,0.0,3.4833,3.5048,3.5526,0.0,0.0,0.0,0.0,0.0,0.0,0.0,0.0,0.0,0.0,0.0,0.0,0.0,0.0,0.0,0.0,0.0,0.0,0.0,0.0,0.0,0.0,0.0,0.0,0.0,0.0,0.0,0.0,0.0,0.0,0.0,0.0,0.0,0.0,0.0,0.0,0.0,0.0,0.0,0.0,0.0,0.0,0.0,0.0,0.0,0.0,0.0,0.0,0.0,0.0,0.0,0.0,0.0,0.0,0.0,2.9043,3.1044,3.4326,3.6544,3.7526,3.746,3.7013,3.6169,3.4055,3.191,0.0,0.0,0.0,0.0,0.0,0.0,0.0,0.0,0.0,0.0,0.0,0.0,0.0,0.0,0.0,0.0,0.0,0.0,0.0,0.0,0.0,0.0,0.0,0.0,0.0,0.0,0.0,0.0,0.0,0.0,0.0,0.0,0.0,0.0,0.0,0.0,0.0,0.0,0.0,0.0,0.0,0.0,3.5551,3.5528,0.0,0.0,0.0,3.6797,3.7283,0.0,0.0,0.0,0.0,0.0,0.0,0.0,0.0,0.0,0.0,0.0,0.0,0.0,0.0,0.0,0.0,0.0,0.0,0.0,0.0,0.0,0.0,0.0,0.0,0.0,0.0,0.0,0.0,0.0,0.0,0.0,0.0,0.0,0.0,0.0,0.0,0.0,0.0,0.0,0.0,0.0,0.0,0.0,0.0,0.0,0.0,0.0,0.0,0.0,0.0,0.0,0.0,0.0,0.0,0.0,0.0,0.0,3.1995,3.5012,3.7061,3.799,3.7827,3.7215,3.6175,3.4048,0.0,0.0,0.0,0.0,0.0,0.0,0.0,0.0,0.0,0.0,0.0,0.0,0.0,0.0,0.0,0.0,0.0,0.0,0.0,0.0,0.0,0.0,0.0,0.0,0.0,0.0,0.0,2.6316,0.0,0.0,0.0,0.0,0.0,0.0,0.0,0.0,0.0,0.0,0.0,0.0,0.0,0.0,3.4764,3.672,3.7078,3.7722,0.0,0.0,3.8591,3.9221,3.8935,3.7865,0.0,0.0,0.0,0.0,0.0,0.0,0.0,0.0,0.0,0.0,0.0,0.0,0.0,0.0,0.0,0.0,0.0,0.0,0.0,0.0,0.0,0.0,0.0,0.0,0.0,0.0,0.0,0.0,0.0,0.0,0.0,0.0,0.0,0.0,0.0,0.0,0.0,0.0,0.0,0.0,0.0,0.0,0.0,0.0,0.0,0.0,0.0,0.0,0.0,0.0,0.0,0.0,0.0,0.0,3.0189,3.1273,3.5413,3.692,3.5592,3.691,3.6929,3.5335,3.4328,3.2648,0.0,0.0,0.0,0.0,0.0,0.0,0.0,0.0,0.0,0.0,0.0,0.0,0.0,0.0,0.0,0.0,0.0,0.0,0.0,0.0,0.0,0.0,0.0,0.0,0.0,0.0,0.0,0.0,0.0,0.0,0.0,0.0,0.0,0.0,0.0,0.0,0.0,0.0,0.0,0.0,0.0,3.5828,3.8298,3.8756,3.9431,0.0,4.0654,4.0157,4.0205,4.0788,3.9871,3.5859,0.0,0.0,0.0,0.0,0.0,0.0,0.0,0.0,0.0,0.0,0.0,0.0,0.0,0.0,0.0,0.0,0.0,0.0,0.0,0.0,0.0,0.0,0.0,0.0,0.0,0.0,0.0,0.0,0.0,0.0,0.0,0.0,0.0,0.0,0.0,0.0,0.0,0.0,0.0,0.0,0.0,0.0,0.0,0.0,0.0,0.0,0.0,0.0,0.0,0.0,0.0,0.0,0.0,3.0587,3.1988,3.5763,3.7636,3.757,3.8171,3.7941,3.6776,3.5422,3.3508,0.0,0.0,0.0,0.0,0.0,0.0,0.0,0.0,0.0,0.0,0.0,0.0,0.0,0.0,0.0,0.0,0.0,0.0,0.0,0.0,0.0,0.0,0.0,0.0,0.0,0.0,0.0,0.0,3.1222,3.1624,3.1809,0.0,0.0,0.0,0.0,0.0,0.0,0.0,0.0,0.0,0.0,3.7413,3.9443,4.0682,0.0,0.0,4.178,4.1713,4.1179,4.0911,3.985,3.7167,3.587,0.0,0.0,0.0,0.0,0.0,0.0,0.0,0.0,0.0,0.0,0.0,0.0,0.0,0.0,0.0,0.0,0.0,0.0,0.0,0.0,0.0,0.0,0.0,0.0,0.0,0.0,0.0,0.0,0.0,0.0,0.0,0.0,0.0,0.0,0.0,0.0,0.0,0.0,0.0,0.0,0.0,0.0,0.0,0.0,0.0,0.0,0.0,0.0,0.0,0.0,0.0,0.0,3.0842,3.2541,3.597,3.791,3.8265,3.876,3.8501,3.7411,3.6228,3.4415,0.0,0.0,0.0,0.0,0.0,0.0,0.0,0.0,0.0,0.0,0.0,0.0,0.0,0.0,0.0,0.0,0.0,0.0,0.0,0.0,0.0,0.0,0.0,0.0,0.0,0.0,0.0,0.0,3.2126,3.2313,3.1515,0.0,0.0,0.0,0.0,0.0,0.0,0.0,0.0,0.0,0.0,3.8647,4.0109,4.1598,4.2428,4.2103,4.2333,4.2247,4.1378,4.0727,3.9665,3.7687,0.0,0.0,0.0,0.0,0.0,0.0,0.0,0.0,0.0,0.0,0.0,0.0,0.0,0.0,0.0,0.0,0.0,0.0,0.0,0.0,0.0,0.0,0.0,0.0,0.0,0.0,0.0,2.6104,0.0,0.0,2.502,0.0,0.0,0.0,0.0,0.0,0.0,0.0,0.0,0.0,0.0,0.0,0.0,0.0,0.0,0.0,0.0,0.0,0.0,0.0,0.0,0.0,0.0,3.0952,3.2627,3.6039,3.7455,3.6794,3.8263,3.8337,3.6765,3.6599,3.5377,3.2831,0.0,0.0,0.0,0.0,0.0,0.0,0.0,0.0,0.0,0.0,0.0,0.0,0.0,0.0,0.0,0.0,0.0,0.0,0.0,0.0,0.0,0.0,0.0,0.0,0.0,0.0,3.1382,3.2187,3.2355,0.0,0.0,0.0,0.0,0.0,0.0,0.0,0.0,0.0,3.5084,3.7447,3.9387,4.022,4.1137,4.2045,4.2726,4.2218,4.1431,4.0598,4.0407,3.9544,0.0,0.0,0.0,0.0,0.0,0.0,0.0,0.0,0.0,0.0,0.0,0.0,0.0,0.0,0.0,0.0,0.0,0.0,0.0,0.0,0.0,0.0,0.0,0.0,0.0,0.0,0.0,2.8713,2.8706,0.0,0.0,0.0,0.0,0.0,0.0,0.0,0.0,0.0,0.0,0.0,3.2657,3.2722,0.0,0.0,0.0,0.0,0.0,0.0,0.0,0.0,0.0,0.0,0.0,0.0,3.1844,3.357,3.6403,3.7994,3.829,3.9372,3.9418,3.8306,3.7753,3.601,3.2893,0.0,0.0,0.0,0.0,0.0,0.0,0.0,0.0,0.0,0.0,0.0,0.0,0.0,0.0,0.0,0.0,0.0,0.0,0.0,0.0,0.0,0.0,0.0,0.0,0.0,3.1508,0.0,0.0,0.0,0.0,0.0,0.0,0.0,0.0,0.0,0.0,3.463,3.6032,3.6875,3.8756,4.0315,4.1112,4.2038,4.2524,0.0,0.0,0.0,0.0,0.0,0.0,0.0,0.0,0.0,0.0,0.0,0.0,0.0,0.0,3.7576,3.5227,3.4833,3.485,3.4857,0.0,0.0,0.0,0.0,0.0,0.0,0.0,0.0,0.0,0.0,0.0,0.0,0.0,0.0,3.0721,3.0485,3.0344,0.0,0.0,0.0,0.0,0.0,0.0,0.0,0.0,3.3759,3.4609,3.4636,3.4679,3.4742,3.4723,3.392,3.2156,0.0,0.0,0.0,0.0,0.0,0.0,0.0,0.0,3.2938,3.4898,3.7194,3.8753,3.9558,4.0142,4.0024,3.918,3.8081,3.6424,3.4211,3.3307,3.2361,0.0,0.0,0.0,0.0,0.0,0.0,0.0,0.0,0.0,0.0,0.0,0.0,0.0,0.0,0.0,0.0,0.0,0.0,0.0,0.0,0.0,0.0,0.0,3.2301,0.0,0.0,0.0,0.0,0.0,0.0,0.0,0.0,0.0,3.4541,3.6259,3.7721,3.8305,3.9607,4.068,4.1198,0.0,0.0,0.0,0.0,0.0,0.0,0.0,3.9805,3.9831,3.9592,3.9646,4.033,4.075,4.1098,4.1445,0.0,0.0,3.8042,3.7582,3.7615,3.7634,3.8325,3.8828,3.8546,3.9208,3.9751,0.0,0.0,0.0,0.0,3.1389,0.0,0.0,0.0,3.2283,3.2245,0.0,3.249,0.0,0.0,0.0,0.0,3.0104,3.2608,0.0,0.0,3.5924,3.6765,3.6779,3.6792,3.6773,3.6703,3.5987,3.5085,3.409,3.2481,0.0,0.0,0.0,0.0,0.0,0.0,3.4148,3.6623,3.8362,3.9684,4.0567,4.0569,4.0169,3.9296,3.7689,3.6776,3.6596,3.5863,3.5448,3.5391,3.3083,0.0,0.0,0.0,0.0,0.0,0.0,0.0,0.0,0.0,0.0,0.0,0.0,0.0,0.0,0.0,0.0,0.0,0.0,0.0,0.0,3.2638,0.0,0.0,0.0,0.0,0.0,0.0,0.0,0.0,0.0,3.6485,3.5712,3.7689,3.9265,3.9342,0.0,0.0,0.0,0.0,4.0589,4.0665,4.0682,4.0454,3.9689,4.0322,4.0892,4.0897,0.0,0.0,4.2272,4.1688,4.156,4.2368,4.2605,4.2241,4.1348,4.105,4.1017,4.1108,4.1698,4.2059,4.147,4.191,4.2328,3.5516,0.0,0.0,0.0,0.0,3.4834,3.5713,3.6534,3.6229,3.5997,3.5754,3.499,0.0,0.0,0.0,0.0,0.0,0.0,3.6913,3.7668,3.9416,4.0236,4.0246,4.0287,4.0303,4.0268,3.9438,3.8593,3.7797,3.7283,3.5218,3.1748,0.0,0.0,0.0,0.0,3.5904,3.8351,3.9554,4.0846,4.2338,4.175,4.0739,3.9342,3.8857,3.8325,3.7701,3.7502,3.714,3.655,3.5809,0.0,0.0,0.0,0.0,0.0,0.0,0.0,0.0,0.0,0.0,0.0,0.0,0.0,0.0,0.0,0.0,0.0,0.0,0.0,3.3396,3.4918,3.5296,0.0,0.0,0.0,0.0,0.0,0.0,0.0,0.0,0.0,3.8288,3.9438,4.0268,0.0,0.0,4.0629,4.064,4.1152,4.1496,4.1523,4.2058,0.0,4.2208,4.2474,4.2732,4.2782,4.3532,4.4111,4.4139,4.4502,4.4873,4.5129,4.5177,4.5083,4.4785,4.3744,4.3003,4.301,4.3636,4.4146,4.3996,4.4585,4.5289,3.966,3.7967,3.7515,3.7,3.6624,3.7452,3.8239,3.8942,3.8799,3.8637,3.8449,3.7965,3.6874,3.5411,3.5011,0.0,0.0,0.0,3.928,4.0219,4.1259,4.1909,4.2244,4.2299,4.2308,4.2297,4.1797,4.1085,4.0277,3.9938,3.8281,3.5439,0.0,3.4779,3.5655,3.651,3.8197,4.063,4.1269,4.22,4.3528,4.2412,4.1174,3.9899,3.9573,3.9176,3.8703,3.8734,3.8689,3.8499,3.7838,3.6505,0.0,0.0,0.0,0.0,0.0,0.0,0.0,0.0,0.0,0.0,0.0,3.1313,3.084,0.0,0.0,0.0,3.3977,3.5049,3.6778,3.7333,0.0,0.0,0.0,0.0,0.0,0.0,0.0,3.7166,3.8449,3.9353,3.9571,4.0304,4.0786,4.07,4.1021,4.1238,4.1223,0.0,4.2505,4.2537,4.2972,4.3333,4.3413,4.3763,4.4196,4.4624,4.5094,4.5436,4.5476,4.5957,4.6277,4.6297,4.63,4.6302,4.6304,4.5404,4.472,4.4761,4.5426,4.5915,4.5585,4.621,4.6992,4.3545,4.2709,4.032,3.9283,3.9272,4.007,4.0131,3.975,4.0416,4.0453,4.0157,4.0925,4.0414,3.8909,3.9127,0.0,3.9448,4.0328,4.1223,4.2104,4.2104,4.2527,4.3278,4.3316,4.3297,4.3316,4.3297,4.2835,4.1981,4.12,4.04,3.9573,3.8007,3.7538,3.82,3.9073,4.0719,4.3124,4.3181,4.3555,4.4284,4.2829,4.1634,4.0828,4.0047,3.9663,3.9712,3.971,4.006,4.0716,3.9361,3.8455,3.8206,0.0,0.0,0.0,0.0,0.0,0.0,0.0,0.0,0.0,0.0,0.0,0.0,0.0,0.0,3.5749,3.7584,0.0,4.093,3.9717,0.0,0.0,0.0,3.8031,3.9625,3.9886,3.9889,3.9815,0.0,0.0,3.9937,4.0501,4.0932,4.0757,4.1456,4.199,4.1922,4.2659,4.3349,4.3387,4.3646,4.3732,4.3955,4.4548,4.5359,4.6316,4.6399,4.6301,4.6496,4.6458,4.6439,4.6459,4.6459,4.6499,4.6424,4.6463,4.6502,4.6502,4.6971,4.7206,4.6582,4.6894,4.7461,4.5537,4.5342,4.4318,4.3066,4.1804,4.2567,4.2974,4.3006,4.2632,4.247,4.2427,4.1517,4.066,3.9909,4.075,4.1517,4.2168,4.2983,4.3838,4.4671,4.4701,4.4825,4.5009,4.4998,4.4998,4.5017,4.5017,4.4547,4.372,4.3508,4.2989,4.222,4.1777,4.1008,3.9977,4.0758,4.2124,4.4008,4.4028,4.4171,4.4436,4.4163,4.3297,4.1815,4.1652,4.1326,4.0698,4.0727,4.0847,4.1001,4.0634,3.985,3.8502,3.6242,0.0,0.0,0.0,0.0,0.0,0.0,0.0,0.0,0.0,3.2972,3.2344,0.0,3.5682,0.0,3.8705,4.063,4.0938,4.1262,0.0,0.0,4.0357,4.0234,4.0641,4.1323,4.1491,4.0845,4.1527,4.1732,4.0872,4.0952,4.1056,4.0941,4.1117,4.125,4.1263,4.1933,4.2716,4.3451,4.4589,4.5468,4.5462,4.575,4.6434,4.8039,4.7162,4.6751,4.804,4.7711,4.7282,4.7341,4.785,4.7968,4.7383,4.7812,4.8203,4.8203,4.7422,4.6758,4.7168,4.6992,4.7207,4.6709,4.6731,4.6403,4.5679,4.4668,4.4362,4.4608,4.5192,4.4808,4.4728,4.4827,4.3652,4.2919,4.2657,4.3225,4.3758,4.422,4.4682,4.5161,4.564,4.564,4.5657,4.5635,4.5654,4.5654,4.5635,4.5654,4.5404,4.4941,4.4575,4.4171,4.3728,4.3728,4.3246,4.2341,4.2706,4.3566,4.4855,4.4938,4.5022,4.5104,4.4844,4.387,4.2233,4.185,4.1145,3.996,3.9966,3.9977,3.9997,3.9997,3.9545,3.8578,3.6883,3.5305,0.0,0.0,0.0,0.0,0.0,0.0,0.0,0.0,0.0,0.0,0.0,3.7394,3.8202,4.0345,4.1805,4.2114,4.2644,4.2951,4.2852,4.2789,4.2928,4.3308,4.3492,4.3222,4.2363,4.2352,4.2083,4.1222,4.1147,4.1145,4.1098,4.1076,4.1204,4.1583,4.2305,4.3056,4.3563,4.4747,4.5771,4.6108,4.5909,4.617,4.7341,4.6931,4.6658,4.7557,4.7343,4.7031,4.707,4.7422,4.7734,4.7617,4.7617,4.7949,4.8535,4.7832,4.7305,4.7988,4.7793,4.8086,4.7606,4.7625,4.753,4.7504,4.739,4.5865,4.5773,4.6645,4.6655,4.6808,4.7009,4.6268,4.5873,4.5757,4.5776,4.5727,4.5612,4.5631,4.5648,4.569,4.569,4.5687,4.5688,4.5688,4.5688,4.5688,4.5688,4.5688,4.5688,4.4994,4.4646,4.4646,4.4666,4.4654,4.4657,4.4542,4.4856,4.5627,4.5773,4.5871,4.5906,4.5249,4.4043,4.2322,4.1551,4.0369,3.869,3.8613,3.8613,3.8613,3.8613,3.8652,3.8711,3.7116,3.627,0.0,3.4809,0.0,0.0,0.0,0.0,0.0,0.0,0.0,0.0,3.8709,3.9501,4.1122,4.2052,4.2915,4.3789,4.3964,4.4318,4.5065,4.5065,4.5302,4.6009,4.5365,4.4486,4.3627,4.2868,4.2088,4.1248,4.1152,4.1191,4.1191,4.1191,4.1383,4.2043,4.2717,4.3216,4.349,4.437,4.5405,4.6208,4.5781,4.5625,4.6445,4.6328,4.625,4.6543,4.6328,4.6113,4.6152,4.6426,4.6758,4.7363,4.6992,4.7246,4.8613,4.8281,4.8047,4.8789,4.8887,4.9219,4.9324,4.9299,4.885,4.8686,4.8621,4.7813,4.7479,4.7485,4.7485,4.7622,4.7855,4.7766,4.7321,4.6677,4.6709,4.6359,4.5703,4.5684,4.5684,4.5692,4.5692,4.568,4.5688,4.5688,4.5688,4.5688,4.5688,4.5688,4.5688,4.5534,4.5476,4.5476,4.5476,4.5498,4.5557,0.0,0.0,0.0,4.5944,4.6043,4.6047,4.6009,4.4836,4.2471,4.2225,0.0,3.876,3.8605,3.8605,3.8605,3.8605,0.0,0.0,0.0,0.0,0.0,0.0,0.0,0.0,0.0,0.0,0.0,3.9707,3.9669,3.8707,3.983,4.1026,4.2081,4.2942,4.3801,4.4678,4.5401,4.5889,4.6008,4.5422,4.5072,4.5211,4.4489,4.3612,4.2753,4.25,4.209,4.1328,4.1191,4.1191,4.1191,4.1191,4.125,4.1406,4.1621,4.1933,4.2598,4.3906,4.5488,4.7129,4.6465,4.6269,4.7734,4.6523,4.5898,4.6777,4.6055,4.5254,4.5273,4.6387,4.7051,4.668,4.7519,4.8262,4.8828,4.873,4.8906,4.9746,4.9375,4.9355,5.0245,5.0218,4.9961,4.9822,0.0,4.9548,4.9365,4.9211,4.8759,4.8433,4.8139,4.7317,4.6968,4.694,4.654,4.6364,4.6325,4.5901,4.5715,4.5758,4.5758,4.5746,4.5742,4.5749,4.5749,4.5742,4.5742,4.5742,4.5749,4.5749,4.5749,4.5749,4.5742,4.5766,4.5803,4.5908,4.5954,4.5938,4.6057,4.6138,4.6175,4.5845,4.4621,4.2489,4.1984,0.0,0.0,0.0,0.0,0.0,0.0,0.0,0.0,3.8411,0.0,3.9719,3.8663,3.8663,4.0264,4.048,4.0851,4.1669,4.2512,4.2298,4.0595,4.2026,4.3219,4.3649,4.408,4.4705,4.5545,4.6053,4.6111,4.5701,4.5272,4.4862,4.4355,4.3593,4.289,4.2461,4.2031,4.1621,4.125,4.1191,4.1191,4.1191,4.1191,4.1191,4.1191,4.1191,4.1484,4.2246,4.2656,4.3691,4.5195,4.4941,4.4824,4.5781,4.5215,4.4824,4.5527,4.4961,4.4355,4.4414,4.5117,4.5586,4.5781,4.6406,4.7226,4.8027,4.8261,4.8554,4.9355,4.9531,4.9883,5.0702,5.0683,5.0711,5.071,5.072,5.0784,5.0801,5.0771,5.0044,0.0,0.0,4.7221,4.6835,4.7182,4.6476,4.6407,4.6735,4.604,4.5746,4.5795,4.5815,4.5817,4.5807,4.5807,4.5807,4.5807,4.5807,4.5807,4.5807,4.5807,4.5807,4.5807,4.5827,4.5829,4.5871,4.6049,4.6128,4.6147,4.613,4.6204,4.6263,4.5444,4.4233,4.2651,4.1793,4.0602,3.9118,3.9059,3.8981,3.8844,3.8961,3.9059,3.9059,3.9177,3.9724,4.0681,4.0134,4.0719,4.2887,4.2479,4.2674,4.4078,4.4822,4.4627,4.318,4.4412,4.5233,4.5233,4.5234,4.5527,4.623,4.6152,4.5781,4.5058,4.4726,4.4238,4.3535,4.2715,4.2168,4.2129,4.1621,4.1211,4.1211,4.1191,4.1191,4.1172,4.1172,4.1191,4.1172,4.1191,4.1426,4.1953,4.1973,4.207,4.3008,4.3242,4.293,4.3828,4.3691,4.3457,4.3457,4.3359,4.3262,4.3183,4.334,4.3789,4.4375,4.4726,4.5312,4.6836,4.7147,4.7459,4.8455,4.9218,4.9863,5.0692,5.0692,5.0766,5.0784,5.0784,5.0773,5.0838,5.0872,5.0694,5.0542,5.0435,5.0256,4.9404,4.8118,4.8052,4.7274,4.5979,4.5831,4.5793,4.5812,4.5819,4.58,4.5807,4.5807,4.5807,4.5807,4.5807,4.5807,4.5807,4.5807,4.5807,4.5821,4.5923,4.6026,4.6153,4.6238,4.6268,4.6288,4.6268,4.6287,4.6287,4.5448,4.4531,4.3552,4.2675,4.1797,4.0879,4.084,4.0508,3.9785,4.0429,4.084,4.084,4.1465,4.2578,4.4121,4.4141,4.4609,4.5644,4.5625,4.5683,4.5898,4.6054,4.5996,4.5781,4.5976,4.6113,4.6113,4.6055,4.6152,4.6269,4.5625,4.5098,4.4863,4.3652,4.2734,4.2598,4.1894,4.1426,4.1426,4.1289,4.1191,4.1191,4.1191,4.1172,4.1132,4.1132,4.1111,4.113,4.1171,4.125,4.1445,4.1894,4.2285,4.2539,4.3164,4.332,4.3672,4.3008,4.2578,4.2598,4.2129,4.1777,4.1621,4.2187,4.2596,4.285,4.3395,4.4196,4.5191,4.5405,4.5912,4.728,4.7788,4.8257,5.0766,5.0766,5.081,5.0855,5.0855,5.0833,5.0877,5.0913,5.0858,5.0347,4.9478,4.9057,4.8388,4.7654,4.7185,4.6832,4.6477,4.602,4.5807,4.5807,4.5807,4.5807,4.5807,4.5807,4.5807,4.5807,4.5807,4.5807,4.5807,4.5807,4.5848,4.5923,4.5993,4.632,4.6845,4.6471,4.65,4.6973,4.6543,4.6289,4.6269,4.498,4.4336,4.4394,4.3125,4.2461,4.2558,4.2558,4.2383,4.1973,4.2324,4.2558,4.2558,4.291,4.3672,4.4883,4.457,4.4883,4.623,4.6289,4.6269,4.6243,4.6288,4.6267,4.6181,4.6265,4.6289,4.6269,4.5898,4.5605,4.5566,4.4805,4.4121,4.3633,4.2832,4.2207,4.1757,4.1445,4.1191,4.1151,4.1132,4.1151,4.1151,4.115,4.1131,4.111,4.1109,4.1108,4.1108,4.1129,4.1131,4.1172,4.1465,4.1641,4.1737,4.199,4.2264,4.2283,4.1971,4.1717,4.1698,4.1326,4.119,4.1151,4.1481,4.1656,4.1715,4.2397,4.308,4.3431,4.4034,4.4678,4.5341,4.5827,4.6821,5.081,5.0838,5.088,5.0916,5.0897,5.0909,5.0898,5.0898,5.0898,4.995,4.845,4.7869,4.7579,4.7308,4.6503,4.6368,4.6677,4.6116,4.5923,4.6071,4.6097,4.6194,4.6348,4.6213,4.6097,4.6051,4.5904,4.5801,4.5828,4.5835,4.5916,4.6026,4.6098,4.6487,4.721,4.6566,4.6594,4.7207,4.6641,4.6289,4.625,4.4785,4.4414,4.5117,4.3808,4.3398,4.4199,4.4277,4.4199,4.4023,4.418,4.4199,4.4023,4.418,4.459,4.5137,4.4668,4.4863,4.6092,4.6288,4.6262,4.6193,4.6234,4.6207,4.6102,4.6175,4.6244,4.6166,4.5488,4.498,4.4863,4.3965,4.3086,4.2441,4.2141,4.1746,4.1158,4.1063,4.1105,4.1081,4.1085,4.1086,4.1107,4.1107,4.1107,4.1106,4.1105,4.1104,4.1104,4.1104,4.1104,4.1105,4.1106,4.1147,4.1107,4.1166,4.1186,4.1107,4.1147,4.1186,4.1166,4.1127,4.1108,4.1127,4.1126,4.1184,4.1183,4.1632,4.2159,4.2509,4.3053,4.3499,4.389,4.4588,4.554,5.0891,5.088,5.0901,5.0917,5.0909,5.0898,5.0898,5.0898,5.0898,4.995,4.8604,4.9126,4.8972,4.8217,4.7347,4.6651,4.6078,4.5845,4.6245,4.6922,4.698,4.7386,4.7908,4.7316,4.698,4.6832,4.6169,4.5873,4.5966,4.5991,4.6044,4.6162,4.6197,4.6273,4.6386,4.6328,4.6328,4.6426,4.6348,4.6289,4.625,4.5371,4.5312,4.6152,4.5254,4.5176,4.5918,4.6055,4.5683,4.5039,4.5605,4.5683,4.5058,4.5605,4.6074,4.6133,4.6074,4.615,4.6212,4.6207,4.6171,4.6118,4.6118,4.6089,4.601,4.6025,4.6063,4.594,4.5283,4.4827,4.4721,4.335,4.2373,4.2122,4.1481,4.0905,4.0873,4.0824,4.087,4.1003,4.1007,4.1021,4.1078,4.1082,4.1082,4.1072,4.1065,4.1085,4.1088,4.1088,4.1091,4.1094,4.1101,4.1106,4.1106,4.1107,4.1106,4.1106,4.1107,4.1106,4.1106,4.1106,4.1107,4.1104,4.1102,4.11,4.1099,4.1233,4.1522,4.2031,4.244,4.2729,4.353,4.4232,4.5031,5.0893,5.0901,5.0909,5.0898,5.0898,5.0898,5.0898,5.0898,5.0898,5.0492,4.9919,4.9765,4.8933,4.7676,4.7773,4.7676,4.7347,4.7347,4.7521,4.785,4.7869,4.7792,4.7586,4.732,4.6932,4.6459,4.6109,4.5992,4.6053,4.6086,4.615,4.6196,4.6247,4.6269,4.6306,4.6306,4.6306,4.6306,4.6306,4.6306,4.6209,4.5449,4.543,4.6094,4.5469,4.541,4.6191,4.6289,4.6133,4.582,4.6113,4.6152,4.578,4.6027,4.6174,4.6189,4.6108,4.6061,4.6018,4.6014,4.6002,4.5925,4.5957,4.592,4.584,4.5861,4.5709,4.5204,4.489,4.4565,4.3981,4.2864,4.1941,4.1455,4.1019,4.0793,4.0805,4.0789,4.0828,4.0875,4.0866,4.0896,4.0912,4.0938,4.0935,4.0926,4.0922,4.0951,4.1022,4.105,4.1064,4.1085,4.1115,4.1117,4.1098,4.1117,4.1098,4.1099,4.1098,4.1117,4.1099,4.1117,4.1117,4.1099,4.1116,4.1114,4.1114,4.1112,4.1265,4.1654,4.1635,4.1771,4.2124,4.2864,4.3509,5.0898,5.0898,5.0898,5.0898,5.0898,5.0898,5.0898,5.0898,5.0898,5.0763,5.0531,5.0163,4.9223,4.8005,4.8256,4.8411,4.8411,4.8411,4.8411,4.8399,4.8428,4.8224,4.7831,4.7376,4.7184,4.6973,4.6414,4.61,4.614,4.62,4.6229,4.623,4.6287,4.6301,4.6301,4.6301,4.6301,4.6301,4.6301,4.6301,4.6205,4.5681,4.5664,4.6171,4.5468,4.5409,4.6249,4.6289,4.6288,4.623,4.6245,4.6222,4.6189,4.6104,4.6039,4.6044,4.5955,4.5909,4.5862,4.5877,4.585,4.5783,4.5811,4.5801,4.5691,4.5527,4.5148,4.4604,4.4344,4.3882,4.3078,4.2208,4.1427,4.0825,4.0728,4.0713,4.0731,4.0713,4.0732,4.0771,4.0767,4.0781,4.0801,4.081,4.0815,4.0801,4.0777,4.0806,4.089,4.0926,4.0928,4.0978,4.1003,4.102,4.1081,4.1111,4.1109,4.1109,4.1109,4.1111,4.1109,4.1109,4.1109,4.1114,4.1111,4.1109,4.1111,4.1109,4.1109,4.1109,4.1129,4.1148,4.1324,4.1888,4.2572,5.0898,5.0898,5.0898,5.0898,5.0898,5.0898,5.0898,5.0898,5.0898,5.0492,5.0016,5.0488,5.0345,4.9443,4.8723,4.8418,4.8457,4.8542,4.8568,4.857,4.8535,4.8935,4.9542,4.8125,4.8077,4.8892,4.7053,4.614,4.6203,4.625,4.6303,4.6283,4.6301,4.6301,4.6301,4.6301,4.6301,4.6301,4.6301,4.6301,4.6282,4.6223,4.6166,4.6203,4.5463,4.5463,4.6184,4.6302,4.6234,4.6116,4.6116,4.6053,4.5948,4.5912,4.5903,4.5899,4.5914,4.5872,4.5813,4.5795,4.5764,4.5715,4.5708,4.5715,4.566,4.5012,4.4495,4.4295,4.3585,4.2861,4.207,4.1421,4.0865,4.0658,4.0564,4.0537,4.0523,4.054,4.0581,4.0668,4.0681,4.0686,4.077,4.0796,4.0759,4.0718,4.0704,4.071,4.0721,4.0726,4.0742,4.0752,4.0777,4.0794,4.1022,4.1046,4.1053,4.1051,4.1015,4.108,4.1106,4.1109,4.1106,4.1108,4.1108,4.1108,4.1109,4.1109,4.1109,4.1109,4.1109,4.1109,4.1109,4.181,4.2376,5.0898,5.0898,5.0898,5.0898,5.0898,5.0898,5.0898,5.0898,5.0898,5.0743,5.0457,5.0298,5.0028,4.9724,4.8893,4.9121,5.0067,5.0125,5.0142,5.0131,4.9657,4.957,4.9643,4.8152,4.7668,4.8029,4.6911,4.623,4.6264,4.6294,4.629,4.629,4.629,4.629,4.629,4.629,4.629,4.629,4.629,4.629,4.6231,4.5763,4.5673,4.6138,4.5958,4.5942,4.6175,4.6156,4.6114,4.599,4.5986,4.5948,4.5896,4.5853,4.5796,4.5715,4.5701,4.5699,4.5685,4.5658,4.5673,4.5635,4.5646,4.5637,4.5486,4.4842,4.4122,4.3536,4.2758,4.1909,4.1297,4.1193,4.1147,4.0646,4.0523,4.0489,4.0496,4.0496,4.0531,4.0565,4.0519,4.0519,4.0545,4.0545,4.0537,4.0523,4.0523,4.0528,4.0565,4.0572,4.061,4.0688,4.071,4.0742,4.0794,4.0843,4.0843,4.0843,4.0843,4.091,4.0951,4.0967,4.097,4.1033,4.1064,4.1074,4.107,4.1074,4.1078,4.1103,4.1104,4.1081,4.1109,4.1553,4.1924,5.0898,5.0898,5.0898,5.0898,5.0898,5.0898,5.0898,5.0906,5.0952,5.0819,5.0498,5.0037,4.9683,4.9362,4.8853,4.9184,5.025,5.0262,5.0157,4.991,4.9343,4.9108,4.8896,4.7689,4.7363,4.7715,4.71,4.6617,4.6321,4.6302,4.6302,4.6302,4.6302,4.6302,4.6302,4.6302,4.6302,4.6302,4.6302,4.6277,4.6165,4.5675,4.5568,4.5971,4.6137,4.6128,4.6043,4.6043,4.5987,4.5881,4.5866,4.5839,4.5814,4.5761,4.57,4.5612,4.5594,4.5594,4.5594,4.5594,4.5594,4.5594,4.5594,4.5594,4.5537,4.4538,4.3684,4.3011,4.1986,4.1056,4.0756,4.0987,4.1102,4.06,4.0492,4.0484,4.0476,4.0468,4.0471,4.0455,4.043,4.0396,4.037,4.0379,4.0389,4.0363,4.0363,4.0366,4.0427,4.0439,4.0462,4.0544,4.0544,4.0537,4.0571,4.0578,4.0693,4.0696,4.0707,4.0761,4.0801,4.0814,4.0856,4.0932,4.098,4.0998,4.1028,4.1035,4.1061,4.1068,4.1066,4.104,4.1068,4.1117,4.1466,5.0898,5.0898,5.0898,5.0898,5.0898,5.0898,5.0898,5.0925,5.1043,5.0647,4.999,4.9835,4.9312,4.8691,4.8388,4.8569,4.8649,4.8643,4.8374,4.786,4.7655,4.7689,4.7772,4.6872,4.7096,4.8338,4.7844,4.7081,4.6341,4.6302,4.6302,4.6302,4.6302,4.6302,4.6302,4.6302,4.63,4.6277,4.6273,4.6216,4.6109,4.5997,4.5916,4.591,4.591,4.5885,4.5875,4.5899,4.5875,4.5815,4.5794,4.5734,4.5651,4.562,4.5603,4.5594,4.5594,4.5594,4.5586,4.5586,4.5577,4.5577,4.5586,4.5577,4.5357,4.4081,4.3084,4.2806,4.1543,4.0435,4.0435,4.0492,4.0509,4.0493,4.0482,4.0466,4.0432,4.0407,4.0407,4.0407,4.0379,4.0381,4.0335,4.0326,4.0327,4.0319,4.032,4.031,4.0327,4.0345,4.0319,4.0328,4.037,4.0411,4.0363,4.0347,4.0473,4.0591,4.0616,4.0635,4.0666,4.0674,4.0707,4.0772,4.0809,4.0835,4.0906,4.0917,4.0958,4.0971,4.0994,4.1009,4.1044,4.1076,4.1093,5.0898,5.0898,5.0898,5.0898,5.0898,5.0898,5.0954,5.1036,5.1084,5.0641,4.9882,4.9308,4.8605,4.7811,4.7262,4.705,4.7029,4.705,4.7461,4.8066,4.7752,4.7788,4.7997,4.6954,4.6557,4.6983,4.6827,4.6573,4.6358,4.6302,4.6302,4.6302,4.63,4.6302,4.6278,4.63,4.6269,4.6176,4.6122,4.6037,4.5954,4.5924,4.5838,4.5698,4.5677,4.5653,4.5591,4.5735,4.5773,4.5668,4.5679,4.5627,4.5603,4.5594,4.5594,4.5586,4.5559,4.5541,4.5541,4.5495,4.5476,4.5457,4.5457,4.5467,4.5294,4.3942,4.2992,4.2801,4.1421,4.0407,4.0407,4.0407,4.0396,4.0432,4.0432,4.0424,4.0398,4.0362,4.0325,4.0325,4.0317,4.0309,4.031,4.0301,4.0291,4.0291,4.0291,4.0291,4.0291,4.0282,4.032,4.032,4.032,4.0273,4.0253,4.0225,4.0316,4.0427,4.0462,4.0514,4.0516,4.0537,4.0565,4.0597,4.0628,4.0668,4.0756,4.0791,4.0834,4.0906,4.0953,4.0977,4.1,4.1025,4.1045,5.0898,5.0898,5.0898,5.0731,5.0511,5.0498,5.0363,5.0198,5.0202,4.9738,4.8966,4.8511,4.7812,4.7031,4.6495,4.6309,4.6288,4.6303,4.6869,4.7694,4.7401,4.7419,4.7746,4.6868,4.6302,4.6302,4.6302,4.6302,4.6302,4.6302,4.6302,4.63,4.6247,4.6236,4.6214,4.617,4.6111,4.6024,4.5959,4.5875,4.5815,4.5744,4.566,4.5539,4.5533,4.5491,4.541,4.5571,4.5624,4.554,4.5522,4.5522,4.5522,4.5522,4.5541,4.5532,4.5495,4.5448,4.5448,4.5429,4.541,4.541,4.541,4.5237,4.4863,4.3819,4.3302,4.2717,4.1655,4.0803,4.0794,4.0488,4.0373,4.0354,4.0372,4.0353,4.0363,4.0336,4.0272,4.0244,4.0225,4.0196,4.0157,4.0147,4.0147,4.0166,4.0147,4.0147,4.0147,4.0147,4.0157,4.0176,4.0127,4.0117,4.0137,4.0147,4.0157,4.0244,4.029,4.0342,4.0383,4.0408,4.043,4.0434,4.0462,4.0487,4.0563,4.0604,4.0654,4.0765,4.0858,4.09,4.0913,4.0979,4.1009,5.0906,5.0906,5.0914,5.0519,4.9898,4.9876,4.9487,4.8778,4.8782,4.8406,4.7712,4.7692,4.7193,4.6488,4.6306,4.6302,4.6302,4.6302,4.6341,4.6477,4.6419,4.6516,4.6516,4.638,4.6302,4.6302,4.6302,4.6298,4.6271,4.6271,4.6277,4.6238,4.6154,4.6091,4.6053,4.5964,4.5911,4.5869,4.5814,4.5731,4.5603,4.5579,4.5533,4.5391,4.5391,4.54,4.539,4.541,4.5419,4.54,4.5438,4.5419,4.541,4.541,4.5419,4.5419,4.541,4.5419,4.5419,4.54,4.5381,4.5381,4.5362,4.5103,4.4528,4.4164,4.3666,4.3053,4.2116,4.1504,4.1313,4.0988,4.0578,4.0387,4.0376,4.0309,4.0282,4.0291,4.0206,4.0108,4.0096,4.0065,3.9943,3.9933,3.9933,3.9933,3.9933,3.9943,3.9943,3.9954,3.9911,3.9922,3.9984,3.9994,4.0026,4.0026,4.0036,4.0086,4.0147,4.0215,4.0281,4.0318,4.0336,4.0345,4.0344,4.036,4.04,4.0458,4.0526,4.0603,4.0681,4.0748,4.0839,4.0897,4.0956,5.0937,5.0976,5.1017,5.0589,4.9936,4.989,4.9391,4.8716,4.8665,4.8144,4.7648,4.7577,4.7084,4.6342,4.6302,4.6302,4.6302,4.6302,4.6302,4.6302,4.6302,4.6302,4.6302,4.63,4.63,4.6298,4.6273,4.6245,4.615,4.6147,4.6095,4.6017,4.5979,4.5924,4.5872,4.5838,4.577,4.5682,4.5611,4.5547,4.5466,4.5419,4.537,4.532,4.5329,4.5329,4.531,4.531,4.5351,4.54,4.541,4.541,4.54,4.54,4.54,4.539,4.54,4.5409,4.538,4.535,4.5329,4.5329,4.5329,4.5234,4.5032,4.44,4.3969,4.3539,4.2857,4.2062,4.1613,4.1607,4.1478,4.0956,4.0519,4.0244,4.0195,4.0147,4.0106,3.9994,3.9981,3.9998,3.9889,3.9878,3.9878,3.9878,3.9878,3.9878,3.9856,3.9856,3.9845,3.9878,3.9911,3.9911,3.9911,3.9911,3.9911,3.9933,4.0005,4.0096,4.0186,4.0272,4.0301,4.032,4.0328,4.0336,4.0344,4.0394,4.0417,4.0473,4.0552,4.0649,4.0744,4.0832,4.0854,5.0992,5.1042,5.1113,5.047,4.9463,4.9393,4.876,4.7831,4.7674,4.7473,4.7123,4.7061,4.6768,4.6319,4.6302,4.6302,4.6302,4.6302,4.6302,4.6298,4.6243,4.6245,4.6273,4.6267,4.6233,4.6209,4.615,4.6075,4.6033,4.602,4.5969,4.5906,4.5809,4.5744,4.5705,4.563,4.5599,4.5537,4.5455,4.5391,4.5359,4.5317,4.5307,4.5277,4.5277,4.5277,4.5277,4.5277,4.5319,4.5341,4.5361,4.5361,4.538,4.5361,4.5361,4.5361,4.535,4.5348,4.5348,4.5317,4.5286,4.5224,4.5213,4.4971,4.4671,4.4364,4.4325,4.377,4.3297,4.2818,4.2351,4.2075,4.1643,4.1097,4.053,4.0125,4.0045,4.0357,4.0247,4.0075,4.0106,4.0159,3.986,3.9785,3.9766,3.9773,3.975,3.9762,3.9762,3.9773,3.9785,3.9808,3.9808,3.9785,3.9773,3.9773,3.9781,3.9823,3.9897,3.9962,4.0036,4.0166,4.0215,4.0244,4.0273,4.031,4.0319,4.0327,4.0354,4.0413,4.0473,4.0523,4.0621,4.0694,4.075,5.1108,5.1113,5.1099,5.0167,4.8844,4.8593,4.7791,4.6523,4.6461,4.642,4.6378,4.6321,4.6378,4.6302,4.6302,4.6302,4.63,4.6273,4.6245,4.6209,4.6141,4.6135,4.6203,4.6131,4.6091,4.6061,4.5945,4.5905,4.5878,4.5894,4.5879,4.5783,4.5654,4.5579,4.553,4.5438,4.5399,4.538,4.5341,4.531,4.5298,4.5307,4.5297,4.5277,4.5277,4.5277,4.5277,4.5277,4.5288,4.5277,4.5277,4.5307,4.5307,4.5288,4.5288,4.5307,4.5307,4.5307,4.5286,4.5265,4.5203,4.5114,4.5072,4.4741,4.426,4.4476,4.4552,4.4014,4.3746,4.3622,4.3315,4.2224,4.1534,4.1252,4.0608,4.0102,4.0167,4.0605,4.064,3.9988,4.05,4.032,3.9939,3.9608,3.962,3.9686,3.9674,3.9674,3.9686,3.9686,3.9674,3.9662,3.965,3.9645,3.9633,3.9645,3.9668,3.9696,3.9785,3.9841,3.9875,3.9962,4.0055,4.0106,4.0117,4.0186,4.0244,4.0272,4.0282,4.0337,4.0396,4.04,4.043,4.053,4.0582,5.1155,5.1194,5.0528,4.9684,4.8749,4.8096,4.7266,4.6321,4.6302,4.6302,4.6302,4.6302,4.63,4.63,4.6277,4.6302,4.6251,4.6181,4.6095,4.5987,4.5954,4.5945,4.5987,4.5954,4.5954,4.5925,4.5915,4.5838,4.5764,4.5728,4.5665,4.5521,4.5503,4.5438,4.537,4.5341,4.5317,4.5317,4.5288,4.5277,4.5277,4.5277,4.5277,4.5277,4.5277,4.5277,4.5277,4.5277,4.5277,4.5277,4.5267,4.5246,4.5267,4.5267,4.5267,4.5275,4.5267,4.5235,4.517,4.5136,4.5072,4.4955,4.4931,4.4856,4.4718,4.4688,4.4795,4.4605,4.4531,4.421,4.383,4.2661,4.2018,4.1824,4.1237,4.0735,4.0982,4.0516,4.0273,4.039,4.0183,3.9833,3.9646,3.9608,3.9608,3.9608,3.9608,3.9608,3.9596,3.9583,3.9483,3.9432,3.9349,3.9304,3.9375,3.9419,3.9521,3.9576,3.9656,3.9734,3.9769,3.9808,3.9897,3.9941,3.9943,4.0036,4.0137,4.0166,4.0176,4.0234,4.031,4.0344,4.0394,4.0422,4.0466,5.0382,5.0047,4.9629,4.8979,4.8231,4.7788,4.71,4.6397,4.6302,4.6302,4.6302,4.6302,4.6271,4.6192,4.6209,4.6178,4.6105,4.6045,4.5949,4.5883,4.5853,4.579,4.5715,4.5722,4.5736,4.5764,4.5696,4.5619,4.5558,4.5554,4.5513,4.5399,4.5378,4.5348,4.5307,4.5277,4.5297,4.5307,4.5277,4.5277,4.5277,4.5277,4.5277,4.5277,4.5277,4.5277,4.5277,4.5277,4.5277,4.5246,4.5109,4.5076,4.5173,4.5203,4.5181,4.5125,4.5114,4.5072,4.5014,4.501,4.4943,4.4808,4.4796,4.4693,4.4595,4.4541,4.4453,4.4369,4.4236,4.4102,4.3878,4.2943,4.244,4.2267,4.162,4.1212,4.1348,4.0776,4.0321,4.0641,4.0472,4.0015,3.9758,3.9539,3.9476,3.9438,3.9438,3.9438,3.938,3.9354,3.9178,3.9078,3.8961,3.8947,3.9064,3.9197,3.9349,3.9426,3.9514,3.9614,3.9662,3.9703,3.9743,3.9789,3.9845,3.9911,4.0005,4.0036,4.0077,4.0157,4.0244,4.0291,4.0326,4.0314,4.0372,4.9393,4.8691,4.8638,4.8213,4.7625,4.7451,4.6963,4.6358,4.6302,4.6302,4.6278,4.6296,4.6187,4.6131,4.6087,4.5996,4.5924,4.5892,4.5847,4.5766,4.5737,4.5661,4.5573,4.5538,4.5545,4.5645,4.5518,4.5428,4.5429,4.5409,4.5419,4.5369,4.5347,4.5307,4.5297,4.5277,4.5277,4.5277,4.5277,4.5277,4.5277,4.5277,4.5277,4.5277,4.5173,4.5151,4.5109,4.5087,4.5065,4.5098,4.4795,4.4745,4.4857,4.4984,4.496,4.4858,4.4895,4.4827,4.4707,4.4739,4.4745,4.4627,4.4527,4.443,4.4214,4.4124,4.3999,4.3873,4.3777,4.3761,4.3625,4.3104,4.267,4.2406,4.1781,4.152,4.1541,4.1143,4.0555,4.0709,4.0339,3.9832,3.953,3.9283,3.9269,3.9261,3.9261,3.9234,3.9147,3.9045,3.8847,3.8755,3.8666,3.8636,3.8726,3.8803,3.898,3.9178,3.9304,3.9413,3.9527,3.9638,3.9679,3.9696,3.9754,3.9823,3.9867,3.9911,3.9984,4.0076,4.007,4.0062,4.011,4.0177,4.0155,4.8847,4.8711,4.8078,4.7703,4.7489,4.6827,4.6475,4.6319,4.6302,4.63,4.6275,4.6201,4.6135,4.6061,4.5959,4.5867,4.5829,4.5796,4.5745,4.5651,4.561,4.5531,4.5495,4.5448,4.5429,4.5438,4.54,4.539,4.5409,4.5408,4.5378,4.5328,4.5307,4.5297,4.5277,4.5277,4.5277,4.5267,4.5256,4.5246,4.5246,4.5224,4.5203,4.5162,4.4934,4.4819,4.4714,4.4482,4.4304,4.4304,4.4228,4.4175,4.4242,4.4438,4.4538,4.4584,4.47,4.4589,4.426,4.4289,4.4308,4.4196,4.406,4.403,4.4002,4.3908,4.3712,4.3646,4.3595,4.3579,4.339,4.3117,4.2977,4.2596,4.2159,4.1848,4.1903,4.1109,4.0206,4.0589,4.0122,3.953,3.918,3.8909,3.8851,3.8763,3.8703,3.8688,3.8624,3.8548,3.8421,3.8371,3.8371,3.8355,3.8387,3.8418,3.8527,3.8781,3.8957,3.9178,3.9304,3.954,3.9626,3.9595,3.9613,3.9672,3.9731,3.9781,3.9837,3.9933,3.987,3.9768,3.9602,3.9471,3.9424,4.7879,4.7471,4.7081,4.6944,4.6866,4.6495,4.6302,4.6302,4.63,4.6269,4.6187,4.6112,4.6048,4.5949,4.5883,4.5789,4.5719,4.57,4.5616,4.554,4.5513,4.5467,4.5448,4.5428,4.5369,4.5359,4.535,4.535,4.5348,4.5348,4.5328,4.5307,4.5277,4.5277,4.5277,4.5277,4.5277,4.5256,4.5132,4.5034,4.5042,4.4941,4.4838,4.4739,4.4617,4.4479,4.4359,4.4228,4.4098,4.4069,4.3903,4.3844,4.3862,4.3862,4.3958,4.408,4.4217,4.4192,4.3852,4.3915,4.3949,4.3905,4.3763,4.3697,4.3679,4.3562,4.339,4.3214,4.3124,4.305,4.2806,4.2827,4.271,4.2498,4.2179,4.2059,4.1808,4.0925,4.0664,4.0483,3.9602,3.9007,3.8667,3.847,3.8373,3.8277,3.8198,3.8148,3.8114,3.803,3.7946,3.7893,3.7893,3.786,3.7911,3.7995,3.8112,3.8368,3.8569,3.8785,3.9008,3.9178,3.9322,3.9362,3.9426,3.9558,3.9644,3.9708,3.9766,3.9717,3.9443,3.9193,3.8922,3.8764,3.868,4.6944,4.6302,4.6302,4.6302,4.6302,4.6302,4.6275,4.6271,4.6247,4.6178,4.6061,4.6028,4.5952,4.5828,4.5764,4.5708,4.5594,4.5603,4.5558,4.5513,4.5485,4.5438,4.5428,4.5388,4.5348,4.5317,4.5307,4.5277,4.5307,4.5307,4.5307,4.5277,4.5277,4.5246,4.5194,4.5132,4.5184,4.5053,4.4887,4.4726,4.465,4.4493,4.4327,4.4246,4.4184,4.4076,4.3979,4.3809,4.3762,4.3701,4.357,4.3454,4.3609,4.3407,4.3338,4.3511,4.3629,4.3646,4.3545,4.3612,4.3646,4.3612,4.358,4.3425,4.3285,4.3123,4.292,4.2631,4.257,4.255,4.2412,4.2269,4.2267,4.2207,4.2151,4.1994,4.1614,4.1101,4.0745,4.0166,3.9137,3.8717,3.8609,3.8013,3.7929,3.7756,3.765,3.7667,3.7614,3.7541,3.7468,3.7413,3.7376,3.7337,3.7394,3.7578,3.772,3.7943,3.8111,3.8273,3.8527,3.8774,3.8923,3.9096,3.9322,3.9439,3.9546,3.9631,3.9679,3.9493,3.9006,3.8558,3.8231,3.7969,3.783,4.6397,4.6302,4.6302,4.6302,4.6302,4.6302,4.6238,4.6138,4.6138,4.6029,4.5934,4.5879,4.5835,4.5778,4.5676,4.562,4.5594,4.5586,4.554,4.5495,4.5448,4.5419,4.5398,4.5328,4.5317,4.5277,4.5277,4.5277,4.5256,4.5256,4.5286,4.5275,4.5301,4.52,4.5057,4.5045,4.4745,4.4584,4.4503,4.4397,4.4346,4.4275,4.4198,4.4013,4.3796,4.3605,4.352,4.3334,4.3178,4.3123,4.3069,4.2995,4.2995,4.2976,4.2957,4.3124,4.3338,4.3494,4.3178,4.3232,4.3355,4.3303,4.3178,4.305,4.2958,4.2692,4.2492,4.2371,4.2328,4.2287,4.2205,4.2061,4.1998,4.1913,4.1849,4.1766,4.1505,4.131,4.0955,4.0598,3.9802,3.9236,3.8916,3.8148,3.7487,3.7299,3.7163,3.7238,3.7204,3.7185,3.7166,3.7166,3.7148,3.7126,3.7106,3.7261,3.7357,3.7578,3.7685,3.7807,3.8046,3.8326,3.8633,3.8828,3.9064,3.9322,3.947,3.9546,3.9583,3.9349,3.8919,3.8218,3.7467,3.7257,3.7217,4.6302,4.6302,4.6302,4.6302,4.6302,4.6302,4.6236,4.6128,4.6118,4.6002,4.5859,4.5802,4.5783,4.5673,4.562,4.5594,4.5586,4.5568,4.5504,4.5457,4.5429,4.537,4.5348,4.5317,4.5277,4.5267,4.5256,4.5151,4.5132,4.5154,4.5235,4.5099,4.5456,4.5609,4.5132,4.5224,4.5208,4.497,4.4549,4.4045,4.3857,4.3777,4.3728,4.356,4.3373,4.3249,4.3142,4.3014,4.2919,4.2919,4.2919,4.2919,4.2919,4.2919,4.2919,4.292,4.3105,4.3105,4.2957,4.3032,4.3087,4.305,4.2957,4.2882,4.2731,4.2474,4.2205,4.2082,4.2082,4.204,4.1952,4.1805,4.178,4.1714,4.167,4.1648,4.1569,4.1411,4.1165,4.0818,4.052,4.0038,3.9595,3.9118,3.8429,3.7853,3.7664,3.7578,3.7351,3.7068,3.7048,3.7029,3.7029,3.7009,3.7009,3.7087,3.7108,3.7262,3.7243,3.7413,3.7614,3.7878,3.8194,3.8465,3.8685,3.897,3.9283,3.947,3.9564,3.9258,3.8882,3.8254,3.7653,3.7287,3.7211,4.6302,4.6302,4.6302,4.6302,4.63,4.6271,4.6176,4.6053,4.602,4.5931,4.5787,4.5761,4.5692,4.562,4.5594,4.5586,4.5568,4.5513,4.5467,4.5429,4.5399,4.5359,4.5277,4.5246,4.5143,4.5154,4.5,4.4898,4.485,4.4875,4.4887,4.472,4.5155,4.5324,4.5227,4.5046,4.4927,4.4721,4.4146,4.3701,4.3445,4.3358,4.3251,4.3123,4.3012,4.2994,4.2919,4.2919,4.2919,4.2919,4.2919,4.2919,4.2919,4.2919,4.2919,4.2919,4.2976,4.2957,4.2919,4.2938,4.2919,4.2863,4.2749,4.265,4.2512,4.229,4.2061,4.1849,4.1827,4.174,4.1648,4.1626,4.1626,4.1648,4.1604,4.1604,4.1587,4.1481,4.1429,4.1253,4.1025,4.092,4.0514,4.019,3.9536,3.8676,3.8251,3.7985,3.7617,3.7213,3.7003,3.702,3.6987,3.6987,3.697,3.6989,3.6989,3.6989,3.6989,3.7048,3.7318,3.7504,3.7738,3.8015,3.8298,3.8533,3.8785,3.9165,3.9508,3.9271,3.8976,3.8544,3.8035,3.7615,3.7268,4.6302,4.6302,4.63,4.6298,4.6277,4.6153,4.6045,4.5924,4.586,4.5771,4.5654,4.562,4.5629,4.5594,4.5586,4.5559,4.5513,4.5504,4.5458,4.5419,4.5398,4.5309,4.5194,4.5023,4.4856,4.4807,4.4707,4.4565,4.4457,4.4484,4.4465,4.4481,4.4791,4.4456,4.437,4.4522,4.4262,4.4044,4.3621,4.3464,4.3269,4.3178,4.3068,4.2975,4.2919,4.2919,4.2919,4.2919,4.2919,4.2919,4.2919,4.2919,4.2919,4.2919,4.2919,4.2919,4.2919,4.2919,4.2919,4.2919,4.2882,4.2787,4.2611,4.2391,4.2308,4.1892,4.167,4.167,4.1692,4.167,4.1604,4.1604,4.1604,4.1604,4.1604,4.1604,4.1604,4.1587,4.1552,4.1587,4.1459,4.1244,4.117,4.0797,4.0223,3.9364,3.8762,3.8478,3.7988,3.7568,3.7206,3.7068,3.7003,3.6987,3.6987,3.6987,3.6989,3.6989,3.6989,3.6989,3.7068,3.7225,3.7394,3.7614,3.7913,3.8114,3.8339,3.8744,3.9073,3.9239,3.9138,3.8838,3.8413,3.7953,3.7615,4.6302,4.6278,4.6211,4.6178,4.6176,4.6112,4.6002,4.5841,4.5808,4.5739,4.5594,4.5594,4.5594,4.5586,4.5559,4.5522,4.5495,4.5448,4.5419,4.5389,4.5348,4.5205,4.5023,4.4843,4.4726,4.4559,4.443,4.4294,4.4166,4.4147,4.398,4.4042,4.4448,4.4644,4.4556,4.4269,4.3986,4.3571,4.3412,4.3323,4.316,4.3123,4.303,4.2919,4.2919,4.2919,4.2919,4.2919,4.2919,4.2919,4.2919,4.2919,4.2919,4.2919,4.2919,4.2919,4.2919,4.2919,4.2919,4.29,4.2844,4.267,4.2452,4.2228,4.2121,4.1762,4.1626,4.1604,4.1604,4.1604,4.1604,4.1604,4.1604,4.1604,4.1604,4.1604,4.1604,4.1604,4.1582,4.156,4.1515,4.1361,4.1356,4.1316,4.0691,4.0032,3.9464,3.8932,3.8496,3.7972,3.7609,3.7266,3.7201,3.6961,3.6926,3.6948,3.697,3.6989,3.6989,3.6989,3.6989,3.7009,3.7185,3.7356,3.7504,3.7703,3.798,3.8344,3.8663,3.8966,3.9182,3.927,3.8819,3.8307,3.8122,4.6302,4.6277,4.6147,4.6118,4.6095,4.6048,4.5922,4.5821,4.5749,4.57,4.5594,4.5594,4.5594,4.5577,4.5522,4.5495,4.5457,4.5409,4.5319,4.5246,4.5121,4.4965,4.4758,4.4559,4.4397,4.4289,4.4143,4.3999,4.3844,4.3862,4.373,4.383,4.4214,4.4331,4.4336,4.4288,4.3996,4.354,4.3323,4.3269,4.3104,4.3049,4.3012,4.2919,4.2919,4.2919,4.2919,4.2919,4.2919,4.2919,4.2919,4.2919,4.2919,4.2919,4.2919,4.2919,4.2919,4.2919,4.2919,4.29,4.2805,4.2631,4.243,4.2187,4.1934,4.1719,4.1604,4.1604,4.1604,4.1604,4.1604,4.1604,4.1604,4.1604,4.1604,4.1604,4.1604,4.1604,4.156,4.1515,4.1448,4.1403,4.1295,4.1272,4.1046,4.0458,3.9886,3.9504,3.9264,3.8686,3.8055,3.7715,3.7463,3.7173,3.6861,3.6886,3.6891,3.6989,3.6989,3.6989,3.6989,3.6989,3.6989,3.7164,3.728,3.7375,3.7578,3.7878,3.831,3.8741,3.899,3.9269,3.9258,3.8821,3.8814,4.6302,4.6277,4.6144,4.6095,4.6057,4.5891,4.5814,4.5764,4.5668,4.5612,4.5594,4.5594,4.5594,4.5596,4.5513,4.5476,4.541,4.538,4.5227,4.4969,4.4922,4.4695,4.443,4.4236,4.4102,4.3939,4.3812,4.3664,4.3566,4.3599,4.3513,4.3513,4.3713,4.375,4.3552,4.3465,4.343,4.3376,4.3215,4.3123,4.3067,4.2994,4.2938,4.2919,4.2919,4.2919,4.2919,4.2919,4.2919,4.2919,4.2919,4.2919,4.2919,4.2919,4.2919,4.2919,4.2919,4.2919,4.2919,4.2919,4.2786,4.2571,4.2369,4.2166,4.1934,4.1736,4.1604,4.1604,4.1604,4.1604,4.1604,4.1604,4.1604,4.1604,4.1604,4.1604,4.1604,4.1604,4.156,4.1453,4.1426,4.1358,4.1226,4.1157,4.1152,4.0822,4.0308,4.0013,3.9884,3.9341,3.8638,3.8074,3.77,3.7189,3.6882,3.6803,3.6831,3.693,3.697,3.695,3.6968,3.6987,3.7007,3.7046,3.7087,3.7185,3.7262,3.7376,3.7843,3.8326,3.8865,3.9146,3.9232,3.9156,3.8902,4.6302,4.6275,4.6057,4.5973,4.5954,4.5848,4.5749,4.5668,4.562,4.5594,4.5594,4.5594,4.5594,4.5568,4.5495,4.5419,4.539,4.532,4.5132,4.4812,4.4776,4.4498,4.424,4.4017,4.386,4.3699,4.3513,4.3479,4.3496,4.3479,4.3479,4.3479,4.3497,4.3479,4.348,4.3429,4.3376,4.3269,4.316,4.3067,4.2975,4.2919,4.2919,4.2919,4.2919,4.2919,4.2919,4.2919,4.2919,4.2919,4.2919,4.2919,4.2919,4.2919,4.2919,4.2919,4.2919,4.2919,4.2919,4.2881,4.2729,4.2512,4.2348,4.2103,4.178,4.167,4.1604,4.1604,4.1604,4.1604,4.1604,4.1604,4.1604,4.1604,4.1604,4.1604,4.1604,4.1604,4.156,4.1431,4.134,4.1198,4.1065,4.1041,4.1035,4.1035,4.0574,4.0516,4.0435,3.9864,3.9162,3.8481,3.7936,3.7324,3.6936,3.6945,3.6832,3.6806,3.6849,3.6869,3.6888,3.6948,3.6987,3.7007,3.7007,3.6989,3.7126,3.7261,3.7504,3.7913,3.8376,3.8778,3.8894,3.8679,3.8331,4.6273,4.6211,4.5992,4.5878,4.5846,4.5773,4.5676,4.5603,4.5594,4.5594,4.5594,4.5594,4.5594,4.5568,4.5476,4.541,4.539,4.5329,4.5,4.4714,4.465,4.4285,4.3983,4.383,4.3681,4.3531,4.3479,4.3479,4.3479,4.3479,4.3479,4.3479,4.348,4.3445,4.3428,4.3376,4.3287,4.3178,4.3068,4.2994,4.2938,4.2919,4.2919,4.2919,4.2919,4.2919,4.2919,4.2919,4.2919,4.2919,4.2919,4.2919,4.2919,4.2919,4.2919,4.2919,4.2919,4.2919,4.2919,4.2919,4.2747,4.249,4.2351,4.2079,4.1714,4.1626,4.1604,4.1604,4.1604,4.1604,4.1604,4.1604,4.1604,4.1604,4.1604,4.1604,4.1604,4.1604,4.1538,4.1426,4.1272,4.1088,4.0965,4.0942,4.0942,4.0918,4.0877,4.0894,4.0894,4.0359,3.9715,3.9036,3.8454,3.7966,3.7494,3.7155,3.6988,3.6754,3.6742,3.6748,3.6806,3.6846,3.6888,3.6968,3.6987,3.7007,3.7027,3.7164,3.7336,3.7522,3.7809,3.8167,3.8489,3.8162,3.7706,4.6214,4.6095,4.594,4.5846,4.578,4.5668,4.5603,4.5594,4.5594,4.5594,4.5594,4.5594,4.5586,4.5568,4.5467,4.5419,4.5351,4.5298,4.491,4.4552,4.443,4.4011,4.3712,4.3548,4.3548,4.3513,4.3479,4.3479,4.3479,4.3479,4.3479,4.348,4.3446,4.3394,4.334,4.3269,4.3196,4.3105,4.2994,4.2938,4.2919,4.2919,4.2919,4.2919,4.2919,4.2919,4.2919,4.2919,4.2919,4.2919,4.2919,4.2919,4.2919,4.2919,4.2919,4.2919,4.2919,4.2919,4.2919,4.2919,4.2786,4.257,4.2412,4.2079,4.1801,4.1653,4.1631,4.1626,4.1604,4.1604,4.1604,4.1604,4.1604,4.1604,4.1604,4.1604,4.1604,4.1582,4.1515,4.1426,4.1272,4.1111,4.0989,4.0935,4.0894,4.0894,4.0894,4.0894,4.0894,4.0894,4.0233,3.9577,3.9088,3.8713,3.8187,3.7347,3.6918,3.6579,3.664,3.6684,3.6705,3.6766,3.6826,3.6888,3.6948,3.6987,3.7027,3.7046,3.7105,3.7298,3.7449,3.7685,3.8032,3.7432,3.6982,4.6138,4.6087,4.59,4.5802,4.5786,4.5651,4.5594,4.5594,4.5594,4.5594,4.5594,4.5594,4.5587,4.5532,4.5438,4.541,4.529,4.5079,4.4758,4.4471,4.4221,4.3873,4.3649,4.3479,4.3479,4.3479,4.3479,4.3479,4.3479,4.3479,4.3463,4.3429,4.3412,4.3323,4.3215,4.3141,4.3086,4.3012,4.2881,4.2863,4.2863,4.2882,4.2863,4.2844,4.29,4.29,4.2919,4.2919,4.2919,4.2919,4.2919,4.2919,4.2919,4.2919,4.2919,4.2919,4.2919,4.2919,4.2919,4.2919,4.2824,4.2688,4.2532,4.2269,4.1977,4.1784,4.174,4.1675,4.1626,4.1604,4.1604,4.1604,4.1604,4.1604,4.1604,4.1604,4.1604,4.1582,4.1538,4.1403,4.1249,4.1152,4.1029,4.0935,4.0894,4.0894,4.0894,4.0894,4.0894,4.0894,4.0739,4.0083,3.9393,3.8933,3.7961,3.7107,3.6744,3.6437,3.652,3.6582,3.6585,3.6626,3.6728,3.6829,3.6928,3.6968,3.6989,3.7027,3.7046,3.7027,3.7184,3.7355,3.7399,3.6887,3.6445,4.6061,4.6016,4.586,4.5771,4.5715,4.5618,4.5594,4.5594,4.5594,4.5594,4.5586,4.5568,4.555,4.5495,4.5419,4.532,4.5164,4.4946,4.463,4.4236,4.4079,4.3812,4.3599,4.3479,4.3479,4.3479,4.3479,4.3479,4.3479,4.3479,4.3463,4.3412,4.3376,4.3105,4.2881,4.2728,4.2593,4.2613,4.2671,4.2731,4.2731,4.275,4.2787,4.2673,4.2749,4.2844,4.29,4.29,4.29,4.29,4.2919,4.2919,4.2919,4.2919,4.2919,4.2919,4.2919,4.2919,4.2919,4.2919,4.2824,4.2747,4.2689,4.2472,4.2187,4.1956,4.187,4.1762,4.167,4.1604,4.1604,4.1604,4.1604,4.1604,4.1604,4.1604,4.1604,4.1604,4.1515,4.1403,4.1267,4.1152,4.1035,4.0942,4.0894,4.0894,4.0894,4.0894,4.0894,4.0894,4.0825,4.048,3.9664,3.8979,3.7991,3.718,3.6788,3.6533,3.6381,3.6423,3.6444,3.6544,3.6681,3.6806,3.6928,3.6948,3.695,3.697,3.6989,3.6989,3.6989,3.7145,3.7069,3.6631,3.6235,4.6005,4.5894,4.5815,4.5723,4.5612,4.5594,4.5594,4.5594,4.5594,4.5594,4.5605,4.555,4.5513,4.5476,4.5429,4.5269,4.5057,4.4831,4.4525,4.4017,4.3926,4.3732,4.3565,4.3479,4.3479,4.3479,4.3479,4.3479,4.3479,4.3444,4.341,4.334,4.316,4.2825,4.2358,4.2236,4.2074,4.1952,4.2239,4.244,4.232,4.2438,4.2614,4.23,4.2458,4.2731,4.2806,4.2844,4.2881,4.29,4.2919,4.2919,4.2919,4.2919,4.2919,4.2919,4.2919,4.2862,4.2843,4.2824,4.2787,4.2787,4.2825,4.2611,4.2331,4.2187,4.2103,4.1805,4.1675,4.1648,4.1626,4.1604,4.1604,4.1604,4.1604,4.1604,4.1604,4.1604,4.156,4.1426,4.1295,4.1198,4.1105,4.1012,4.0894,4.0894,4.0894,4.0894,4.0894,4.0894,4.0843,4.0722,3.9957,3.9163,3.8456,3.768,3.7025,3.6701,3.6477,3.6546,3.6778,3.6741,3.6651,3.674,3.6788,3.6908,3.6948,3.6948,3.6968,3.6989,3.6989,3.6989,3.6788,3.6497,3.6219,4.5925,4.5883,4.5723,4.5629,4.5594,4.5594,4.5594,4.5594,4.5594,4.5594,4.5594,4.5577,4.5532,4.5448,4.5429,4.529,4.5098,4.4707,4.4457,4.4102,4.3876,4.3666,4.3513,4.3479,4.3479,4.3479,4.3479,4.3462,4.3463,4.3393,4.316,4.2771,4.2693,4.2458,4.1782,4.1696,4.1635,4.137,4.1547,4.1785,4.1696,4.1696,4.176,4.1717,4.1871,4.2139,4.2259,4.2398,4.2614,4.2788,4.29,4.2919,4.2919,4.2919,4.2919,4.2919,4.29,4.2805,4.2728,4.2688,4.2611,4.2512,4.2472,4.251,4.247,4.2432,4.2251,4.1917,4.1719,4.1675,4.1648,4.1626,4.1604,4.1604,4.1604,4.1604,4.1604,4.1582,4.1582,4.1453,4.134,4.1226,4.1134,4.1041,4.0942,4.0894,4.0894,4.0894,4.0894,4.0894,4.0894,4.0705,4.0112,3.9388,3.8784,3.818,3.7525,3.6956,3.6667,3.6839,3.7098,3.6959,3.6804,3.6651,3.6664,3.6856,3.6954,3.6866,3.6886,3.6965,3.6989,3.6989,3.6989,3.677,3.6476,4.5905,4.5872,4.5685,4.5594,4.5594,4.5594,4.5594,4.5594,4.5594,4.5594,4.5586,4.5568,4.5504,4.5419,4.54,4.5167,4.4953,4.4578,4.4202,4.3918,4.3761,4.3563,4.3479,4.3479,4.3479,4.3479,4.3463,4.3428,4.3393,4.3304,4.3032,4.2559,4.2458,4.2157,4.1432,4.1321,4.1253,4.0879,4.0932,4.0932,4.1024,4.1208,4.1298,4.1321,4.1432,4.1696,4.2032,4.2236,4.2478,4.275,4.29,4.2919,4.2919,4.2919,4.2919,4.2881,4.2824,4.2727,4.2609,4.251,4.2409,4.2308,4.2287,4.2369,4.2228,4.2207,4.2348,4.204,4.1852,4.1788,4.1653,4.1604,4.1604,4.1604,4.1604,4.1604,4.1604,4.1604,4.1582,4.156,4.1408,4.1232,4.1134,4.1012,4.0918,4.0894,4.0894,4.0894,4.0894,4.0894,4.0894,4.0774,4.0215,3.9784,3.9319,3.8698,3.8065,3.7495,3.6939,3.7081,3.7288,3.7115,3.6953,3.7026,3.7033,3.6998,3.7042,3.7027,3.6913,3.6939,3.6965,3.6989,3.6989,3.6989,3.6767,4.5883,4.5846,4.568,4.5594,4.5594,4.5594,4.5594,4.5594,4.5594,4.5594,4.5586,4.555,4.5476,4.5429,4.538,4.4946,4.463,4.4498,4.4084,4.3761,4.3565,4.3496,4.3479,4.3479,4.3497,4.3463,4.3429,4.334,4.3251,4.3178,4.2975,4.2555,4.2335,4.2154,4.1271,4.0955,4.0908,4.0458,4.0303,4.0221,4.0466,4.0838,4.0879,4.0972,4.1116,4.1547,4.1846,4.2157,4.234,4.2653,4.2844,4.2919,4.2919,4.29,4.2862,4.2824,4.2709,4.2591,4.2452,4.229,4.2246,4.2202,4.2225,4.2163,4.2019,4.2061,4.2205,4.2163,4.1959,4.1831,4.1675,4.1604,4.1604,4.1604,4.1604,4.1604,4.1604,4.1604,4.1604,4.1604,4.1431,4.1255,4.1117,4.1012,4.0942,4.0894,4.0894,4.0894,4.0894,4.0894,4.0894,4.0808,4.0498,4.0101,3.9698,3.9284,3.8669,3.8082,3.7594,3.7564,3.7581,3.778,3.7858,3.7707,3.7685,3.7557,3.7391,3.7363,3.7216,3.6966,3.6904,3.6911,3.6989,3.6989,3.6989,4.5803,4.5648,4.5612,4.5594,4.5594,4.5575,4.5594,4.5594,4.5575,4.5594,4.5556,4.5558,4.5513,4.541,4.5419,4.5105,4.4656,4.4484,4.425,4.3939,4.3599,4.3513,4.3479,4.348,4.3464,4.3411,4.3376,4.3323,4.3105,4.305,4.2671,4.1948,4.1782,4.1366,4.0531,4.0385,4.0434,4.0121,4.0113,4.0113,4.0113,4.0303,4.0279,4.0286,4.0311,4.0659,4.1019,4.1455,4.1867,4.2297,4.2691,4.2862,4.2881,4.2862,4.2786,4.265,4.2552,4.2371,4.219,4.2061,4.1995,4.1845,4.1866,4.187,4.1827,4.1913,4.1977,4.1977,4.1849,4.1784,4.167,4.1626,4.1604,4.1604,4.1604,4.1604,4.1604,4.1604,4.1604,4.152,4.1408,4.1277,4.1186,4.1065,4.0935,4.0912,4.0894,4.0894,4.0894,4.0894,4.0894,4.0791,4.067,4.025,3.9836,3.9836,3.9353,3.8715,3.821,3.8062,3.8234,3.8836,3.8864,3.8523,3.8299,3.817,3.801,3.7644,3.7273,3.7007,3.6876,3.6849,3.693,3.697,3.695]}]]